     2              OBSERVATION DATA    GPS                 RINEX VERSION / TYPE
ASRINEXO V2.4.4 UX USGS 24-FEB-96 16:15                     PGM / RUN BY / DATE
                                                            COMMENT
Contact: kwendt@isdmnl.wr.usgs.gov (Ph: 415-329-4866)       COMMENT
Contact: kwendt@isdmnl.wr.usgs.gov (Ph: 415-329-4866)       COMMENT
Contact: kwendt@isdmnl.wr.usgs.gov (Ph: 415-329-4866)       COMMENT
Contact: kwendt@isdmnl.wr.usgs.gov (Ph: 415-329-4866)       COMMENT
Contact: kwendt@isdmnl.wr.usgs.gov (Ph: 415-329-4866)       COMMENT
Contact: kwendt@isdmnl.wr.usgs.gov (Ph: 415-329-4866)       COMMENT
Original Marker Name: x137 X_1372_1988_NGS                  COMMENT
Campaign Name: USGS Yucca Profile                           COMMENT
4-Character Station Name: X137                              COMMENT
6-Character Antenna Code: ASHGD3                            COMMENT
Vertical Measurement Point: EGP                             COMMENT
Vertical Offset to Rinex Ref. Point: 0.0594                 COMMENT
Radial Measurement Point: EGP                               COMMENT
Radial Offset to Rinex Ref. Point: 0.1837                   COMMENT
Antenna Height from Field Measurement: 1.5450 m             COMMENT
Additional Antenna Identification Info.:                    COMMENT
The Whopper (700718AB)                                      COMMENT
Original XYZ: -2355971.3400 -4569162.6900 3764721.0200      COMMENT
New XYZ position is based on association with SCEC monument COMMENT
E1F4S6V6+0011. Position of that monument is believed to be  COMMENT
valid to within 1 m horizontally; vertical accuracy         COMMENT
should be no worse than 3-times this value.                 COMMENT
                                                            COMMENT
Revised Rinex header created by UCSD GPS archive for        COMMENT
GSAC on 08-Aug-2000 (2000:221) 00:06:53 GMT                 COMMENT
For assistance contact dagnew@ucsd.edu                      COMMENT
or anderson@python.ucsd.edu                                 COMMENT
                                                            COMMENT
X1372 1983                                                  MARKER NAME
CHS US GEOLOGICAL SURVEY                                    OBSERVER / AGENCY
143 ASHTECH Z-XII3 1F00                                     REC # / TYPE / VERS
11401 ASHTECH GEODETIC III                                  ANT # / TYPE
 -2356226.3402 -4569115.8882  3765027.5193                  APPROX POSITION XYZ
        1.4746        0.0000        0.0000                  ANTENNA: DELTA H/E/N
     1     1     0                                          WAVELENGTH FACT L1/2
     5    C1    L1    L2    P1    P2                        # / TYPES OF OBSERV
    30                                                      INTERVAL
  1996     2    10    16    39   30.000000                  TIME OF FIRST OBS
  1996     2    10    23    30    0.000000                  TIME OF LAST OBS
                                                            END OF HEADER
 96  2 10 16 39 30.0000000  0  5 25 22 18 14 29
  21228143.033       33066.20619
  19528445.979       -6616.13519
  21888562.524      -21942.18519
  18415719.370         944.51819
  19565791.042       -9577.28419
 96  2 10 16 40  0.0000000  0  6 25 22 18 14 15 29
  21247141.668      132893.70459     83838.34759  21247140.8044   21247146.0164
  19524571.927      -26979.88059    -17111.48659  19524572.3184   19524578.5354
  21875533.303      -90400.832 9    -57470.87659                  21875541.3454
  18416115.632        3019.934 9
  22083292.408      110697.33819
  19559973.178      -40146.10459    -25667.35459  19559972.4514   19559978.0464
 96  2 10 16 40 30.0000000  0  5 25 22 18 14 29
  23064863.154      232575.42349    161512.37549  23064864.2174   23064869.4364
  21319514.363      -46999.40849    -32711.11049  21319517.4954   21319523.8664
  23661223.304     -159056.52659   -110968.77149  23661225.4214   23661231.5914
  20215319.680        5383.944 9
  21352886.012      -70838.03949    -49583.14649  21352886.7114   21352892.2224
 96  2 10 16 41  0.0000000  0  6 25 22 18 14 15 29
  23083811.967      332154.46859    239106.39359  23083813.7964   23083818.9094
  21315769.644      -66686.12959    -48051.40559  21315771.3254   21315777.3664
  23648114.566     -227944.88059   -164647.98559  23648115.4874   23648121.8104
  20215818.167        8033.775 9       451.67859                  20215830.6674
  23925529.715      339189.22159    238453.85659  23925533.6274   23925541.5474
  21347024.624     -101644.56659    -73588.22559  21347024.4334   21347030.0554
 96  2 10 16 41 30.0000000  0  6 25 22 18 14 15 29
  23102736.599      431605.25249    316600.46549  23102738.3274   23102743.9394
  21312090.746      -86027.01549    -63122.21949  21312091.1574   21312096.8314
  23634965.100     -297045.82649   -218492.78349  23634964.3354   23634973.0084
  20216382.117       10970.92059      2740.36559  20216383.4364   20216389.6914
  23947216.641      453113.79559    327226.19259  23947212.9714   23947220.1114
  21341147.317     -132530.18049    -97654.93449  21341147.4264   21341152.7924
 96  2 10 16 42  0.0000000  0  6 25 22 18 14 15 29
  23121634.084      530906.30049    393977.86349  23121634.2914   23121640.2194
  21308474.306     -105030.65949    -77930.25449  21308474.6894   21308481.0064
  23621775.287     -366365.12149   -272507.86849  23621775.9604   23621782.4334
  20216995.452       14188.01549      5247.18249  20216995.5644   20217001.7004
  23968844.345      566800.17249    415812.90449  23968846.4434   23968854.0694
  21335250.566     -163505.51749   -121791.55749  21335252.8204   21335258.1294
 96  2 10 16 42 30.0000000  0  6 25 22 18 14 15 29
  23140503.774      630074.09349    471251.43649  23140505.6734   23140511.4604
  21304928.579     -123668.16549    -92452.97749  21304928.2394   21304934.3484
  23608550.271     -435866.90449   -326664.97449  23608550.8034   23608556.3274
  20217666.223       17717.56149      7997.47149  20217667.2654   20217673.4804
  23990438.859      680275.60249    504235.27049  23990440.0114   23990445.5394
  21329347.537     -194529.99149   -145966.46249  21329349.0834   21329354.5364
 96  2 10 16 43  0.0000000  0  6 25 22 18 14 15 29
  23159351.024      729111.23049    548423.18849  23159352.5274   23159357.3604
  21301454.170     -141923.51749   -106677.92749  21301454.2244   21301460.3354
  23595288.293     -505540.52449   -380956.10349  23595290.6494   23595299.1104
  20218400.152       21571.82749     11000.78549  20218400.7664   20218406.6654
  24011991.718      793545.92249    592497.78449  24011995.8824   24012001.3244
  21323438.423     -225585.34049   -170165.43149  21323439.4534   21323444.6894
 96  2 10 16 43 30.0000000  0  6 25 22 18 14 15 29
  23178171.877      828020.83849    625495.57449  23178173.9064   23178179.4834
  21298051.953     -159799.43949   -120607.20949  21298052.5624   21298058.5254
  23582001.377     -575376.64449   -435373.79749  23582000.8734   23582008.2774
  20219197.216       25763.44149     14266.97249  20219198.4404   20219204.2624
  24033514.624      906619.08249    680606.69149  24033511.8814   24033520.0334
  21317519.378     -256684.00349   -194398.14749  21317521.5544   21317527.0364
 96  2 10 16 44  0.0000000  0  6 25 22 18 14 15 29
  23196974.048      926821.43349    702483.02349  23196974.3484   23196980.6174
  21294722.425     -177300.31049   -134244.24149  21294722.3474   21294728.4284
  23568681.474     -645376.94049   -489919.45849  23568681.3054   23568689.1504
  20220060.380       30298.79949     17801.01249  20220061.7484   20220067.5564
  24054988.741     1019491.38249    768559.06949  24054991.5024   24055000.4314
  21311591.737     -287840.84149   -218676.20449  21311592.6724   21311597.9914
 96  2 10 16 44 30.0000000  0  6 25 22 18 14 15 29
  23215761.048     1025548.32149    779413.01649  23215762.3704   23215767.9554
  21291465.553     -194413.32149   -147579.05649  21291465.9214   21291471.9774
  23555333.428     -715518.20149   -544574.97649  23555334.9134   23555338.9934
  20220992.640       35197.41049     21618.10749  20220993.7804   20220999.8194
  24076432.805     1132181.65449    856369.62349  24076434.6354   24076443.7964
  21305654.989     -319039.45549   -242986.80449  21305655.7384   21305660.9604
 96  2 10 16 45  0.0000000  0  6 25 22 18 14 15 29
  23234535.336     1124212.81449    856294.40249  23234537.5894   23234542.8914
  21288280.481     -211150.98149   -160621.38549  21288280.7144   21288286.7974
  23541959.013     -785797.66049   -599338.10549  23541959.7004   23541967.8024
  20221991.327       40445.27949     25707.34949  20221992.2484   20221998.3504
  24097839.547     1244683.31549    944033.18649  24097843.1994   24097852.8094
  21299704.973     -350303.75449   -267348.59449  21299706.3804   21299712.0454
 96  2 10 16 45 30.0000000  0  6 25 22 18 14 15 29
  23253299.965     1222814.17049    933126.59349  23253301.0124   23253305.8704
  21285166.295     -227515.82249   -173373.20649  21285166.6794   21285172.8864
  23528561.343     -856206.16949   -654201.90249  23528560.5524   23528568.4534
  20223056.332       46038.39949     30065.61549  20223056.7814   20223062.8954
  24119218.609     1356998.95649   1031551.79249  24119216.8974   24119224.9694
  21293740.935     -381639.54449   -291766.08349  21293743.6294   21293748.9704
 96  2 10 16 46  0.0000000  0  6 25 22 18 14 15 29
  23272044.791     1321325.08249   1009888.30549  23272047.1614   23272052.3134
  21282120.785     -243516.83849   -185841.52649  21282121.9534   21282127.8304
  23515134.894     -926764.36849   -709182.24049  23515135.0144   23515140.4474
  20224180.492       51949.78549     34671.88649  20224181.8194   20224187.6124
  24140547.061     1469106.02549   1118907.88049  24140549.2394   24140558.1394
  21287763.945     -413052.64449   -316243.81649  21287765.8754   21287771.2694
 96  2 10 16 46 30.0000000  0  6 25 22 18 14 15 29
  23290771.975     1419730.60349   1086567.88949  23290772.9574   23290779.2104
  21279146.764     -259152.97949   -198025.52749  21279146.1944   21279152.4604
  23501679.231     -997473.67349   -764280.40949  23501679.9334   23501687.5774
  20225365.937       58179.87649     39526.49649  20225366.9084   20225372.9054
  24161842.358     1581004.51349   1206101.42549  24161844.6574   24161851.6244
  21281772.808     -444536.96749   -340777.05249  21281774.5064   21281779.9744
 96  2 10 16 47  0.0000000  0  6 25 22 18 14 15 29
  23309474.021     1518014.63649   1163152.81949  23309476.5184   23309481.4154
  21276241.092     -274417.11849   -209919.65749  21276241.8754   21276247.8574
  23488189.897    -1068346.38049   -819505.86049  23488193.3684   23488197.3464
  20226614.638       64740.24149     44638.46149  20226615.3564   20226621.4544
  24183095.270     1692689.90549   1293128.94549  24183096.6194   24183104.8884
  21275767.431     -476090.94149   -365364.55449  21275769.7594   21275775.2294
 96  2 10 16 47 30.0000000  0  6 25 22 18 14 15 29
  23328155.040     1616172.30649   1239639.28149  23328154.7384   23328159.6774
  21273409.754     -289298.40449   -221515.45849  21273409.8024   21273415.8234
  23474672.283    -1139392.06349   -874866.10849  23474671.7114   23474679.3904
  20227931.659       71662.75349     50032.61549  20227932.8704   20227939.0634
  24204306.898     1804166.45049   1379993.73149  24204310.3364   24204318.7934
  21269755.879     -507687.53049   -389985.27349  21269757.4754   21269762.7124
 96  2 10 16 48  0.0000000  0  6 25 22 18 14 15 29
  23346810.130     1714217.86149   1316038.38349  23346812.2724   23346817.0874
  21270652.993     -303780.62349   -232800.29649  21270653.9094   21270660.1854
  23461120.575    -1210605.58549   -930357.16749  23461119.9084   23461129.3314
  20229325.315       78985.37449     55738.54149  20229326.4244   20229332.3754
  24225486.006     1915442.38249   1466702.19449  24225484.9654   24225494.0734
  21263738.765     -539305.71249   -414622.81249  21263740.5024   21263745.9194
 96  2 10 16 48 30.0000000  0  6 25 22 18 14 15 29
  23365448.780     1812156.07549   1392353.82549  23365449.2854   23365454.6364
  21267971.867     -317875.73049   -243783.49049  21267971.9224   21267977.9464
  23447536.373    -1281986.90149   -985978.95149  23447537.5414   23447543.2604
  20230794.492       86707.04349     61755.42149  20230795.8934   20230801.7514
  24246623.812     2026510.99749   1553249.10649  24246621.6974   24246629.3454
  21257717.452     -570949.06849   -439279.96849  21257719.1624   21257724.5604
 96  2 10 16 49  0.0000000  0  6 25 22 18 14 15 29
  23384065.567     1910000.47549   1468596.18249  23384068.4984   23384074.1314
  21265366.968     -331562.54549   -254448.53249  21265367.3714   21265373.5684
  23433926.626    -1353508.21849  -1041709.75049  23433928.1884   23433935.9324
  20232342.060       94836.78849     68090.27649  20232342.9044   20232349.1224
  24267715.331     2137381.68849   1639641.76949  24267718.9294   24267727.3104
  21251694.852     -602594.84249   -463938.99849  21251697.1084   21251702.3924
 96  2 10 16 49 30.0000000  0  6 25 22 18 14 15 29
  23402673.061     2007771.57649   1544781.40849  23402674.0854   23402678.4804
  21262844.703     -344819.71549   -264778.79149  21262844.6834   21262850.8144
  23420294.186    -1425148.86549  -1097533.68749  23420295.7354   23420302.3774
  20233966.914      103381.87649     74748.77749  20233968.8444   20233974.7284
  24288779.337     2248068.67249   1725891.28949  24288781.7444   24288791.4194
  21245677.933     -634218.15949   -488580.54249  21245679.6434   21245684.9174
 96  2 10 16 50  0.0000000  0  6 25 22 18 14 15 29
  23421264.121     2105472.74549   1620912.14149  23421266.3104   23421271.0344
  21260403.975     -357643.83449   -274771.60449  21260404.4134   21260410.4754
  23406642.656    -1496886.77549  -1153433.29349  23406642.2124   23406647.1734
  20235668.601      112316.05249     81710.46349  20235669.2184   20235675.3694
  24309811.421     2358570.19449   1811996.28149  24309809.8174   24309818.8444
  21239661.618     -665832.95849   -513215.44949  21239663.3674   21239668.5544
 96  2 10 16 50 30.0000000  0  6 25 22 18 14 15 29
  23439847.077     2203117.49049   1696998.90049  23439847.5684   23439852.3504
  21258049.314     -370014.50849   -284411.08449  21258050.5934   21258056.5724
  23392976.630    -1568702.81449  -1209393.77749  23392977.8354   23392985.5774
  20237440.166      121633.35649     88970.69049  20237442.1874   20237448.1874
  24330804.655     2468899.93449   1897967.41349  24330805.2954   24330813.2124
  21233648.940     -697430.49849   -537836.90549  21233650.4524   21233656.0174
 96  2 10 16 51  0.0000000  0  6 25 22 18 14 15 29
  23458416.178     2300708.97949   1773044.16449  23458418.2564   23458423.8324
  21255787.430     -381903.38849   -293675.14449  21255787.7944   21255794.2074
  23379295.355    -1640600.53849  -1265418.00249  23379296.0224   23379302.6284
  20239289.149      131346.28249     96539.19749  20239290.4514   20239296.6224
  24351766.554     2579057.94149   1983804.74949  24351768.1484   24351775.3044
  21227639.479     -729011.99049   -562445.85849  21227640.9314   21227646.2764
 96  2 10 16 51 30.0000000  0  6 25 22 18 14 15 29
  23476981.980     2398268.10349   1849064.21149  23476983.1584   23476988.7204
  21253617.274     -393308.08149   -302561.91449  21253617.7454   21253623.6664
  23365597.724    -1712582.32549  -1321507.66449  23365599.5714   23365603.5324
  20241214.960      141467.55249    104425.89349  20241216.5694   20241222.7014
  24372698.418     2689050.71149   2069513.31949  24372699.5234   24372706.9894
  21221631.589     -760581.39049   -587045.38849  21221633.1564   21221638.7734
 96  2 10 16 52  0.0000000  0  6 25 22 18 14 15 29
  23495543.662     2495806.02549   1925067.73549  23495544.0004   23495548.8194
  21251539.665     -404220.30749   -311064.94549  21251541.1624   21251547.3414
  23351885.666    -1784641.49949  -1377657.60949  23351886.1714   23351894.7184
  20243221.079      152010.35449    112641.05349  20243222.6844   20243228.7924
  24393600.049     2798885.35749   2155098.68149  24393600.3874   24393607.5934
  21215626.464     -792136.56149   -611633.82849  21215628.5154   21215634.0034
 96  2 10 16 52 30.0000000  0  6 25 22 18 14 15 29
  23514099.416     2593324.31649   2001055.95649  23514101.2354   23514106.5384
  21249559.060     -414631.45349   -319177.52549  21249560.1044   21249565.9994
  23338155.869    -1856792.69449  -1433879.31249  23338156.1684   23338162.0294
  20245313.818      163001.90249    121205.88649  20245314.4834   20245320.6684
  24414469.542     2908565.07149   2240563.33349  24414470.6334   24414478.4694
  21209628.542     -823659.77749   -636197.37549  21209630.0354   21209635.3104
 96  2 10 16 53  0.0000000  0  6 25 22 18 14 15 29
  23532651.284     2690813.00349   2077021.09349  23532651.6104   23532658.4124
  21247672.429     -424545.98349   -326903.13749  21247673.4424   21247679.0014
  23324408.009    -1929031.40449  -1490169.17149  23324410.3794   23324416.3304
  20247491.179      174451.35949    130127.52949  20247493.3304   20247499.1504
  24435309.854     3018083.61649   2325902.35849  24435311.4034   24435319.9274
  21203635.287     -855151.43449   -660736.33149  21203637.2294   21203642.5564
 96  2 10 16 53 30.0000000  0  6 25 22 18 14 15 29
  23551195.244     2788264.30949   2152957.11749  23551197.0464   23551202.9474
  21245877.934     -433975.03849   -334250.45349  21245879.2424   21245884.8474
  23310648.502    -2001340.10549  -1546513.58249  23310649.8654   23310658.1364
  20249760.833      186372.53649    139416.74549  20249762.0654   20249767.6824
  24456125.205     3127451.87949   2411124.27549  24456123.4664   24456131.9524
  21197653.037     -886594.38349   -685237.33049  21197654.0204   21197659.3284
 96  2 10 16 54  0.0000000  0  6 25 22 18 14 15 29
  23569730.038     2885660.96149   2228850.54949  23569730.9924   23569736.7104
  21244180.279     -442899.34149   -341204.45849  21244181.0684   21244186.6614
  23296877.126    -2073706.23449  -1602902.73849  23296877.5554   23296884.3184
  20252121.304      198779.53449    149084.52749  20252122.7654   20252129.0824
  24476907.513     3236675.45149   2496233.46649  24476909.0234   24476917.0614
  21191681.493     -917971.22549   -709686.81649  21191683.0544   21191688.2944
 96  2 10 16 54 30.0000000  0  6 25 22 18 14 15 29
  23588254.007     2983005.60949   2304703.47249  23588254.7594   23588260.6414
  21242579.767     -451309.96549   -347758.19249  21242580.5444   21242586.2834
  23283100.545    -2146115.28349  -1659325.35349  23283099.5384   23283105.4134
  20254574.732      211673.00949    159131.37849  20254576.2924   20254582.3594
  24497665.719     3345755.06749   2581230.48249  24497665.6724   24497674.2944
  21185721.986     -949281.46849   -734084.40249  21185725.1554   21185730.4394
 96  2 10 16 55  0.0000000  0  6 25 22 18 14 15 29
  23606770.997     3080321.83249   2380534.24849  23606774.2024   23606779.7704
  21241080.084     -459191.23549   -353899.44349  21241080.8644   21241086.6604
  23269318.788    -2218534.49349  -1715755.87949  23269319.1384   23269326.2604
  20257124.173      225068.35949    169569.30049  20257125.3084   20257131.5344
  24518397.804     3454705.79549   2666127.09549  24518399.1214   24518407.7104
  21179780.759     -980508.73549   -758417.33549  21179782.7234   21179788.1524
 96  2 10 16 55 30.0000000  0  6 25 22 18 14 15 29
  23625285.526     3177617.00449   2456348.60949  23625288.3314   23625293.9144
  21239682.427     -466535.14949   -359621.97449  21239683.3024   21239689.2674
  23255535.793    -2290966.12049  -1772196.07849  23255536.5824   23255541.9284
  20259765.573      238953.66849    180389.01249  20259767.6414   20259773.8354
  24539106.231     3563527.26249   2750922.98149  24539107.4594   24539115.3734
  21173853.868    -1011653.90749   -782686.30149  21173856.0914   21173861.1504
 96  2 10 16 56  0.0000000  0  6 25 22 18 14 15 29
  23643798.477     3274908.60649   2532160.20449  23643802.3034   23643808.7964
  21238389.470     -473334.15649   -364919.90049  21238389.4784   21238395.3734
  23241748.779    -2363403.71249  -1828640.89449  23241750.4004   23241757.5714
  20262498.199      253309.28649    191575.19549  20262499.4364   20262505.4034
  24559788.666     3672213.59849   2835613.55849  24559789.2134   24559797.8394
  21167941.911    -1042718.01249   -806892.09349  21167944.5244   21167950.0224
 96  2 10 16 56 30.0000000  0  6 25 22 18 14 15 29
  23662320.775     3372233.93049   2607998.05649  23662323.0774   23662328.3134
  21237199.131     -479582.75249   -369788.93749  21237200.3664   21237206.3574
  23227967.668    -2435832.36149  -1885078.79649  23227969.5324   23227976.9044
  20265321.017      268147.21549    203137.20749  20265323.0784   20265329.1744
  24580447.311     3780779.85649   2920210.54049  24580450.0274   24580456.9754
  21162050.130    -1073681.86249   -831019.76549  21162052.5064   21162057.6544
 96  2 10 16 57  0.0000000  0  6 25 22 18 14 15 29
  23680843.418     3469570.35949   2683844.57349  23680845.0044   23680851.2774
  21236112.456     -485294.11949   -374239.36049  21236113.7174   21236119.5434
  23214185.702    -2508256.94049  -1941513.51949  23214186.6964   23214194.1104
  20268234.564      283456.84449    215066.76949  20268236.5314   20268242.5114
  24601081.144     3889215.05149   3004705.40749  24601082.8714   24601092.4504
  21156178.838    -1104541.51549   -855066.25749  21156179.9734   21156185.2894
 96  2 10 16 57 30.0000000  0  6 25 22 18 14 15 29
  23699367.129     3566907.03549   2759691.27249  23699368.2924   23699373.9524
  21235129.447     -490462.00649   -378266.27949  21235130.3424   21235135.9454
  23200403.013    -2580674.48149  -1997942.75449  23200405.7544   23200412.1284
  20271236.870      299233.99849    227360.64649  20271238.9514   20271245.1684
  24621692.163     3997519.82349   3089098.64149  24621692.5334   24621701.7604
  21150327.898    -1135284.41649   -879021.76149  21150329.9514   21150334.9234
 96  2 10 16 58  0.0000000  0  6 25 22 18 14 15 29
  23717890.030     3664245.24249   2835539.16649  23717891.2064   23717896.1564
  21234248.040     -495088.69149   -381871.49149  21234249.7494   21234255.6274
  23186627.336    -2653080.42649  -2054362.91849  23186627.0054   23186631.3644
  20274332.295      315500.37849    240035.72849  20274334.1144   20274340.2784
  24642279.087     4105697.90449   3173393.14349  24642279.3004   24642286.6804
  21144503.305    -1165892.98649   -902872.59849  21144505.3054   21144510.3114
 96  2 10 16 58 30.0000000  0  6 25 22 18 14 15 29
  23736412.742     3761583.96249   2911387.46949  23736413.8624   23736420.0254
  21233473.797     -499157.42049   -385041.93049  21233475.2264   21233481.3394
  23172849.471    -2725476.12649  -2110775.14449  23172851.1544   23172860.5944
  20277525.225      332280.04549    253110.78149  20277527.2484   20277533.4704
  24662840.445     4213755.64449   3257593.90249  24662842.3644   24662849.5084
  21138705.113    -1196363.32949   -926615.72549  21138706.9974   21138712.2534
 96  2 10 16 59  0.0000000  0  6 25 22 18 14 15 29
  23754932.492     3858912.34549   2987227.72949  23754935.2554   23754940.7604
  21232807.511     -502660.23049   -387771.39449  21232809.0464   21232814.8404
  23159075.694    -2797860.61449  -2167178.65249  23159077.1804   23159084.8244
  20280817.320      349573.93549    266586.52449  20280818.1454   20280824.4484
  24683379.750     4321689.20149   3341697.91849  24683380.3184   24683387.4444
  21132932.720    -1226695.77949   -950251.40249  21132935.0524   21132940.2804
 96  2 10 16 59 30.0000000  0  6 25 22 18 14 15 29
  23773456.800     3956247.19349   3063073.01349  23773458.3234   23773463.2014
  21232250.465     -505593.02049   -390056.69149  21232250.9304   21232256.7134
  23145301.329    -2870250.74549  -2223586.52549  23145302.3234   23145309.5174
  20284206.471      367391.44049    280470.28149  20284208.8994   20284214.8684
  24703893.768     4429495.49349   3425702.74949  24703894.9604   24703903.5724
  21127184.391    -1256900.22949   -973787.34349  21127187.4234   21127192.4524
 96  2 10 17  0  0.0000000  0  6 25 22 18 14 15 29
  23791981.632     4053609.10449   3138939.39349  23791985.3034   23791990.5054
  21231802.176     -507946.09349   -391890.25549  21231803.1884   21231808.9284
  23131525.850    -2942648.13449  -2280000.03249  23131525.8404   23131527.3014
  20287699.882      385748.85849    294774.75249  20287701.9604   20287708.0814
  24724383.690     4537174.33149   3509608.27649  24724386.8484   24724393.1904
  21121458.203    -1286996.68749   -997239.13249  21121460.2564   21121465.3774
 96  2 10 17  0 30.0000000  0  6 25 22 18 14 15 29
  23810515.313     4150995.06549   3214824.50949  23810517.5264   23810522.3844
  21231466.067     -509711.50949   -393265.91049  21231467.2534   21231472.9694
  23117749.378    -3015040.83849  -2336409.87049  23117748.5534   23117756.8514
  20291296.531      404646.65049    309500.29149  20291298.0674   20291304.5744
  24744852.132     4644728.08149   3593416.34049  24744854.4434   24744859.7194
  21115751.757    -1316981.96849  -1020604.29349  21115753.9784   21115759.4054
 96  2 10 17  1  0.0000000  0  6 25 22 18 14 15 29
  23829048.089     4248393.10649   3290719.00449  23829050.8624   23829057.1914
  21231240.636     -510897.37249   -394189.96449  21231241.5114   21231247.3844
  23103970.333    -3087430.19949  -2392817.18049  23103971.2214   23103984.4204
  20294993.784      424080.76349    324643.74449  20294996.2404   20295002.6684
  24765293.169     4752149.11949   3677120.99849  24765295.1574   24765299.4234
  21110068.898    -1346846.01249  -1043874.97849  21110071.1474   21110076.4844
 96  2 10 17  1 30.0000000  0  5 25 22 18 14 29
  23847584.832     4345810.18049   3366628.36849  23847588.5164   23847594.5734
  21231127.113     -511491.80749   -394653.16949  21231128.3354   21231134.2224
  23090200.859    -3159798.13749  -2449207.79649  23090199.9534   23090208.3644
  20298796.755      444062.62249    340214.00949  20298798.7924   20298805.1364
  21104411.738    -1376577.84949  -1067042.64849  21104413.5294   21104418.6674
 96  2 10 17  2  0.0000000  0  5 25 22 18 14 29
  23866128.734     4443238.13049   3442546.17349  23866129.2194   23866134.8164
  21231127.848     -511489.64849   -394651.49749  21231128.8854   21231134.6474
  23076439.098    -3232114.04649  -2505557.80249  23076439.2594   23076445.4334
  20302702.130      464588.36049    356208.07949  20302704.7954   20302710.9034
  21098782.670    -1406155.17449  -1090089.92049  21098785.0514   21098790.1204
 96  2 10 17  2 30.0000000  0  5 25 22 18 14 29
  23884663.203     4540648.19049   3518450.08649  23884665.5374   23884671.6054
  21231236.401     -510910.90949   -394200.53849  21231238.8144   21231244.7684
  23062683.881    -3304384.42249  -2561872.32449  23062684.3374   23062693.7674
  20306707.977      485636.81549    372609.45949  20306710.3224   20306716.5434
  21093187.360    -1435559.68049  -1113002.51949  21093189.6004   21093194.9144
 96  2 10 17  3  0.0000000  0  5 25 22 18 14 29
  23903200.225     4638061.49149   3594356.46849  23903203.5214   23903208.8894
  21231460.050     -509743.17949   -393290.62949  21231461.1584   21231466.9194
  23048945.425    -3376594.08049  -2618139.52649  23048944.6754   23048956.2584
  20310816.440      507227.35349    389433.23749  20310818.7354   20310824.6254
  21087624.327    -1464793.56049  -1135782.17349  21087626.6834   21087631.9044
 96  2 10 17  3 30.0000000  0  5 25 22 18 14 29
  23921736.368     4735471.04749   3670259.95049  23921739.8974   23921745.8974
  21231790.950     -508003.45949   -391935.01249  21231792.2974   21231798.0884
  23035215.909    -3448740.71549  -2674357.70049  23035218.7644   23035226.5124
  20315027.023      529352.91249    406673.92149  20315029.0264   20315035.3984
  21082087.721    -1493886.86049  -1158452.27949  21082090.3254   21082095.3844
 96  2 10 17  4  0.0000000  0  5 25 22 18 14 29
  23940274.115     4832879.23849   3746162.39549  23940276.0774   23940281.9614
  21232228.386     -505705.48749   -390144.39649  21232229.5704   21232235.4834
  23021495.192    -3520838.86049  -2730538.05649  23021496.8024   23021505.5754
  20319336.865      552002.83049    424323.18949  20319338.9814   20319345.1574
  21076577.620    -1522844.04049  -1181016.32149  21076580.0644   21076584.9554
 96  2 10 17  4 30.0000000  0  5 25 22 18 14 29
  23958811.496     4930301.18449   3822075.52749  23958815.0144   23958821.0234
  21232774.158     -502841.69349   -387912.88149  21232774.8714   21232780.2254
  23007785.463    -3592893.10049  -2786684.21249  23007784.9794   23007790.6774
  20323750.588      575190.79949    442391.72549  20323751.7074   20323757.8844
  21071092.213    -1551669.69849  -1203477.88049  21071094.7504   21071099.5314
 96  2 10 17  5  0.0000000  0  5 25 22 18 14 29
  23977356.956     5027753.01349   3898011.97149  23977359.3314   23977364.7734
  21233428.244     -499399.63149   -385230.76449  21233429.8974   21233435.4484
  22994080.126    -3664906.79149  -2842798.70149  22994081.5544   22994088.5144
  20328263.546      598915.64749    460878.60149  20328266.5734   20328272.4824
  21065628.566    -1580380.37349  -1225849.84249  21065630.9824   21065636.2814
 96  2 10 17  5 30.0000000  0  5 25 22 18 14 29
  23995907.748     5125232.45249   3973969.89949  23995908.4694   23995914.4244
  21234195.837     -495363.96649   -382086.10449  21234197.4894   21234203.1434
  22980382.604    -3736885.62149  -2898886.07549  22980385.8244   22980393.3724
  20332876.193      623154.59149    479766.07549  20332879.0294   20332885.2054
  21060190.865    -1608954.64449  -1248115.50849  21060193.5644   21060198.7034
 96  2 10 17  6  0.0000000  0  6 25 22 19 18 14 29
  24014459.925     5222738.04049   4049948.20949  24014463.8864   24014469.1104
  21235079.251     -490725.12849   -378471.43149  21235080.1884   21235086.0874
  24688261.593     -238690.20259   -164873.75359  24688262.0514   24688270.6754
  22966690.627    -3808850.45349  -2954962.57849  22966692.7344   22966701.1394
  20337585.316      647893.39549    499043.05249  20337586.6744   20337592.9684
  21054782.055    -1637381.85049  -1270266.58249  21054784.2224   21054789.0744
 96  2 10 17  6 30.0000000  0  6 25 22 19 18 14 29
  24033020.193     5320257.57949   4125937.39749  24033019.9304   24033027.0424
  21236078.088     -485472.63249   -374378.58349  21236080.0854   21236085.5664
  24672038.315     -323935.28459   -231298.44559  24672040.3444   24672049.1104
  22952997.079    -3880805.99049  -3011031.82249  22952999.7054   22953007.1214
  20342388.746      673141.50649    518716.88749  20342391.3514   20342397.4144
  21049398.820    -1665671.97049  -1292310.84049  21049400.6734   21049405.8414
 96  2 10 17  7  0.0000000  0  6 25 22 19 18 14 29
  24051578.147     5417787.29949   4201934.51049  24051579.6964   24051586.7134
  21237196.264     -479594.52049   -369798.24349  21237198.4584   21237204.2584
  24655838.694     -409069.73549   -297636.92149  24655839.6424   24655848.6264
  22939308.256    -3952750.41649  -3067092.38549  22939308.5534   22939313.9794
  20347293.344      698911.21249    538797.16049  20347295.1114   20347301.2524
  21044044.023    -1693808.18049  -1314235.16449  21044046.5614   21044051.6284
 96  2 10 17  7 30.0000000  0  6 25 22 19 18 14 29
  24070140.425     5515329.79349   4277941.57349  24070142.7624   24070148.8774
  21238433.379     -473094.85149   -364733.57749  21238435.3024   21238441.2504
  24639660.066     -494088.61749   -363885.41049  24639661.8694   24639670.0474
  22925621.505    -4024670.15049  -3123133.70149  22925623.3154   22925629.3694
  20352300.180      725222.93449    559299.78249  20352302.2664   20352308.2324
  21038722.520    -1721772.40749  -1336025.47549  21038725.2264   21038730.2954
 96  2 10 17  8  0.0000000  0  6 25 22 19 18 14 29
  24088702.864     5612878.00349   4353953.09049  24088704.5234   24088710.5654
  21239786.226     -465989.87749   -359197.24449  21239787.1864   21239792.9684
  24623502.766     -578995.86149   -430046.92549  24623503.5014   24623512.5994
  22911936.228    -4096576.86549  -3179164.88549  22911938.2064   22911947.4014
  20357415.210      752102.29249    580244.72049  20357417.0704   20357423.2764
  21033431.568    -1749578.54249  -1357692.59649  21033433.8694   21033439.1284
 96  2 10 17  8 30.0000000  0  6 25 22 19 18 14 29
  24107262.385     5710413.17249   4429954.45349  24107265.5934   24107271.7594
  21241248.178     -458303.10049   -353207.55449  21241250.3224   21241255.7824
  24607360.906     -663817.00749   -496141.27049  24607362.8474   24607371.9734
  22898255.825    -4168471.33149  -3235186.54049  22898258.9774   22898266.8614
  20362636.995      779547.28549    601630.41449  20362639.9184   20362645.9384
  21028167.584    -1777240.30949  -1379247.22549  21028170.1744   21028175.4524
 96  2 10 17  9  0.0000000  0  6 25 22 19 18 14 29
  24125821.948     5807944.77649   4505953.01849  24125824.9624   24125831.3784
  21242821.675     -450038.62549   -346767.71649  21242822.7244   21242828.4474
  24591238.415     -748542.32549   -562160.93449  24591240.8894   24591248.8644
  22884581.721    -4240337.93949  -3291186.50249  22884584.0014   22884591.5774
  20367968.185      807558.30649    623457.16349  20367970.0164   20367976.1264
  21022933.862    -1804743.30849  -1400678.13849  21022936.3464   21022941.6934
 96  2 10 17  9 30.0000000  0  6 25 22 19 18 14 29
  24144380.216     5905467.55649   4581944.73649  24144383.5194   24144388.6794
  21244501.103     -441211.38449   -339889.35949  21244502.4914   21244508.3914
  24575135.040     -833165.55149   -628101.15449  24575137.2364   24575145.3224
  22870911.992    -4312175.59249  -3347163.87649  22870911.5424   22870920.5384
  20373403.018      836118.86349    645712.12449  20373404.7884   20373410.9374
  21017727.950    -1832099.39949  -1421994.57949  21017730.7704   21017735.9294
 96  2 10 17 10  0.0000000  0  6 25 22 19 18 14 29
  24162935.185     6002978.31049   4657927.07349  24162938.4414   24162944.9154
  21246290.423     -431807.55749   -332561.71549  21246292.1414   21246298.0734
  24559054.237     -917673.05549   -693951.15449  24559055.7594   24559063.9924
  22857247.646    -4383967.97049  -3403105.95649  22857248.6104   22857258.5504
  20378941.627      865229.54749    668395.75749  20378944.5994   20378950.7184
  21012552.438    -1859302.46849  -1443191.78249  21012554.4284   21012559.4584
 96  2 10 17 10 30.0000000  0  6 25 22 19 18 14 29
  24181488.421     6100469.54149   4733894.18849  24181491.4224   24181497.0114
  21248188.825     -421835.31949   -324791.15249  21248189.8104   21248195.6534
  24542993.089    -1002072.67749   -759717.08049  24542996.0714   24543003.5714
  22843600.078    -4455697.47849  -3458999.06149  22843601.7144   22843608.3504
  20384583.674      894872.38349    691494.05449  20384585.4884   20384591.4794
  21007406.037    -1886343.57449  -1464262.77949  21007408.5204   21007413.6634
 96  2 10 17 11  0.0000000  0  6 25 22 19 18 14 29
  24200035.261     6197934.06449   4809840.50249  24200038.3574   24200043.2484
  21250193.388     -411300.24249   -316582.01749  21250194.6754   21250200.4884
  24526954.088    -1086361.50249   -825396.69649  24526955.4444   24526964.1114
  22829958.407    -4527369.27149  -3514847.15549  22829961.7004   22829970.3944
  20390321.632      925033.75649    714996.40249  20390325.0014   20390330.9754
  21002292.121    -1913218.53349  -1485204.30949  21002294.1764   21002299.4704
 96  2 10 17 11 30.0000000  0  6 25 22 19 18 14 29
  24218575.851     6295358.69849   4885755.71949  24218576.7904   24218582.9894
  21252304.286     -400205.28949   -307936.61149  21252305.8444   21252311.7744
  24510934.168    -1170543.36749   -890992.91749  24510936.5654   24510944.5944
  22816330.910    -4598985.78949  -3570652.28149  22816333.2284   22816338.0774
  20396159.847      955708.69849    738898.93649  20396162.1254   20396168.1174
  20997210.287    -1939923.51749  -1506013.39049  20997212.8094   20997217.8734
 96  2 10 17 12  0.0000000  0  6 25 22 19 18 14 29
  24237105.291     6392745.76549   4961641.66549  24237109.2064   24237115.8684
  21254522.565     -388548.30049   -298853.25749  21254524.0554   21254529.9914
  24494933.544    -1254622.67749   -956509.25549  24494935.7754   24494945.8294
  22802715.967    -4670540.35149  -3626409.06049  22802717.5454   22802722.7204
  20402097.747      986911.98249    763213.16449  20402100.0014   20402105.8914
  20992162.552    -1966449.01049  -1526682.61649  20992164.8044   20992170.2274
 96  2 10 17 12 30.0000000  0  6 25 22 19 18 14 29
  24255635.017     6490105.52149   5037506.34249  24255636.3054   24255642.5964
  21256848.356     -376325.45949   -289328.97949  21256849.9234   21256856.1734
  24478954.464    -1338601.07949  -1021946.91649  24478956.8894   24478964.9704
  22789111.590    -4742038.26849  -3682121.74249  22789111.4054   22789118.6124
  20408135.746     1018644.12749    787939.49049  20408138.4734   20408144.5524
  20987149.127    -1992791.08149  -1547208.90449  20987152.1824   20987157.4944
 96  2 10 17 13  0.0000000  0  6 25 22 19 18 14 29
  24274158.103     6587455.49549   5113363.34749  24274161.9254   24274166.8194
  21259285.937     -363518.17049   -279349.28449  21259287.3444   21259293.1844
  24462994.937    -1422467.19849  -1087297.17049  24462997.2184   24463005.3834
  22775516.883    -4813484.54349  -3737794.14249  22775516.1404   22775522.4404
  20414276.346     1050912.51949    813083.67249  20414278.9634   20414284.9154
  20982168.748    -2018964.24049  -1567603.57949  20982171.7094   20982176.8754
 96  2 10 17 13 30.0000000  0  6 25 22 19 18 14 29
  24292678.811     6684786.63549   5189205.74949  24292683.2074   24292690.2364
  21261834.630     -350120.90549   -268909.86749  21261836.6674   21261842.7934
  24447054.003    -1506232.20249  -1152568.45949  24447056.7484   24447066.1454
  22761925.999    -4884891.74249  -3793436.10449  22761928.4274   22761936.5124
  20420518.073     1083710.87149    838640.81149  20420520.3784   20420526.1724
  20977213.959    -2045006.17849  -1587896.00549  20977215.9704   20977221.3364
 96  2 10 17 14  0.0000000  0  6 25 22 19 18 14 29
  24311206.600     6782142.24549   5265067.17649  24311208.4894   24311214.9554
  21264505.221     -336088.64849   -257975.65049  21264506.7684   21264512.6644
  24431139.828    -1589867.98649  -1217739.33759  24431142.3994   24431151.4584
  22748349.112    -4956230.84949  -3849024.97349  22748353.0014   22748360.8284
  20426866.780     1117072.58949    864636.93649  20426868.9314   20426874.9674
  20972286.956    -2070897.57949  -1608071.13049  20972289.1834   20972294.2894
 96  2 10 17 14 30.0000000  0  6 25 22 19 18 14 29
  24329735.773     6879507.67849   5340936.27749  24329738.2664   24329743.4924
  21267294.682     -321431.74549   -246554.69949  21267296.0754   21267301.6914
  24415243.295    -1673397.53849  -1282827.12749  24415247.0624   24415254.7314
  22734781.213    -5027529.65449  -3904582.48549  22734785.9254   22734791.0294
  20433316.339     1150963.13449    891045.13149  20433318.0624   20433323.9774
  20967383.423    -2096665.09449  -1628149.71949  20967385.4364   20967390.9234
 96  2 10 17 15  0.0000000  0  6 25 22 19 18 14 29
  24348264.171     6976874.60449   5416806.52649  24348265.8304   24348272.2414
  21270200.851     -306157.58949   -234652.77049  21270202.6804   21270208.3384
  24399369.780    -1756819.12359  -1347831.13359  24399370.6304   24399380.8164
  22721225.594    -5098785.24249  -3960106.34349  22721225.7684   22721232.2314
  20439865.188     1185380.29949    917863.68249  20439867.2674   20439873.2844
  20962503.489    -2122308.34549  -1648131.47649  20962506.1224   20962511.4104
 96  2 10 17 15 30.0000000  0  6 25 22 19 18 14 29
  24366787.135     7074219.06349   5492659.25749  24366789.1954   24366795.3664
  21273220.065     -290294.60049   -222292.01749  21273221.1584   21273227.0304
  24383513.626    -1840149.04749  -1412763.39859  24383518.5794   24383520.1324
  22707669.953    -5169998.64849  -4015597.30049  22707671.4494   22707680.5064
  20446511.674     1220310.39449    945081.92149  20446514.4104   20446520.4584
  20957649.947    -2147813.00349  -1668005.24449  20957652.6044   20957657.7414
 96  2 10 17 16  0.0000000  0  6 25 22 19 18 14 29
  24385307.148     7171544.15049   5568496.92249  24385309.6114   24385316.2134
  21276345.946     -273866.67349   -209491.04849  21276347.4934   21276353.0484
  24367672.409    -1923383.52249  -1477621.45059  24367676.1654   24367684.9284
  22694127.969    -5241170.58149  -4071055.93949  22694130.9724   22694138.2494
  20453255.149     1255747.57949    972695.29449  20453258.0084   20453263.8934
  20952828.418    -2173151.83249  -1687749.79349  20952830.6234   20952836.0604
 96  2 10 17 16 30.0000000  0  6 25 22 19 18 14 29
  24403822.545     7268844.01749   5644314.90149  24403826.1414   24403831.2414
  21279576.486     -256887.00949   -196260.15549  21279578.5414   21279584.6664
  24351854.958    -2006506.60949  -1542392.71949  24351856.5284   24351867.2054
  22680591.751    -5312303.00749  -4126483.81649  22680594.2074   22680601.0134
  20460093.751     1291680.25849   1000694.76249  20460095.9384   20460101.8974
  20948038.521    -2198320.59649  -1707361.81649  20948041.3184   20948046.6454
 96  2 10 17 17  0.0000000  0  6 25 22 19 18 14 29
  24422334.986     7366121.83149   5720115.70449  24422337.4904   24422342.6834
  21282914.124     -239353.88749   -182597.99649  21282915.0684   21282921.0414
  24336064.192    -2089495.43549  -1607059.29249  24336066.3714   24336075.0184
  22667064.771    -5383377.34949  -4181866.38949  22667068.4244   22667075.1434
  20467030.053     1328131.04949   1029097.95649  20467032.1254   20467038.1894
  20943284.860    -2223304.32249  -1726829.66449  20943287.2344   20943292.4964
 96  2 10 17 17 30.0000000  0  6 25 22 19 18 14 29
  24440840.414     7463367.57949   5795891.54649  24440842.1904   24440849.1744
  21286355.031     -221267.95649   -168505.07749  21286356.6654   21286362.4074
  24320294.497    -2172352.51149  -1671623.18549  24320297.8964   24320306.9944
  22653552.374    -5454402.19449  -4237210.46249  22653553.0554   22653559.9014
  20474064.856     1365100.20449   1057905.06849  20474067.1124   20474073.2184
  20938563.519    -2248111.54749  -1746159.97949  20938566.3054   20938571.6704
 96  2 10 17 18  0.0000000  0  6 25 22 19 18 14 29
  24459339.313     7560582.08749   5871643.01449  24459342.3364   24459348.7564
  21289906.500     -202611.72049   -153967.76749  21289906.9744   21289912.5914
  24304555.273    -2255074.40549  -1736081.84449  24304557.1334   24304565.8964
  22640045.139    -5525375.02349  -4292513.95749  22640046.2894   22640055.7814
  20481200.070     1402594.75849   1087121.58149  20481201.8244   20481208.0624
  20933875.780    -2272747.58449  -1765356.90149  20933878.2564   20933883.8204
 96  2 10 17 18 30.0000000  0  6 25 22 19 18 14 29
  24477833.331     7657761.07649   5947366.83649  24477835.4034   24477842.2004
  21293569.008     -183358.25749   -138965.08149  21293570.9864   21293576.5304
  24288841.703    -2337650.77349  -1800427.09849  24288844.0364   24288850.8984
  22626557.858    -5596270.42949  -4347757.12149  22626559.3854   22626564.9754
  20488439.847     1440637.18849   1116765.01249  20488441.2764   20488447.3324
  20929222.534    -2297200.70949  -1784411.29049  20929224.9034   20929230.3494
 96  2 10 17 19  0.0000000  0  6 25 22 19 18 14 29
  24496311.890     7754875.60149   6023040.38149  24496315.9674   24496321.2854
  21297343.425     -163522.68449   -123508.80349  21297345.4314   21297350.9534
  24273148.195    -2420111.92149  -1864682.43349  24273152.1214   24273160.8564
  22613077.514    -5667105.70649  -4402953.41249  22613075.8424   22613084.0374
  20495783.384     1479230.83049   1146837.96149  20495785.4004   20495791.3274
  20924603.499    -2321475.18049  -1803326.46949  20924606.0064   20924611.0534
 96  2 10 17 19 30.0000000  0  6 25 22 19 18 14 29
  24514784.089     7851946.62149   6098680.04949  24514786.5154   24514793.1034
  21301233.937     -143076.25249   -107576.53549  21301236.2774   21301242.0534
  24257482.446    -2502442.77149  -1928836.40049  24257484.3834   24257492.3054
  22599611.541    -5737869.48449  -4458094.03449  22599613.8844   22599617.0904
  20503233.127     1518381.78549   1177345.17749  20503235.7384   20503241.7104
  20920020.743    -2345554.87449  -1822089.87849  20920023.4984   20920028.8564
 96  2 10 17 20  0.0000000  0  6 25 22 19 18 14 29
  24533249.215     7948975.29449   6174286.71649  24533249.4674   24533259.0414
  21305244.471     -122011.89749    -91162.76749  21305244.7924   21305250.4934
  24241840.083    -2584637.75149  -1992884.36149  24241844.3414   24241850.6264
  22586154.906    -5808566.19049  -4513182.38649  22586157.8604   22586164.3364
  20510786.456     1558077.69449   1208277.03249  20510789.6524   20510795.3734
  20915476.093    -2369438.59149  -1840700.57349  20915478.8344   20915483.8494
 96  2 10 17 20 30.0000000  0  6 25 22 19 18 14 29
  24551703.204     8045962.70849   6249861.19849  24551706.8224   24551713.0704
  21309368.128     -100337.75649    -74273.83849  21309369.1964   21309374.8884
  24226223.362    -2666696.73449  -2056826.40049  24226226.9174   24226236.4464
  22572712.808    -5879215.25349  -4568233.59249  22572714.6774   22572718.9364
  20518442.042     1598303.43949   1239621.74949  20518444.1674   20518450.3254
  20910966.531    -2393140.75749  -1859169.80249  20910968.4164   20910973.5154
 96  2 10 17 21  0.0000000  0  6 25 22 19 18 14 29
  24570154.896     8142916.39049   6325409.45049  24570156.6244   24570163.4274
  21313607.140      -78058.09249    -56913.07549  21313608.7984   21313614.6054
  24210636.338    -2748615.69449  -2120659.41349  24210639.6984   24210648.6594
  22559277.429    -5949832.07649  -4623259.70749  22559276.5814   22559283.1254
  20526195.140     1639046.72149   1271369.73549  20526197.3734   20526203.5324
  20906487.210    -2416676.91449  -1877509.67449  20906489.5884   20906494.7664
 96  2 10 17 21 30.0000000  0  6 25 22 19 18 14 29
  24588597.301     8239843.70349   6400937.09449  24588600.3604   24588608.4194
  21317962.600      -55169.86149    -39078.10149  21317964.2784   21317970.0064
  24195072.776    -2830397.59149  -2184385.52849  24195074.6384   24195083.6704
  22545843.816    -6020406.73749  -4678252.90049  22545847.0824   22545853.6064
  20534043.196     1680288.97049   1303506.53549  20534045.8424   20534051.7924
  20902037.707    -2440057.14749  -1895728.03949  20902040.4934   20902045.8094
 96  2 10 17 22  0.0000000  0  6 25 22 19 18 14 29
  24607037.703     8336733.53149   6476435.53549  24607037.9484   24607046.6014
  21322430.038      -31692.44849    -20784.02449  21322431.9464   21322437.7494
  24179535.005    -2912058.31649  -2248017.24049  24179535.2324   24179545.8004
  22532422.473    -6090936.05749  -4733210.82549  22532424.2254   22532430.6574
  20541987.738     1722035.63249   1336036.37949  20541990.0724   20541996.0564
  20897619.080    -2463278.42149  -1913822.54749  20897621.6954   20897626.6194
 96  2 10 17 22 30.0000000  0  6 25 22 19 18 14 29
  24625468.955     8433596.43549   6551912.98649  24625471.8254   24625479.7564
  21327009.580       -7624.57849     -2029.84549  21327011.8884   21327017.7704
  24164018.989    -2993594.11349  -2311551.66449  24164021.1164   24164030.6414
  22519013.791    -6161395.85349  -4788114.54949  22519017.0294   22519022.7534
  20550032.719     1764313.70349   1368980.31149  20550035.2964   20550041.3764
  20893233.432    -2486324.44249  -1931780.48849  20893236.0064   20893241.2174
 96  2 10 17 23  0.0000000  0  6 25 22 19 18 14 29
  24643892.793     8530406.40949   6627349.25549  24643894.7204   24643901.6344
  21331697.161       17005.96349     17162.76849  21331698.7964   21331704.7884
  24148521.342    -3075031.68049  -2375009.56449  24148522.9314   24148533.1044
  22505618.429    -6231787.65649  -4842965.29449  22505621.8344   22505629.0874
  20558176.598     1807109.45449   1402327.62649  20558178.9494   20558184.9134
  20888880.470    -2509199.00349  -1949604.82949  20888883.0294   20888888.3254
 96  2 10 17 23 30.0000000  0  6 25 22 19 18 14 29
  24662308.009     8627178.69149   6702756.08849  24662310.4444   24662315.7864
  21336493.376       42209.06049     36801.53749  21336494.9044   21336500.7664
  24133047.184    -3156360.52549  -2438382.63749  24133048.6074   24133055.1414
  22492244.069    -6302082.70249  -4897740.67149  22492245.8564   22492251.1954
  20566423.194     1850440.65449   1436092.17749  20566424.7344   20566430.9514
  20884564.788    -2531877.28549  -1967276.22149  20884567.6274   20884572.9044
 96  2 10 17 24  0.0000000  0  6 25 22 19 18 14 29
  24680716.140     8723921.34849   6778139.86249  24680719.8604   24680725.4894
  21341397.082       67977.29949     56880.67149  21341398.5394   21341404.3054
  24117591.832    -3237568.11449  -2501661.25449  24117594.7774   24117601.7254
  22478885.616    -6372280.34449  -4952440.13949  22478887.6864   22478893.7574
  20574769.996     1894310.88549   1470276.74749  20574772.8924   20574779.0134
  20880287.685    -2554356.25849  -1984792.31649  20880290.2614   20880295.1904
 96  2 10 17 24 30.0000000  0  6 25 22 19 18 14 29
  24699120.599     8820634.13649   6853500.36049  24699123.1004   24699129.5874
  21346408.335       94311.10249     77400.51049  21346409.7664   21346415.3274
  24102163.476    -3318640.31649  -2564834.35549  24102168.1354   24102176.2544
  22465546.090    -6442379.97949  -5007063.20749  22465547.7824   22465554.4574
  20583221.035     1938714.04649   1504876.58749  20583222.5694   20583228.6034
  20876048.265    -2576634.06349  -2002151.65449  20876050.8214   20876055.8564
 96  2 10 17 25  0.0000000  0  6 25 22 19 18 14 29
  24717519.598     8917325.28549   6928843.97049  24717523.0594   24717530.2374
  21351528.577      121217.05749     98366.18249  21351529.9364   21351535.4474
  24086764.163    -3399571.29649  -2627897.51349  24086766.3414   24086775.5874
  22452226.056    -6512381.44049  -5061609.79349  22452226.0964   22452232.8254
  20591771.060     1983647.86449   1539889.92649  20591773.3044   20591779.3304
  20871848.325    -2598704.58049  -2019349.46449  20871850.9824   20871856.1114
 96  2 10 17 25 30.0000000  0  6 25 22 19 18 14 29
  24735915.755     9013993.85749   7004170.04349  24735918.8914   24735925.3854
  21356756.736      148694.25949    119776.98149  21356758.7614   21356764.1224
  24071390.641    -3480359.81449  -2690849.55849  24071393.8264   24071401.6384
  22438921.485    -6582301.52649  -5116092.99549  22438922.9844   22438927.6324
  20600422.638     2029114.71149   1575318.61649  20600425.3194   20600431.3564
  20867685.267    -2620578.28549  -2036393.92049  20867688.5894   20867693.8814
 96  2 10 17 26  0.0000000  0  6 25 22 19 18 14 29
  24754304.725     9110629.74849   7079470.61749  24754307.3844   24754314.2214
  21362092.780      176732.75849    141625.15549  21362094.0604   21362099.9084
  24056038.767    -3561019.70549  -2753701.47349  24056042.7294   24056052.1994
  22425625.644    -6652155.66349  -5170524.75749  22425628.5024   22425634.5814
  20609177.746     2075118.77549   1611165.91849  20609179.4574   20609185.5134
  20863560.725    -2642256.74149  -2053286.23249  20863563.2944   20863568.4364
 96  2 10 17 26 30.0000000  0  5 22 19 18 14 29
  21367538.662      205352.80749    163926.48349  21367540.0814   21367545.9574
  24040720.565    -3641537.72349  -2816442.72449  24040721.9184   24040728.8974
  22412349.518    -6721936.82849  -5224899.68449  22412349.6624   22412356.8494
  20618038.048     2121678.68649   1647446.34449  20618039.5344   20618045.8184
  20859475.472    -2663726.23449  -2070015.71449  20859477.6394   20859482.9334
 96  2 10 17 27  0.0000000  0  5 22 19 18 14 29
  21373093.883      234552.64749    186679.59849  21373096.6684   21373102.5904
  24025423.950    -3721922.78849  -2879080.51249  24025425.9954   24025434.4944
  22399084.100    -6791645.42849  -5279218.05049  22399084.8164   22399091.4084
  20627001.269     2168784.80249   1684152.38449  20627003.7354   20627009.8894
  20855425.663    -2685002.93549  -2086594.97249  20855428.8184   20855434.1214
 96  2 10 17 27 30.0000000  0  5 22 19 18 14 29
  21378762.492      264335.11149    209886.70449  21378763.9554   21378769.9064
  24010150.753    -3802163.26949  -2941605.49049  24010155.5334   24010159.9304
  22385834.308    -6861266.22149  -5333468.00649  22385836.4054   22385843.1204
  20636068.219     2216430.09049   1721278.55949  20636070.2824   20636076.3744
  20851415.192    -2706082.27349  -2103020.43949  20851417.6104   20851422.7824
 96  2 10 17 28  0.0000000  0  5 22 19 18 14 29
  21384542.094      294705.41049    233551.86449  21384543.3634   21384548.9394
  23994913.220    -3882254.66349  -3004014.45049  23994914.4704   23994925.3564
  22372601.946    -6930797.63849  -5387648.32749  22372604.2624   22372610.7934
  20645232.634     2264591.67749   1758807.04649  20645234.9724   20645241.2334
  20847439.441    -2726972.11049  -2119298.24349  20847442.4074   20847447.5514
 96  2 10 17 28 30.0000000  0  5 22 19 18 14 29
  21390436.890      325687.69049    257693.88949  21390439.1784   21390445.0174
  23979708.588    -3962159.71449  -3066278.18949  23979711.2224   23979716.4704
  22359391.579    -7000226.38649  -5441748.66649  22359392.6884   22359399.5724
  20654493.906     2313264.11149   1796733.58949  20654496.9484   20654503.0884
  20843502.901    -2747661.89749  -2135420.16649  20843505.5004   20843510.4704
 96  2 10 17 29  0.0000000  0  5 22 19 18 14 29
  21396444.760      357257.70549    282293.89449  21396446.9034   21396452.6514
  23964532.930    -4041899.72649  -3128413.17849  23964535.4964   23964544.7044
  22346196.324    -7069563.50849  -5495777.58249  22346198.8824   22346204.4204
  20663848.184     2362421.50549   1835038.02949  20663851.7274   20663857.8254
  20839601.211    -2768163.66849  -2151395.58249  20839604.0814   20839608.9424
 96  2 10 17 29 30.0000000  0  5 22 19 18 14 29
  21402563.538      389409.92049    307347.55549  21402564.9934   21402570.8384
  23949387.372    -4121472.25149  -3190417.78349  23949390.0624   23949403.1074
  22333016.270    -7138823.36049  -5549746.27649  22333018.5344   22333026.2094
  20673295.753     2412062.79949   1873719.53249  20673297.8854   20673304.2064
  20835737.459    -2788465.61249  -2167215.28849  20835740.8284   20835745.7404
 96  2 10 17 30  0.0000000  0  5 22 19 18 14 29
  21408790.746      422135.30649    332847.84449  21408792.6344   21408798.3014
  23934281.189    -4200882.47549  -3252295.83649  23934283.3634   23934290.4874
  22319853.410    -7208011.16049  -5603658.86849  22319853.3354   22319858.4084
  20682835.017     2462196.20249   1912784.49249  20682838.1584   20682844.1684
  20831911.915    -2808570.30449  -2182881.29749  20831915.0074   20831920.2144
 96  2 10 17 30 30.0000000  0  5 22 19 18 14 29
  21415124.736      455422.68149    358786.04749  21415127.2664   21415132.7944
  23919199.004    -4280136.16049  -3314052.00449  23919201.7124   23919210.6834
  22306702.466    -7277111.71249  -5657503.44549  22306703.6704   22306710.6394
  20692473.029     2512841.14349   1952248.06049  20692475.4824   20692481.4254
  20828127.107    -2828459.68749  -2198379.53049  20828130.1064   20828135.3384
 96  2 10 17 31  0.0000000  0  5 22 19 18 14 29
  21421564.521      489263.59249    385155.57249  21421566.7774   21421572.5624
  23904143.072    -4359251.86449  -3375700.55349  23904146.3854   23904152.9774
  22293571.251    -7346111.27149  -5711269.33349  22293573.3394   22293579.0584
  20702208.732     2564007.06949   1992117.58649  20702212.2034   20702218.3194
  20824384.877    -2848127.53249  -2213705.13749  20824387.3794   20824392.7574
 96  2 10 17 31 30.0000000  0  5 22 19 18 14 29
  21428107.779      523650.20749    411950.32249  21428110.3034   21428116.0784
  23889109.451    -4438244.16249  -3437253.00149  23889112.2004   23889124.3784
  22280456.123    -7415027.02449  -5764969.91049  22280458.9874   22280466.6594
  20712044.517     2615688.28349   2032388.63649  20712046.7244   20712053.1244
  20820680.085    -2867593.23049  -2228873.22549  20820683.2214   20820688.4854
 96  2 10 17 32  0.0000000  0  5 22 19 18 14 29
  21434759.115      558601.47449    439185.06249  21434761.1854   21434767.0914
  23874104.530    -4517106.30349  -3498704.11249  23874106.9974   23874113.3304
  22267366.947    -7483832.29149  -5818584.40149  22267366.9264   22267371.4794
  20721981.767     2667910.59349   2073081.32049  20721984.0594   20721990.5684
  20817016.727    -2886848.89349  -2243877.65249  20817019.3704   20817024.3774
 96  2 10 17 32 30.0000000  0  5 22 19 18 14 29
  21441518.448      594117.47949    466859.85649  21441520.0454   21441525.9784
  23859121.468    -4595850.86649  -3560063.47649  23859122.9604   23859131.5474
  22254287.880    -7552542.88249  -5872125.10049  22254291.6574   22254297.5644
  20732020.416     2720665.17849   2114188.76049  20732023.0294   20732029.2864
  20813388.650    -2905910.86549  -2258731.14549  20813391.7204   20813396.8894
 96  2 10 17 33  0.0000000  0  5 22 19 18 14 29
  21448387.366      630211.87349    494985.33849  21448388.3924   21448394.3434
  23844155.088    -4674480.82149  -3621333.59249  23844161.0344   23844168.4894
  22241229.355    -7621166.47349  -5925598.02049  22241232.2084   22241238.4444
  20742160.008     2773949.68049   2155709.12349  20742162.7974   20742168.7674
  20809796.531    -2924790.17249  -2273442.29949  20809799.0784   20809804.1024
 96  2 10 17 33 30.0000000  0  5 22 19 18 14 29
  21455365.193      666881.81049    523559.29649  21455366.3814   21455372.2484
  23829213.405    -4752996.11349  -3682514.29449  23829216.3304   23829223.5604
  22228184.837    -7689715.61349  -5979012.93149  22228187.1504   22228194.1264
  20752399.699     2827755.70549   2197635.86949  20752402.0114   20752408.1704
  20806236.459    -2943495.99849  -2288018.27749  20806239.4894   20806244.7524
 96  2 10 17 34  0.0000000  0  5 22 19 18 14 29
  21462455.826      704146.19249    552596.45249  21462457.4854   21462463.3854
  23814303.583    -4831359.11649  -3743576.37049  23814305.3804   23814316.6844
  22215159.808    -7758159.21549  -6032345.58449  22215162.2884   22215169.6724
  20762740.722     2882095.51549   2239978.54949  20762742.4604   20762748.5144
  20802716.838    -2961994.19449  -2302432.46849  20802719.8534   20802724.4914
 96  2 10 17 34 30.0000000  0  5 22 19 18 14 29
  21469659.279      741997.80249    582091.19149  21469660.4524   21469666.5934
  23799420.353    -4909572.41349  -3804521.85749  23799423.1824   23799430.1524
  22202154.333    -7826515.63549  -6085610.33849  22202155.4184   22202161.5754
  20773177.796     2936943.59349   2282717.28849  20773179.6804   20773185.8504
  20799236.793    -2980280.46649  -2316681.51849  20799239.7944   20799244.8184
 96  2 10 17 35  0.0000000  0  5 22 19 18 14 29
  21476969.700      780418.12049    612029.07649  21476971.6224   21476977.5034
  23784564.639    -4987642.41649  -3865355.54449  23784567.3294   23784575.4184
  22189162.870    -7894789.66849  -6138810.86549  22189163.9294   22189169.9054
  20783705.549     2992276.03449   2325833.45049  20783708.9614   20783715.1704
  20795799.786    -2998340.27949  -2330754.10149  20795803.0484   20795808.4084
 96  2 10 17 35 30.0000000  0  5 22 19 18 14 29
  21484388.964      819408.15949    642410.90249  21484391.2044   21484396.9954
  23769742.170    -5065540.14049  -3926055.12049  23769744.9964   23769754.0944
  22176189.059    -7962963.89549  -6191933.62849  22176190.4154   22176195.9234
  20794330.006     3048102.82649   2369334.82049  20794332.4534   20794338.6834
  20792412.141    -3016144.99649  -2344627.91849  20792415.0724   20792420.0064
 96  2 10 17 36  0.0000000  0  5 22 19 18 14 29
  21491915.676      858961.56349    673231.71149  21491918.0064   21491924.0484
  23754946.584    -5143278.43349  -3986630.36049  23754949.7224   23754958.2714
  22163231.732    -8031052.04949  -6244989.32249  22163233.1014   22163240.0234
  20805046.277     3104419.97549   2413218.28649  20805049.4524   20805055.8244
  20789072.928    -3033693.33849  -2358301.96049  20789075.8934   20789080.5764
 96  2 10 17 36 30.0000000  0  5 22 19 18 14 29
  21499550.779      899082.18849    704494.50849  21499552.6804   21499558.7184
  23740181.308    -5220869.61049  -4047090.96549  23740182.3754   23740194.9024
  22150292.582    -8099040.90949  -6297967.64149  22150295.3214   22150301.8584
  20815860.763     3161245.25149   2457497.69749  20815862.7514   20815869.2674
  20785783.284    -3050979.83149  -2371771.96449  20785786.1274   20785791.1924
 96  2 10 17 37  0.0000000  0  5 22 19 18 14 29
  21507290.216      939752.43149    736185.57849  21507291.9854   21507298.0034
  23725446.996    -5298310.37949  -4107434.44849  23725450.8054   23725456.7014
  22137376.098    -8166914.20249  -6350855.91349  22137379.2094   22137386.0964
  20826770.967     3218580.02749   2502174.11249  20826773.2594   20826779.6614
  20782540.749    -3068017.00649  -2385047.69449  20782544.0824   20782549.2594
 96  2 10 17 37 30.0000000  0  5 22 19 18 14 29
  21515134.905      980974.27649    768306.47549  21515136.2794   21515142.2324
  23710739.498    -5375601.26749  -4167661.03649  23710740.0124   23710746.9254
  22124482.981    -8234674.07349  -6403655.80249  22124485.5294   22124491.8624
  20837778.477     3276425.68649   2547248.62449  20837781.0364   20837787.5764
  20779340.286    -3084838.53949  -2398155.39149  20779343.1354   20779348.1824
 96  2 10 17 38  0.0000000  0  5 22 19 18 14 29
  21523089.103     1022771.21649    800875.49049  21523090.2114   21523096.0104
  23696062.170    -5452727.98549  -4227759.79849  23696066.2544   23696073.6364
  22111616.165    -8302291.75849  -6456344.89749  22111618.6284   22111624.2044
  20848886.479     3334795.81749   2592731.81749  20848888.4184   20848895.3374
  20776180.636    -3101443.91449  -2411094.65449  20776183.3524   20776188.2304
 96  2 10 17 38 30.0000000  0  5 22 19 18 14 29
  21531148.929     1065129.90549    833882.23249  21531150.7584   21531156.8214
  23681418.349    -5529676.10649  -4287719.34849  23681420.4214   23681427.5034
  22098777.221    -8369754.19849  -6508913.02849  22098780.6014   22098786.1554
  20860089.378     3393673.70349   2638610.66149  20860092.5144   20860099.3034
  20773058.951    -3117845.82249  -2423875.37149  20773061.9314   20773066.8494
 96  2 10 17 39  0.0000000  0  5 22 19 18 14 29
  21539316.162     1108043.86249    867321.65249  21539316.8934   21539322.9714
  23666810.588    -5606431.01249  -4347528.32049  23666814.0824   23666820.9194
  22085969.667    -8437068.41949  -6561365.67049  22085971.0994   22085977.5044
  20871390.141     3453051.91049   2684879.36149  20871391.8454   20871398.5374
  20769974.644    -3134056.11849  -2436506.78149  20769977.2414   20769982.2544
 96  2 10 17 39 30.0000000  0  5 22 19 18 14 29
  21547589.917     1151527.85349    901205.24949  21547591.8694   21547597.7294
  23652244.217    -5682988.86749  -4407183.81549  23652246.0254   23652255.5584
  22073188.715    -8504234.52349  -6613702.89549  22073190.0604   22073195.7594
  20882784.354     3512934.95849   2731541.44549  20882787.2874   20882793.7734
  20766927.881    -3150064.61449  -2448980.94749  20766931.0954   20766935.9984
 96  2 10 17 40  0.0000000  0  5 22 19 18 14 29
  21555972.245     1195570.79949    935524.39549  21555972.8504   21555978.7704
  23637710.799    -5759357.08949  -4466691.49349  23637713.1434   23637721.4544
  22060434.367    -8571260.60349  -6665930.99149  22060435.0814   22060441.3654
  20894275.791     3573321.49949   2778595.86249  20894278.4564   20894285.1844
  20763924.874    -3165843.25349  -2461275.99949  20763928.4144   20763933.4454
 96  2 10 17 40 30.0000000  0  5 22 19 18 14 29
  21564456.165     1240161.99749    970270.75349  21564458.4234   21564464.0504
  23623213.322    -5835550.81249  -4526063.21749  23623215.3584   23623224.0344
  22047697.935    -8638176.66349  -6718073.35349  22047700.9174   22047707.9154
  20905861.588     3634202.16549   2826035.31149  20905863.6974   20905870.0834
  20760966.581    -3181392.51949  -2473392.31749  20760969.6884   20760974.8114
 96  2 10 17 41  0.0000000  0  5 22 19 18 14 29
  21573050.197     1285321.88949   1005460.24949  21573052.0644   21573057.7564
  23608743.301    -5911575.58349  -4585303.31749  23608748.0764   23608756.2254
  22034982.869    -8704990.75549  -6770136.27949  22034986.5684   22034993.4214
  20917541.604     3695584.56549   2873865.72049  20917544.6894   20917551.0994
  20758055.740    -3196689.31549  -2485311.90949  20758058.8404   20758063.8124
 96  2 10 17 41 30.0000000  0  5 22 19 18 14 29
  21581755.071     1331066.37849   1041105.27549  21581756.9854   21581762.7884
  23594309.853    -5987443.22349  -4644420.94549  23594311.2194   23594318.8774
  22022288.620    -8771700.85749  -6822118.16849  22022292.2164   22022298.9614
  20929317.985     3757468.51049   2922086.94849  20929320.7534   20929326.9904
  20755198.291    -3211706.14549  -2497013.34849  20755201.2204   20755206.1194
 96  2 10 17 42  0.0000000  0  5 22 19 18 14 29
  21590567.409     1377381.49949   1077194.95449  21590570.4744   21590576.2734
  23579898.596    -6063165.96749  -4703425.69249  23579901.6644   23579910.7034
  22009614.394    -8838315.64549  -6874025.79749  22009616.1444   22009622.3704
  20941186.660     3819841.95549   2970689.60349  20941190.1434   20941196.3264
  20752395.070    -3226436.67249  -2508491.68549  20752397.8854   20752402.6484
 96  2 10 17 42 30.0000000  0  5 22 19 18 14 29
  21599488.988     1424258.58149   1113722.51649  21599491.0124   21599496.7994
  23565518.482    -6138738.50649  -4762313.34449  23565521.7744   23565528.3604
  21996958.473    -8904817.44749  -6925845.35849  21996961.0394   21996967.6724
  20953149.714     3882702.15549   3019671.54349  20953152.0054   20953158.4934
  20749643.981    -3240894.06149  -2519757.19649  20749647.1134   20749651.9434
 96  2 10 17 43  0.0000000  0  5 22 19 18 14 29
  21608513.871     1471687.42749   1150680.02849  21608516.1284   21608521.9454
  23551165.961    -6214148.35149  -4821074.28449  23551169.8694   23551179.6244
  21984331.240    -8971175.42149  -6977552.86249  21984333.7064   21984340.0524
  20965204.747     3946051.63449   3069034.74349  20965206.9214   20965213.0364
  20746944.295    -3255080.82649  -2530811.82849  20746947.0214   20746952.3264
 96  2 10 17 43 30.0000000  0  5 22 19 18 14 29
  21617639.173     1519638.42849   1188044.42049  21617641.1064   21617646.7074
  23536852.077    -6289383.04549  -4879698.73549  23536853.0934   23536862.0284
  21971734.288    -9037376.88849  -7029138.41349  21971735.9724   21971742.6024
  20977353.244     4009896.10549   3118783.65249  20977356.3074   20977362.5024
  20744291.390    -3269021.74049  -2541674.88549  20744294.1254   20744299.3174
 96  2 10 17 44  0.0000000  0  5 22 19 18 14 29
  21626860.145     1568096.03949   1225803.56649  21626861.9894   21626867.9814
  23522572.532    -6364419.17149  -4938168.43649  23522574.8634   23522577.4064
  21959166.137    -9103414.61749  -7080596.36849  21959168.9254   21959175.5484
  20989598.859     4074242.65649   3168923.78649  20989601.0084   20989607.1354
  20741678.992    -3282749.30649  -2552371.69849  20741682.1174   20741687.2134
 96  2 10 17 44 30.0000000  0  5 22 19 18 14 29
  21636176.459     1617057.52449   1263955.34549  21636179.3784   21636185.1414
  23508330.869    -6439256.93749  -4996483.57949  23508332.8894   23508343.9164
  21946630.893    -9169294.20849  -7131931.12049  21946633.1724   21946639.4704
  21001939.066     4139096.37549   3219459.12449  21001942.1134   21001948.5594
  20739100.960    -3296296.66149  -2562928.08749  20739104.2394   20739108.9764
 96  2 10 17 45  0.0000000  0  5 22 19 18 14 29
  21645593.596     1666539.74149   1302512.89049  21645595.4074   21645601.3294
  23494126.591    -6513891.43549  -5054640.29849  23494129.2034   23494137.9984
  21934124.282    -9235022.22649  -7183147.76649  21934125.5794   21934131.9024
  21014377.142     4204459.65149   3270391.51649  21014380.3854   21014386.9244
  20736560.187    -3309649.30549  -2573332.75649  20736563.3504   20736568.0654
 96  2 10 17 45 30.0000000  0  5 22 19 18 14 29
  21655112.576     1716558.38349   1341488.42549  21655113.6684   21655119.8824
  23479960.246    -6588348.48749  -5112658.76549  23479961.3084   23479969.7144
  21921639.587    -9300621.11349  -7234263.75349  21921642.2664   21921648.8924
  21026912.710     4270331.41649   3321720.13849  21026915.3164   21026922.0664
  20734059.374    -3322793.16149  -2583574.73149  20734061.9864   20734067.0094
 96  2 10 17 46  0.0000000  0  5 22 19 18 14 29
  21664733.794     1767121.61749   1380888.32249  21664735.5984   21664741.9024
  23465816.703    -6662664.86749  -5170567.61149  23465820.9264   23465827.3234
  21909177.599    -9366109.99849  -7285294.05449  21909180.1564   21909186.8104
  21039539.342     4336687.36349   3373426.04149  21039542.4704   21039549.1434
  20731599.069    -3335720.32249  -2593647.85049  20731602.1204   20731607.0404
 96  2 10 17 46 30.0000000  0  5 22 19 18 14 29
  21674464.162     1818258.84849   1420735.48749  21674466.8644   21674472.7084
  23451703.491    -6736842.50949  -5228368.38849  23451705.6484   23451715.2554
  21896740.979    -9431467.76549  -7336222.19749  21896743.3314   21896749.3684
  21052260.888     4403534.57849   3425514.74649  21052263.0504   21052269.6654
  20729191.321    -3348374.46549  -2603508.23249  20729194.1034   20729199.0494
 96  2 10 17 47  0.0000000  0  5 22 19 18 14 29
  21684306.401     1869979.00449   1461036.88149  21684308.9934   21684314.9284
  23437612.042    -6810882.60149  -5286061.97249  23437615.2554   23437623.9404
  21884328.998    -9496689.54949  -7387044.34949  21884331.5304   21884338.0514
  21065073.466     4470871.77949   3477985.25949  21065076.9194   21065083.4364
  20726842.116    -3360718.86549  -2613127.25149  20726844.9464   20726849.8874
 96  2 10 17 47 30.0000000  0  5 22 19 18 14 29
  21694256.427     1922262.92549   1501777.57449  21694258.1344   21694264.1344
  23423548.265    -6884791.52449  -5343653.31949  23423550.7054   23423559.1554
  21871941.714    -9561784.20649  -7437767.46849  21871944.5494   21871950.9594
  21077980.611     4538690.09849   3530830.67349  21077982.2364   21077988.8204
  20724550.285    -3372762.81449  -2622512.15549  20724553.1504   20724558.1304
 96  2 10 17 48  0.0000000  0  5 22 19 18 14 29
  21704311.761     1975103.60349   1542952.10449  21704313.4044   21704319.3914
  23409516.224    -6958530.55849  -5401112.30449  23409517.9614   23409529.9824
  21859581.364    -9626735.96949  -7488379.23049  21859584.3574   21859590.4634
  21090976.869     4606993.30349   3584053.91949  21090980.0274   21090986.7274
  20722317.962    -3384493.74049  -2631653.13949  20722320.9784   20722325.7614
 96  2 10 17 48 30.0000000  0  5 22 19 18 14 29
  21714470.010     2028486.79149   1584549.36749  21714471.9424   21714478.0254
  23395516.398    -7032092.81849  -5458433.51649  23395519.1584   23395526.9974
  21847248.815    -9691550.37849  -7538883.96949  21847250.7504   21847256.9184
  21104067.860     4675780.99349   3637654.68149  21104070.0094   21104076.5044
  20720144.863    -3395915.82849  -2640553.47849  20720147.4804   20720152.1234
 96  2 10 17 49  0.0000000  0  5 22 19 18 14 29
  21724728.269     2082395.15749   1626555.86349  21724730.3074   21724736.3254
  23381554.245    -7105474.42449  -5515613.99049  23381557.1064   23381564.2004
  21834940.852    -9756227.07849  -7589281.40149  21834943.2264   21834949.4774
  21117247.154     4745041.58749   3691623.94349  21117249.8034   21117256.1164
  20718024.143    -3407058.65049  -2649236.20149  20718026.9924   20718031.9844
 96  2 10 17 49 30.0000000  0  5 22 19 18 14 29
  21735083.828     2136811.49749   1668958.17949  21735085.5184   21735091.4474
  23367627.203    -7178665.74149  -5572646.16449  23367628.0224   23367639.6844
  21822662.503    -9820754.53049  -7639562.52949  21822663.9954   21822670.0124
  21130513.009     4814757.13549   3745947.71349  21130516.4024   21130523.0234
  20715952.158    -3417947.42149  -2657720.96249  20715954.7264   20715959.7504
 96  2 10 17 50  0.0000000  0  5 22 19 18 14 29
  21745535.906     2191742.42249   1711761.47249  21745538.3524   21745544.5274
  23353731.113    -7251672.61749  -5629534.67049  23353736.3634   23353745.7264
  21810414.562    -9885117.27349  -7689715.30849  21810416.4544   21810422.4054
  21143865.806     4884918.60449   3800618.95349  21143867.6614   21143874.3324
  20713926.606    -3428591.62149  -2666015.15549  20713929.5154   20713934.5084
 96  2 10 17 50 30.0000000  0  5 22 19 18 14 29
  21756086.070     2247180.89249   1754960.25549  21756087.8294   21756093.9484
  23339873.028    -7324511.83249  -5686292.48149  23339873.1274   23339882.8804
  21798198.266    -9949317.68549  -7739741.61049  21798199.2904   21798205.7014
  21157298.645     4955512.20749   3855626.92249  21157301.2004   21157307.9284
  20711942.014    -3439021.86149  -2674142.62349  20711944.5224   20711949.4624
 96  2 10 17 51  0.0000000  0  5 22 19 18 14 29
  21766732.459     2303125.68449   1798553.57349  21766733.7384   21766739.9754
  23326042.778    -7397172.84649  -5742911.39149  23326046.3264   23326056.5514
  21786014.066   -10013337.31549  -7789627.02749  21786017.1474   21786023.0444
  21170814.675     5026542.40849   3910975.09549  21170817.7354   21170824.4164
  20709997.424    -3449239.42749  -2682104.37049  20710000.3724   20710005.3464
 96  2 10 17 51 30.0000000  0  5 22 19 18 14 29
  21777478.257     2359596.17749   1842556.52649  21777479.8084   21777486.0284
  23312255.746    -7469634.54149  -5799375.08249  23312259.2664   23312267.3114
  21773870.325   -10077163.09149  -7839361.40249  21773871.4034   21773877.3864
  21184419.212     5098030.04149   3966679.70349  21184421.7164   21184428.2174
  20708101.304    -3459204.80049  -2689869.60149  20708104.0964   20708109.1834
 96  2 10 17 52  0.0000000  0  5 22 19 18 14 29
  21788323.405     2416586.95849   1886964.89649  21788325.0574   21788331.0294
  23298497.406    -7541922.34249  -5855703.21149  23298500.5574   23298510.3174
  21761756.611   -10140816.78349  -7888961.67149  21761758.0324   21761764.4504
  21198109.347     5169969.85549   4022736.66649  21198111.3914   21198118.2364
  20706252.938    -3468916.58349  -2697437.23349  20706255.9314   20706260.7534
 96  2 10 17 52 30.0000000  0  5 22 19 18 14 29
  21799268.995     2474107.58949   1931786.13849  21799271.0694   21799277.1484
  23284782.295    -7614017.64449  -5911881.33849  23284783.5174   23284791.3074
  21749678.751   -10204287.97149  -7938419.73749  21749680.2754   21749686.0134
  21211889.237     5242389.94049   4079167.86749  21211892.2144   21211898.7964
  20704457.803    -3478351.97149  -2704789.49049  20704460.5634   20704465.3924
 96  2 10 17 53  0.0000000  0  5 22 19 18 14 29
  21810317.036     2532162.65149   1977023.82049  21810318.5294   21810324.6564
  23271100.107    -7685917.16549  -5967906.97949  23271102.3484   23271111.0524
  21737633.578   -10267578.85549  -7987737.31049  21737636.4244   21737642.5414
  21225764.784     5315301.79449   4135982.26149  21225767.3484   21225773.5274
  20702719.417    -3487485.43249  -2711906.47849  20702722.4994   20702727.4354
 96  2 10 17 53 30.0000000  0  5 22 19 18 14 29
  21821465.345     2590748.76449   2022675.31049  21821467.2834   21821473.2104
  23257454.113    -7757623.17849  -6023781.78949  23257454.5224   23257464.4924
  21725622.241   -10330708.53349  -8036929.27649  21725623.1974   21725629.3054
  21239730.942     5388700.10649   4193175.71749  21239734.2534   21239740.7744
  20701035.381    -3496333.86949  -2718801.36849  20701038.5174   20701043.8024
 96  2 10 17 54  0.0000000  0  5 22 19 18 14 29
  21832714.698     2649860.74649   2068736.56649  21832715.7744   21832721.7014
  23243844.952    -7829139.36649  -6079508.65149  23243847.2364   23243850.5304
  21713636.741   -10393686.63949  -8086003.12049  21713638.9174   21713644.9904
  21253794.262     5462596.71949   4250757.45749  21253796.3214   21253802.8384
  20699401.551    -3504921.96949  -2725493.40149  20699404.2624   20699409.5674
 96  2 10 17 54 30.0000000  0  5 22 19 18 14 29
  21844061.823     2709492.40049   2115202.76649  21844063.3044   21844069.1644
  23230276.311    -7900454.77549  -6135079.09549  23230277.0874   23230283.0124
  21701681.128   -10456518.36749  -8134962.90749  21701682.5334   21701688.5644
  21267950.422     5536990.09449   4308726.28549  21267953.0744   21267959.3334
  20697817.036    -3513248.32549  -2731981.47349  20697820.0734   20697824.9434
 96  2 10 17 55  0.0000000  0  5 22 19 18 14 29
  21855503.895     2769625.73549   2162059.88549  21855506.1424   21855512.2784
  23216744.415    -7971567.61449  -6190491.67549  23216746.4104   23216754.0824
  21689749.041   -10519215.08049  -8183817.48449  21689751.6304   21689757.8204
  21282199.114     5611861.78549   4367067.83249  21282200.6474   21282207.1874
  20696281.506    -3521314.84749  -2738267.07949  20696285.1884   20696289.9324
 96  2 10 17 55 30.0000000  0  5 22 19 18 14 29
  21867041.361     2830251.88249   2209301.01249  21867043.0614   21867048.9724
  23203248.253    -8042488.34749  -6245754.59649  23203248.6894   23203255.8884
  21677844.604   -10581773.38049  -8232564.20249  21677846.9884   21677853.2724
  21296533.641     5687195.71249   4425769.55549  21296536.3474   21296542.5384
  20694795.002    -3529129.31349  -2744356.28149  20694797.7624   20694802.9604
 96  2 10 17 56  0.0000000  0  5 22 19 18 14 29
  21878672.376     2891375.39149   2256929.69449  21878674.3354   21878680.7704
  23189788.091    -8113226.58449  -6300875.26249  23189792.8364   23189792.8704
  21665967.403   -10644186.09349  -8281197.48049  21665970.2974   21665976.6644
  21310954.882     5762977.74849   4484820.45649  21310957.1914   21310963.5754
  20693363.154    -3536653.87049  -2750219.57749  20693366.0304   20693371.0064
 96  2 10 17 56 30.0000000  0  5 22 19 18 14 29
  21890397.842     2952992.85049   2304943.27549  21890399.9164   21890405.7214
  23176361.141    -8183782.05949  -6355853.51349  23176362.0174   23176367.0984
  21654123.280   -10706430.98649  -8329699.99149  21654125.6884   21654131.7804
  21325456.727     5839182.34549   4544200.62749  21325458.4694   21325465.0214
  20691989.128    -3543876.35449  -2755847.49549  20691991.7764   20691996.5944
 96  2 10 17 57  0.0000000  0  5 22 19 18 14 29
  21902213.993     3015087.51049   2353328.70549  21902216.2934   21902222.1544
  23162963.523    -8254179.50449  -6410708.66849  23162969.5114   23162974.9574
  21642310.744   -10768505.93549  -8378070.07749  21642313.3124   21642319.4164
  21340033.247     5915791.80949   4603896.27249  21340036.8544   21340043.4994
  20690669.238    -3550812.96149  -2761252.64749  20690671.8154   20690676.7524
 96  2 10 17 57 30.0000000  0  5 22 19 18 14 29
  21914126.252     3077684.71049   2402105.72949  21914127.9864   21914133.9844
  23149598.206    -8324418.55349  -6465440.34049  23149600.8104   23149604.8544
  21630534.739   -10830392.64449  -8426293.48749  21630536.3924   21630542.4954
  21354691.234     5992815.61349   4663914.78549  21354694.0664   21354700.6894
  20689405.821    -3557451.88749  -2766425.84249  20689408.4284   20689413.2534
 96  2 10 17 58  0.0000000  0  5 22 19 18 14 29
  21926133.717     3140779.94549   2451270.82949  21926134.5824   21926140.6534
  23136261.320    -8394497.52549  -6520047.29449  23136265.6934   23136270.8724
  21618793.351   -10892090.17149  -8474369.47349  21618795.5724   21618801.8024
  21369424.884     6070247.94049   4724251.62849  21369428.9504   21369435.5464
  20688195.958    -3563806.13649  -2771377.20949  20688199.2274   20688204.1674
 96  2 10 17 58 30.0000000  0  5 22 19 18 14 29
  21938235.847     3204380.78449   2500829.89949  21938237.4314   21938243.5004
  23122959.786    -8464398.06649  -6574515.21849  23122964.7754   23122969.5814
  21607092.315   -10953575.69049  -8522280.26149  21607095.2324   21607101.5374
  21384241.461     6148104.96249   4784919.39949  21384244.5094   21384251.1764
  20687039.314    -3569886.78149  -2776115.37949  20687042.1554   20687047.0284
 96  2 10 17 59  0.0000000  0  5 22 19 18 14 29
  21950435.055     3268484.94049   2550781.17249  21950436.3274   21950441.9884
  23109690.971    -8534121.08149  -6628844.79749  23109694.8324   23109701.3294
  21595430.421   -11014866.17149  -8570039.08049  21595432.6834   21595438.5094
  21399139.910     6226396.74549   4845925.94749  21399143.0144   21399149.7844
  20685936.626    -3575683.98249  -2780632.68649  20685938.9504   20685943.9494
 96  2 10 17 59 30.0000000  0  5 22 19 18 14 29
  21962729.005     3333089.30949   2601122.22349  21962730.1794   21962736.2724
  23096460.053    -8603655.41649  -6683027.38449  23096463.2974   23096470.2974
  21583802.069   -11075970.69249  -8617652.99049  21583804.5024   21583810.9214
  21414120.561     6305115.82749   4907265.45449  21414122.8594   21414129.6864
  20684885.738    -3581202.34649  -2784932.71949  20684888.8944   20684893.7914
 96  2 10 18  0  0.0000000  0  5 22 19 18 14 29
  21975115.836     3398186.28149   2651847.11249  21975117.5374   21975123.7124
  23083262.693    -8672995.19649  -6737058.33349  23083267.3134   23083275.5994
  21572211.098   -11136882.56949  -8665116.78449  21572213.1164   21572219.3624
  21429182.187     6384267.10649   4968941.73649  21429184.6934   21429191.5324
  20683888.939    -3586440.14149  -2789014.12049  20683892.1594   20683897.0124
 96  2 10 18  0 30.0000000  0  5 22 19 18 14 29
  21987594.814     3463764.63249   2702947.10449  21987596.8164   21987603.0134
  23070107.426    -8742139.56649  -6790937.04049  23070108.7064   23070116.1184
  21560656.153   -11197604.93449  -8712432.91049  21560658.5554   21560664.6474
  21444327.330     6463859.10149   5030961.43949  21444330.5804   21444337.4244
  20682948.456    -3591383.81249  -2792866.33649  20682951.5244   20682956.1194
 96  2 10 18  1  0.0000000  0  5 22 19 18 14 29
  22000161.912     3529806.88549   2754408.58149  22000164.0584   22000170.1694
  23056987.277    -8811088.62949  -6844663.54949  23056988.3384   23056998.8244
  21549133.926   -11258152.41749  -8759612.76649  21549136.6424   21549142.7524
  21459558.609     6543893.85049   5093326.13549  21459561.0754   21459567.6184
  20682063.729    -3596032.35349  -2796488.57849  20682066.9724   20682071.9484
 96  2 10 18  1 30.0000000  0  5 22 19 18 14 29
  22012818.416     3596320.53949   2806237.38249  22012821.1624   22012827.1484
  23043903.295    -8879844.14949  -6898239.24949  23043907.0214   23043914.3104
  21537649.331   -11318508.24349  -8806643.27249  21537651.4574   21537657.1924
  21474874.250     6624378.18749   5156041.17449  21474876.8194   21474883.2094
  20681232.956    -3600398.89449  -2799891.08049  20681235.8484   20681240.6874
 96  2 10 18  2  0.0000000  0  5 22 19 18 14 29
  22025563.341     3663289.00249   2858420.57949  22025564.5944   22025571.0134
  23030851.127    -8948429.57649  -6951682.40549  23030854.9824   23030859.8354
  21526196.835   -11378684.48449  -8853533.83849  21526199.8314   21526206.1064
  21490275.744     6705311.96349   5219106.41349  21490277.9584   21490284.5454
  20680455.134    -3604486.22549  -2803076.02149  20680457.9814   20680462.9094
 96  2 10 18  2 30.0000000  0  5 22 19 18 14 29
  22038397.719     3730732.39349   2910973.85549  22038398.8564   22038404.9834
  23017836.796    -9016822.46349  -7004975.51649  23017840.3344   23017846.3904
  21514782.870   -11438669.48449  -8900275.39249  21514785.2314   21514791.5954
  21505764.616     6786712.65549   5282535.48749  21505767.9364   21505774.3074
  20679735.048    -3608267.96249  -2806022.83449  20679738.1734   20679743.1164
 96  2 10 18  3  0.0000000  0  5 22 19 18 14 29
  22051321.728     3798656.73849   2963901.90249  22051324.5124   22051330.6974
  23004857.355    -9085040.99349  -7058132.80249  23004858.7724   23004865.1314
  21503402.280   -11498476.23749  -8946878.06049  21503404.4044   21503410.4114
  21521339.136     6868554.37649   5346308.21449  21521341.7754   21521348.2844
  20679071.436    -3611759.89649  -2808743.82849  20679074.0434   20679078.8444
 96  2 10 18  3 30.0000000  0  5 22 19 18 14 29
  22064345.408     3867090.04649   3017226.54449  22064347.2084   22064353.1114
  22991909.983    -9153080.61149  -7111150.65249  22991910.4484   22991919.5314
  21492059.547   -11558082.37449  -8993324.39049  21492061.6504   21492067.8534
  21536995.578     6950829.30849   5410418.52049  21536998.1444   21537004.6054
  20678465.673    -3614941.95749  -2811223.36549  20678468.3664   20678473.3514
 96  2 10 18  4  0.0000000  0  5 22 19 18 14 29
  22077464.438     3936027.93149   3070944.36049  22077465.5724   22077471.6264
  22978994.133    -9220924.42849  -7164015.92149  22978998.4274   22979007.4204
  21480756.240   -11617483.44449  -9039610.93949  21480758.1604   21480764.2054
  21552729.411     7033513.50449   5474847.72549  21552732.4274   21552738.9494
  20677921.880    -3617797.32749  -2813448.33649  20677925.0584   20677929.8534
 96  2 10 18  4 30.0000000  0  5 22 19 18 14 29
  22090678.102     4005473.68949   3125057.92349  22090680.6464   22090686.6134
  22966124.976    -9288566.61549  -7216724.08049  22966127.5164   22966136.7804
  21469494.461   -11676664.50349  -9085726.04449  21469496.4714   21469502.2704
  21568538.613     7116594.53349   5539586.15249  21568542.4324   21568548.8864
  20677439.716    -3620329.84649  -2815421.73649  20677443.2484   20677448.2604
 96  2 10 18  5  0.0000000  0  5 22 19 18 14 29
  22103988.426     4075419.06249   3179560.79649  22103990.9944   22103996.8464
  22953291.077    -9356009.65849  -7269277.07249  22953293.9244   22953302.8224
  21458274.735   -11735616.46349  -9131662.63149  21458278.1184   21458284.3024
  21584422.291     7200060.82149   5604624.78149  21584425.2554   21584432.3164
  20677018.202    -3622547.58649  -2817149.85349  20677021.0674   20677025.9934
 96  2 10 18  5 30.0000000  0  5 22 19 18 14 29
  22117387.384     4145826.67649   3234423.85549  22117389.0044   22117394.7544
  22940494.443    -9423258.07949  -7321678.43749  22940495.9304   22940504.3364
  21447098.978   -11794347.75549  -9177427.27349  21447101.7684   21447107.9724
  21600378.388     7283909.17749   5669961.11849  21600381.1134   21600387.9294
  20676653.727    -3624463.19649  -2818642.54649  20676656.6634   20676661.7194
 96  2 10 18  6  0.0000000  0  5 22 19 18 14 29
  22130868.601     4216670.61949   3289626.91149  22130870.0344   22130876.0444
  22927731.472    -9490324.35549  -7373937.82149  22927733.4414   22927741.1954
  21435961.499   -11852874.47149  -9223032.50149  21435964.6534   21435970.7684
  21616410.053     7368154.09549   5735606.46749  21616412.2974   21616419.3034
  20676343.904    -3626092.11849  -2819911.84549  20676346.7984   20676351.4364
 96  2 10 18  6 30.0000000  0  5 22 19 18 14 29
  22144430.181     4287941.96549   3345163.01049  22144432.7994   22144438.4914
  22914999.261    -9557218.95649  -7426063.44549  22915004.5834   22915012.1924
  21424859.538   -11911216.58449  -9268493.88749  21424862.3594   21424868.4924
  21632519.141     7452811.99549   5801573.61449  21632522.5284   21632529.2614
  20676087.912    -3627434.43949  -2820957.81549  20676091.2794   20676096.3514
 96  2 10 18  7  0.0000000  0  5 22 19 18 14 29
  22158075.276     4359637.19149   3401029.39749  22158075.6674   22158081.6764
  22902306.240    -9623931.18649  -7478046.97549  22902311.6884   22902317.9464
  21413792.590   -11969377.40849  -9313814.01249  21413794.8674   21413801.0184
  21648708.853     7537891.30649   5867869.14049  21648712.4594   21648719.1874
  20675890.080    -3628476.20249  -2821769.58749  20675892.8634   20675898.0664
 96  2 10 18  7 30.0000000  0  5 22 19 18 14 29
  22171797.511     4431757.53149   3457227.04249  22171799.9984   22171806.0514
  22889642.087    -9690462.02049  -7529889.17249  22889650.2594   22889659.0874
  21402759.907   -12027357.21249  -9358993.07949  21402761.4564   21402767.5964
  21664982.460     7623403.01049   5934501.59549  21664984.9704   21664991.6414
  20675750.039    -3629212.80549  -2822343.57249  20675752.5994   20675757.8754
 96  2 10 18  8  0.0000000  0  5 22 19 18 14 29
  22185605.633     4504316.66049   3513766.59249  22185607.1344   22185613.5594
  22877021.905    -9756809.28049  -7581588.32149  22877024.5764   22877031.1104
  21391763.127   -12085141.30749  -9404019.64049  21391765.5334   21391771.9604
  21681335.898     7709341.89749   6001466.91849  21681338.7164   21681345.2194
  20675670.368    -3629630.71549  -2822669.22549  20675673.3294   20675678.0554
 96  2 10 18  8 30.0000000  0  5 22 19 18 14 29
  22199496.288     4577317.85949   3570650.61349  22199498.7704   22199505.0434
  22864431.852    -9822964.33749  -7633137.69249  22864434.1734   22864440.8144
  21380808.177   -12142709.79749  -9448878.20049  21380810.5354   21380816.8594
  21697765.404     7795680.94749   6068744.05849  21697768.3954   21697775.4364
  20675650.926    -3629733.07249  -2822748.99849  20675653.8204   20675658.5324
 96  2 10 18  9  0.0000000  0  5 22 19 18 14 29
  22213476.384     4650780.68349   3627894.33849  22213478.5454   22213484.8444
  22851880.278    -9888916.63849  -7684529.07749  22851885.0974   22851889.9154
  21369899.811   -12200032.96349  -9493545.60349  21369902.1944   21369908.4774
  21714271.274     7882422.09149   6136334.52249  21714274.7114   21714281.1954
  20675690.668    -3629522.21149  -2822584.69749  20675693.8304   20675698.9284
 96  2 10 18  9 30.0000000  0  5 22 19 18 14 29
  22227545.988     4724717.13149   3685507.11849  22227547.7824   22227554.4784
  22839370.059    -9954661.64449  -7735758.90249  22839374.0744   22839380.8424
  21359041.825   -12257097.88249  -9538011.77749  21359043.4904   21359049.7424
  21730851.955     7969557.02249   6204231.82949  21730855.7364   21730862.4694
  20675789.237    -3629006.20549  -2822182.62449  20675792.1544   20675797.3424
 96  2 10 18 10  0.0000000  0  5 22 19 18 14 29
  22241702.961     4799114.26949   3743478.87649  22241705.4574   22241711.5624
  22826899.473   -10020201.68649  -7786829.05749  22826902.7134   22826911.6774
  21348229.344   -12313915.74849  -9582285.44249  21348231.3904   21348237.5024
  21747504.908     8057062.29749   6272417.72249  21747507.7534   21747514.3304
  20675943.455    -3628196.12949  -2821551.40549  20675946.4114   20675951.2224
 96  2 10 18 10 30.0000000  0  5 22 19 18 14 29
  22255947.911     4873974.25149   3801811.29149  22255950.7824   22255956.8904
  22814466.719   -10085536.90249  -7837739.57949  22814468.6954   22814478.9854
  21337459.307   -12370507.33049  -9626382.77949  21337462.2094   21337468.4684
  21764228.426     8144938.38849   6340892.55949  21764230.0404   21764236.7874
  20676151.363    -3627101.57749  -2820698.52049  20676154.5044   20676159.5994
 96  2 10 18 11  0.0000000  0  5 22 19 18 14 29
  22270282.241     4949291.87649   3860500.31849  22270283.5414   22270289.5044
  22802074.719   -10150665.23949  -7888488.92649  22802076.4014   22802085.3514
  21326731.215   -12426889.68249  -9670317.08749  21326732.9784   21326739.3424
  21781019.337     8233184.46949   6409655.69849  21781022.6404   21781029.4404
  20676414.708    -3625716.86149  -2819619.52749  20676418.0934   20676423.1794
 96  2 10 18 11 30.0000000  0  5 22 19 18 14 29
  22284698.919     5025055.26449   3919536.68949  22284700.7754   22284706.9084
  22789723.298   -10215578.90649  -7939070.97349  22789723.6744   22789731.7384
  21316042.354   -12483058.54949  -9714085.03749  21316044.6454   21316050.8024
  21797885.146     8321808.25449   6478713.15549  21797887.3344   21797894.1894
  20676738.136    -3624019.83149  -2818297.17949  20676740.8514   20676746.0464
 96  2 10 18 12  0.0000000  0  5 22 19 18 14 29
  22299196.717     5101243.16949   3978903.85649  22299198.5084   22299205.0624
  22777405.632   -10280290.69449  -7989495.71849  22777408.4474   22777416.5744
  21305391.608   -12539028.77249  -9757698.20149  21305393.7454   21305400.1204
  21814819.456     8410805.70549   6548061.77749  21814822.8144   21814830.0254
  20677121.395    -3622005.73549  -2816727.76549  20677124.3034   20677129.1164
 96  2 10 18 12 30.0000000  0  5 22 19 18 14 29
  22313775.197     5177856.49749   4038602.52149  22313777.7694   22313784.0844
  22765128.812   -10344792.73449  -8039757.01249  22765132.1204   22765141.4514
  21294782.302   -12594778.42749  -9801139.49149  21294784.8954   21294791.2304
  21831829.346     8500187.25849   6617709.70049  21831831.7174   21831838.7984
  20677567.909    -3619658.76949  -2814898.97249  20677571.0374   20677575.9204
 96  2 10 18 13  0.0000000  0  5 22 19 18 14 29
  22328433.212     5254878.44549   4098619.59849  22328434.7234   22328440.9174
  22752895.681   -10409082.67949  -8089853.03249  22752899.1154   22752906.5784
  21284220.981   -12650283.80849  -9844390.44449  21284222.7604   21284229.0154
  21848909.465     8589941.64849   6687648.14749  21848911.4354   21848918.4314
  20678079.703    -3616971.25549  -2812804.81549  20678082.3094   20678087.3904
 96  2 10 18 13 30.0000000  0  5 22 19 18 14 29
  22343166.682     5332308.33849   4158954.55949  22343168.7904   22343175.2064
  22740700.215   -10473174.56649  -8139794.74149  22740704.1914   22740711.8874
  21273704.247   -12705544.09449  -9887450.40449  21273706.7494   21273713.2484
  21866059.947     8680071.64549   6757879.27549  21866062.6724   21866069.6194
  20678656.222    -3613937.93549  -2810441.20549  20678659.6804   20678664.5814
 96  2 10 18 14  0.0000000  0  5 22 19 18 14 29
  22357984.179     5410169.54249   4219625.60649  22357985.6894   22357991.6934
  22728544.048   -10537067.01549  -8189581.05449  22728545.5554   22728552.8494
  21263237.680   -12760549.61749  -9930311.86349  21263239.6524   21263246.0584
  21883281.260     8770576.20949   6828402.26649  21883285.4394   21883292.1694
  20679300.705    -3610551.66549  -2807802.56449  20679303.8774   20679308.9644
 96  2 10 18 14 30.0000000  0  5 22 19 18 14 29
  22372878.977     5488445.44349   4280619.79649  22372881.2884   22372887.4654
  22716414.092   -10600791.47749  -8239236.43149  22716418.9144   22716426.4174
  21252816.193   -12815310.38649  -9972982.58349  21252819.1604   21252825.6634
  21900569.182     8861423.53849   6899192.35349  21900572.5284   21900579.3144
  20680006.239    -3606844.47049  -2804913.85149  20680009.4054   20680014.4044
 96  2 10 18 15  0.0000000  0  5 22 19 18 14 29
  22387857.571     5567151.68849   4341949.31549  22387858.4804   22387864.7244
  22704321.429   -10664356.81949  -8288767.85049  22704322.7514   22704330.8474
  21242440.291   -12869844.22549 -10015476.48949  21242441.5634   21242448.0754
  21917924.506     8952617.67749   6970252.68549  21917926.3874   21917933.1624
  20680772.086    -3602823.48549  -2801780.62449  20680774.9034   20680779.7484
 96  2 10 18 15 30.0000000  0  5 22 19 18 14 29
  22402918.656     5646308.10749   4403629.61649  22402921.1274   22402927.5624
  22692255.513   -10727760.96549  -8338173.64349  22692257.3874   22692264.5864
  21232103.692   -12924155.99149 -10057797.33849  21232106.6134   21232112.9944
  21935349.613     9044187.86449   7041606.04349  21935351.6024   21935358.5714
  20681598.360    -3598479.53849  -2798395.74349  20681601.3194   20681606.0264
 96  2 10 18 16  0.0000000  0  6 22 19 18 28 14 29
  22418063.612     5725901.02149   4465650.05049  22418067.2934   22418073.5434
  22680221.584   -10790993.76149  -8387445.92249  22680225.0214   22680231.6224
  21221812.368   -12978237.45149 -10099938.73349  21221815.1444   21221821.5844
  24697607.414     -197617.78519   -139407.03519  24697608.611    24697615.994
  21952845.028     9136136.05849   7113253.95649  21952849.0984   21952856.0524
  20682484.503    -3593824.39149  -2794768.36249  20682487.0694   20682491.9694
 96  2 10 18 16 30.0000000  0  6 22 19 18 28 14 29
  22433293.023     5805925.87649   4528007.06149  22433295.8704   22433302.1524
  22668226.836   -10854043.11849  -8436575.26249  22668226.1154   22668233.3844
  21211565.835   -13032083.60949 -10141896.77449  21211568.7584   21211574.9804
  24684946.092     -264159.06119   -191257.35919  24684946.113    24684953.642
  21970419.648     9228475.40349   7185206.66449  21970420.5784   21970427.7224
  20683428.459    -3588864.72849  -2790903.69749  20683430.8974   20683435.9394
 96  2 10 18 17  0.0000000  0  6 22 19 18 28 14 29
  22448605.467     5886388.44149   4590705.13449  22448607.3554   22448613.5334
  22656264.500   -10916884.95649  -8485542.87649  22656268.1784   22656275.4944
  21201365.726   -13085688.11649 -10183666.53149  21201367.9554   21201374.1914
  24672314.303     -330522.073 9   -242968.801 9  24672317.566    24672324.952
  21988069.386     9321233.63349   7257485.76049  21988071.6444   21988078.9744
  20684435.683    -3583569.72949  -2786777.74249  20684438.4024   20684443.4884
 96  2 10 18 17 30.0000000  0  6 22 19 18 28 14 29
  22463988.217     5967226.29649   4653695.65549  22463990.0024   22463996.5524
  22644340.265   -10979553.01449  -8534375.11149  22644343.0044   22644349.8884
  21191209.279   -13139059.91049 -10225254.93249  21191211.4734   21191218.0894
  24659716.196     -396741.395 9   -294568.194 9  24659716.116    24659723.874
  22005789.236     9414358.12049   7330050.26449  22005792.6904   22005799.8694
  20685502.005    -3577967.74049  -2782412.56249  20685504.6654   20685509.7934
 96  2 10 18 18  0.0000000  0  6 22 19 18 28 14 29
  22479440.021     6048425.84349   4716968.00949  22479441.6644   22479448.2294
  22632448.946   -11042049.00049  -8583073.24449  22632450.1984   22632457.1054
  21181098.814   -13192191.97649 -10266656.54349  21181100.8804   21181107.2714
  24647137.206     -462819.257 9   -346057.416 9  24647142.177    24647149.427
  22023574.014     9507814.06849   7402873.04349  22023577.1114   22023584.4264
  20686624.396    -3572068.87449  -2777816.04949  20686627.1124   20686632.1664
 96  2 10 18 18 30.0000000  0  6 22 19 18 28 14 29
  22494967.214     6130021.15449   4780548.74749  22494968.9294   22494975.2464
  22620593.182   -11104350.44549  -8631619.81149  22620594.8764   22620602.1854
  21171038.942   -13245058.39349 -10307851.15149  21171040.8304   21171046.9574
  24634599.212     -528726.471 9   -397413.628 9  24634600.646    24634607.870
  22041423.947     9601612.47949   7475962.67549  22041426.2544   22041433.5514
  20687810.219    -3565836.62549  -2772959.76349  20687812.9794   20687818.1284
 96  2 10 18 19  0.0000000  0  6 22 19 18 28 14 29
  22510567.818     6212003.54549   4844431.10549  22510570.1484   22510576.2414
  22608774.350   -11166446.67349  -8680006.45049  22608778.1364   22608785.6814
  21161032.474   -13297640.71449 -10348824.38649  21161034.6984   21161041.1734
  24622094.137     -594444.691 9   -448622.566 9  24622094.741    24622102.232
  22059337.078     9695751.98349   7549318.10049  22059340.3084   22059347.8504
  20689066.410    -3559236.57049  -2767816.87149  20689069.0624   20689074.1354
 96  2 10 18 19 30.0000000  0  6 22 19 18 28 14 29
  22526239.632     6294366.18049   4908609.75449  22526242.8034   22526249.4284
  22596999.057   -11228336.51249  -8728232.24949  22597001.1304   22597008.5394
  21151079.822   -13349941.64549 -10389578.35749  21151082.1754   21151088.2804
  24609623.393     -659975.236 9   -499685.247 9  24609624.680    24609632.267
  22077314.917     9790216.19649   7622926.53849  22077316.3814   22077323.6684
  20690389.747    -3552281.07649  -2762397.01849  20690392.6554   20690397.6944
 96  2 10 18 20  0.0000000  0  6 22 19 18 28 14 29
  22541986.238     6377107.73549   4973083.66849  22541988.0974   22541994.3954
  22585257.226   -11290016.74149  -8776294.74349  22585263.9694   22585271.4864
  21141176.219   -13401985.10549 -10430131.69849  21141178.4674   21141184.6584
  24597186.304     -725321.802 9   -550604.568 9  24597189.014    24597197.179
  22095349.145     9884994.91949   7696780.04949  22095352.1014   22095359.3644
  20691779.322    -3544978.61849  -2756706.80349  20691782.4774   20691787.4914
 96  2 10 18 20 30.0000000  0  6 22 19 18 28 14 29
  22557801.490     6460214.30449   5037842.00649  22557802.7514   22557808.8634
  22573566.076   -11351482.96749  -8824190.46749  22573567.5154   22573575.3684
  21131319.867   -13453780.91149 -10470492.06849  21131322.2854   21131328.4274
  24584785.208     -790482.986 9   -601379.436 9  24584789.083    24584797.712
  22113447.247     9980094.37349   7770883.47949  22113449.1864   22113456.3774
  20693237.318    -3537318.05149  -2750737.53949  20693240.2154   20693245.0664
 96  2 10 18 21  0.0000000  0  6 22 19 18 28 14 29
  22573683.096     6543675.64849   5102876.78949  22573685.1884   22573691.6274
  22561910.193   -11412726.91649  -8871913.01949  22561912.8154   22561920.3064
  21121507.538   -13505340.99649 -10510668.75449  21121510.5614   21121516.9524
  24572422.100     -855460.679 9   -652011.309 9  24572424.579    24572432.578
  22131604.865    10075515.21349   7845237.33649  22131607.0564   22131614.5124
  20694761.669    -3529308.36849  -2744496.23949  20694764.3034   20694769.3164
 96  2 10 18 21 30.0000000  0  6 22 19 18 28 14 29
  22589639.345     6627525.32349   5168214.16849  22589640.9854   22589646.9644
  22550299.207   -11473731.98649  -8919449.40049  22550302.9424   22550311.5514
  21111741.480   -13556666.97349 -10550663.02449  21111743.7324   21111749.9364
  24560094.836     -920251.006 9   -702497.196 9  24560094.560    24560103.370
  22149825.488    10171261.48849   7919844.78549  22149827.2344   22149833.6334
  20696348.483    -3520965.95249  -2737995.66749  20696351.9404   20696356.6904
 96  2 10 18 22  0.0000000  0  6 22 19 18 28 14 29
  22605671.080     6711777.21849   5233864.96549  22605673.4664   22605680.0734
  22538737.002   -11534495.75649  -8966797.75049  22538740.2884   22538748.6184
  21102020.692   -13607748.76949 -10590467.01249  21102022.8564   21102029.2894
  24547803.459     -984838.301 9   -752824.855 9  24547804.527    24547812.869
  22168106.127    10267341.90849   7994712.60949  22168110.5184   22168117.4014
  20698002.002    -3512279.66549  -2731227.14449  20698004.8534   20698009.9004
 96  2 10 18 22 30.0000000  0  6 22 19 18 28 14 29
  22621778.604     6796417.86549   5299818.67949  22621780.2064   22621787.1304
  22527211.812   -11595050.57849  -9013983.28949  22527218.8134   22527224.9584
  21092345.080   -13658593.87449 -10630086.56649  21092347.6944   21092353.9094
  24535548.722    -1049230.640 9   -803000.620 9  24535550.938    24535558.986
  22186453.984    10363756.68449   8069840.96249  22186457.5044   22186464.8084
  20699717.491    -3503264.70449  -2724202.51449  20699720.3364   20699725.3754
 96  2 10 18 23  0.0000000  0  6 22 19 18 28 14 29
  22637961.215     6881462.89949   5366087.50349  22637963.9214   22637970.0554
  22515731.133   -11655410.23449  -9061016.76049  22515732.7184   22515738.7384
  21082716.600   -13709191.66149 -10669513.40649  21082718.9744   21082725.2124
  24523334.441    -1113419.150 9   -853017.566 9  24523336.665    24523344.380
  22204867.248    10460514.50449   8145236.62249  22204869.9994   22204877.2204
  20701494.399    -3493926.62149  -2716926.09749  20701497.3584   20701502.2394
 96  2 10 18 23 30.0000000  0  6 22 19 18 28 14 29
  22654222.314     6966909.46049   5432669.20749  22654224.1584   22654230.1964
  22504277.804   -11715599.20549  -9107917.23149  22504278.7634   22504285.7094
  21073139.787   -13759521.60149 -10708731.53249  21073141.3284   21073147.6384
  24511159.029    -1177396.116 9   -902869.667 9  24511162.033    24511169.692
  22223344.284    10557610.40549   8220895.72449  22223346.7114   22223354.4644
  20703334.698    -3484253.81149  -2709388.85449  20703337.9024   20703342.8784
 96  2 10 18 24  0.0000000  0  6 22 19 18 28 14 29
  22670553.666     7052731.43849   5499543.43949  22670555.1394   22670561.3624
  22492851.474   -11775646.67049  -9154707.42549  22492851.2684   22492859.1974
  21063611.729   -13809584.99749 -10747741.95949  21063614.7444   21063621.1164
  24499025.546    -1241163.968 9   -952558.828 9  24499027.668    24499035.206
  22241883.307    10655033.69849   8296809.92849  22241886.0894   22241893.2114
  20705241.991    -3474235.29349  -2701582.23249  20705244.6004   20705249.4604
 96  2 10 18 24 30.0000000  0  6 22 19 18 28 14 29
  22686956.992     7138931.91149   5566712.60049  22686958.5924   22686965.1284
  22481445.499   -11835542.87249  -9201379.72749  22481452.8074   22481461.4804
  21054140.191   -13859361.46649 -10786528.80749  21054142.6264   21054148.7774
  24486932.426    -1304715.534 9  -1002079.453 9  24486934.058    24486942.054
  22260481.605    10752777.73449   8372974.07349  22260486.1944   22260493.0004
  20707215.712    -3463860.32549  -2693497.85949  20707218.8924   20707223.7794
 96  2 10 18 25  0.0000000  0  6 22 19 18 28 14 29
  22703431.205     7225508.23149   5634174.62949  22703433.7834   22703439.9084
  22470086.232   -11895262.72049  -9247914.62549  22470089.7384   22470097.1264
  21044723.409   -13908848.14249 -10825089.83349  21044725.7064   21044731.9014
  24474880.005    -1368049.239 9  -1051430.327 9  24474882.027    24474889.696
  22279141.270    10850816.84149   8449368.13749  22279142.2044   22279149.4034
  20709258.844    -3453124.52749  -2685132.31949  20709261.6234   20709266.6964
 96  2 10 18 25 30.0000000  0  6 22 19 18 28 14 29
  22719975.975     7312453.21449   5701923.92349  22719978.7054   22719984.8404
  22458760.365   -11954787.22749  -9294297.33049  22458762.6374   22458769.8164
  21035361.637   -13958043.84049 -10863424.12449  21035364.0934   21035370.3154
  24462869.097    -1431163.662 9  -1100610.343 9  24462871.383    24462878.896
  22297850.766    10949136.03049   8525980.45049  22297852.2694   22297859.2584
  20711370.106    -3442031.36849  -2676488.31449  20711372.9074   20711377.7074
 96  2 10 18 26  0.0000000  0  6 22 19 18 28 14 29
  22736588.741     7399754.11349   5769950.55049  22736591.5604   22736598.3024
  22447473.903   -12014091.92849  -9340508.74349  22447476.6234   22447484.7664
  21026052.745   -14006963.14549 -10901543.05049  21026054.9884   21026061.2534
  24450900.028    -1494062.930 9  -1149622.698 9  24450902.178    24450909.716
  22316610.945    11047729.59349   8602806.55949  22316614.1004   22316620.9714
  20713544.611    -3430602.37549  -2667582.61849  20713547.5594   20713552.4884
 96  2 10 18 26 30.0000000  0  6 22 19 18 28 14 29
  22753272.560     7487419.89449   5838261.50549  22753274.2144   22753280.2254
  22436234.796   -12073153.59849  -9386530.78449  22436237.6414   22436245.0254
  21016800.272   -14055584.45149 -10939429.76649  21016802.9074   21016808.6364
  24438974.208    -1556733.883 9  -1198457.170 9  24438976.562    24438983.543
  22335427.783    11146611.78449   8679857.57549  22335430.5054   22335437.4744
  20715783.891    -3418838.14549  -2658415.69749  20715786.2844   20715791.2294
 96  2 10 18 27  0.0000000  0  6 22 19 18 28 14 29
  22770019.966     7575434.69849   5906844.41849  22770022.6344   22770029.2704
  22425039.933   -12131981.92549  -9432370.99149  22425043.1234   22425049.4984
  21007604.697   -14103910.94549 -10977086.76549  21007606.7354   21007612.3354
  24427092.516    -1619177.869 9  -1247114.763 9  24427094.156    24427100.600
  22354305.298    11245809.83449   8757154.70949  22354307.3074   22354314.4344
  20718084.747    -3406746.04149  -2648993.29449  20718087.4814   20718092.4224
 96  2 10 18 27 30.0000000  0  6 22 19 18 28 14 29
  22786834.291     7663793.18949   5975695.14849  22786836.9804   22786843.3044
  22413884.254   -12190593.93149  -9478042.65949  22413889.2764   22413896.4134
  20998465.440   -14151932.41649 -11014506.08349  20998468.4404   20998474.4074
  24415253.336    -1681388.155 9  -1295590.263 9  24415255.715    24415262.405
  22373247.113    11345348.13649   8834716.99049  22373248.6264   22373255.9324
  20720448.291    -3394323.50849  -2639313.41149  20720451.0794   20720456.2204
 96  2 10 18 28  0.0000000  0  6 22 19 18 28 14 29
  22803710.751     7752472.81649   6044796.10349  22803711.7674   22803718.6954
  22402766.488   -12249019.03749  -9523568.65849  22402771.1044   22402778.1424
  20989383.175   -14199662.76149 -11051698.54949  20989385.4814   20989391.5144
  24403457.423    -1743377.103 9  -1343893.296 9  24403460.233    24403465.120
  22392250.148    11445212.45449   8912533.29849  22392252.3334   22392259.4764
  20722875.331    -3381571.14349  -2629376.51349  20722877.7884   20722883.0044
 96  2 10 18 28 30.0000000  0  6 22 19 18 28 14 29
  22820645.797     7841481.63049   6114153.57349  22820649.7384   22820656.2654
  22391684.173   -12307270.06749  -9568959.03049  22391686.3634   22391693.8114
  20980358.751   -14247085.38349 -11088651.22949  20980361.1234   20980367.2874
  24391706.506    -1805130.995 9  -1392013.161 9  24391708.634    24391714.320
  22411319.245    11545425.75449   8990621.53749  22411321.9504   22411329.2754
  20725369.967    -3368460.39249  -2619160.35349  20725372.6484   20725377.7554
 96  2 10 18 29  0.0000000  0  6 22 19 18 28 14 29
  22837647.454     7930815.84449   6183764.59849  22837649.4064   22837656.0564
  22380633.551   -12365337.71249  -9614206.50949  22380636.5034   22380643.9544
  20971391.303   -14294211.61349 -11125372.95949  20971393.5984   20971399.4484
  24380000.415    -1866646.415 9  -1439947.208 9  24380001.465    24380009.551
  22430452.559    11645974.09449   9068970.84949  22430456.2974   22430463.3674
  20727934.923    -3354979.83949  -2608656.03749  20727938.0904   20727943.1914
 96  2 10 18 29 30.0000000  0  6 22 19 18 28 14 29
  22854710.330     8020476.81949   6253630.23449  22854711.7674   22854718.0434
  22369619.876   -12423216.59349  -9659306.87549  22369622.8124   22369629.8824
  20962476.512   -14341056.65549 -11161875.57949  20962479.0414   20962484.9994
  24368338.783    -1927923.565 9  -1487695.569 9  24368341.358    24368348.446
  22449642.748    11746816.33349   9147549.16149  22449645.8804   22449652.9844
  20730569.787    -3341135.96549  -2597868.61349  20730572.3314   20730577.7014
 96  2 10 18 30  0.0000000  0  6 22 19 18 28 14 29
  22871834.226     8110469.24849   6323754.14749  22871836.5044   22871842.7174
  22358645.536   -12480889.24049  -9704246.57649  22358648.3514   22358654.8664
  20953615.154   -14387628.59149 -11198165.38849  20953617.0194   20953622.8954
  24356724.047    -1988959.477 9  -1535255.972 9  24356726.651    24356733.444
  22468886.917    11847938.95149   9226345.96149  22468888.7334   22468895.8524
  20733273.624    -3326928.84249  -2586798.14349  20733275.9454   20733281.2104
 96  2 10 18 30 30.0000000  0  6 22 19 18 28 14 29
  22889028.776     8200816.64049   6394154.65149  22889028.7864   22889035.2904
  22347713.825   -12538337.62749  -9749011.50349  22347715.5154   22347722.8204
  20944805.875   -14433920.83549 -11234237.25549  20944807.9184   20944813.7154
  24345159.188    -2049740.954 9  -1582618.099 9  24345159.458    24345167.165
  22488183.465    11949348.44149   9305366.30449  22488186.3224   22488193.7314
  20736045.633    -3312355.63349  -2575442.40849  20736049.0234   20736054.3694
 96  2 10 18 31  0.0000000  0  6 22 19 18 28 14 29
  22906284.615     8291508.57349   6464823.62449  22906287.2404   22906293.5474
  22336822.399   -12595573.45149  -9793610.79849  22336823.7964   22336831.3304
  20936045.620   -14479954.88749 -11270107.93649  20936047.7244   20936053.5974
  24333635.925    -2110284.988 9  -1629795.200 9  24333638.786    24333645.982
  22507525.914    12050996.49349   9384572.53549  22507529.3324   22507536.6224
  20738883.792    -3297447.84149  -2563825.96249  20738886.1784   20738891.2284
 96  2 10 18 31 30.0000000  0  7 31 22 19 18 28 14 29
  24759700.048     -465382.46759   -351941.95559  24759702.4824   24759711.3024
  22923611.255     8382557.73549   6535770.97049  22923613.5054   22923620.1034
  22325966.045   -12652609.24249  -9838054.22649  22325970.9724   22325977.7914
  20927335.605   -14525722.19149 -11305770.75749  20927338.5114   20927344.6554
  24322161.241    -2170578.504 9  -1676777.093 9  24322164.612    24322172.194
  22526919.379    12152902.01349   9463979.38749  22526921.4514   22526928.8984
  20741785.030    -3282198.22349  -2551943.15749  20741787.9664   20741793.1114
 96  2 10 18 32  0.0000000  0  7 31 22 19 18 28 14 29
  24743397.486     -551055.77849   -418700.28549  24743400.2524   24743409.0924
  22941008.183     8473979.77549   6607008.87149  22941010.7924   22941016.4834
  22315158.304   -12709439.52649  -9882337.54549  22315156.2074   22315162.8444
  20918683.432   -14571192.63249 -11341202.25849  20918685.5824   20918691.6854
  24310741.954    -2230602.684 9  -1723549.146 9  24310744.232    24310748.976
  22546364.148    12255091.58949   9543607.58949  22546367.2224   22546374.6374
  20744757.663    -3266578.58049  -2539772.01949  20744760.3174   20744765.4714
 96  2 10 18 32 30.0000000  0  7 31 22 19 18 28 14 29
  24727091.086     -636753.58349   -485477.73449  24727092.4214   24727100.7844
  22958472.579     8565755.58549   6678522.43649  22958474.3244   22958481.3974
  22304371.043   -12766097.70349  -9926486.72349  22304373.7924   22304381.1534
  20910086.793   -14616368.05249 -11376403.87649  20910088.9704   20910095.1104
  24299368.317    -2290372.928 9  -1770123.289 9  24299369.370    24299375.096
  22565861.458    12357548.93549   9623444.43449  22565864.5564   22565871.7514
  20747798.105    -3250599.04749  -2527320.45049  20747801.0874   20747806.6274
 96  2 10 18 33  0.0000000  0  7 31 22 19 18 28 14 29
  24710772.209     -722487.85049   -552283.57549  24710776.2794   24710784.5444
  22976002.955     8657875.08949   6750303.80949  22976004.5694   22976010.9664
  22293624.482   -12822581.78049  -9970500.26449  22293626.2164   22293633.1524
  20901549.935   -14661229.46049 -11411360.80549  20901552.4484   20901558.4004
  24288042.473    -2349879.112 9  -1816491.665 9  24288044.925    24288052.521
  22585412.475    12460286.81449   9703499.87149  22585415.2184   22585421.9534
  20750911.523    -3234238.88949  -2514572.28349  20750914.3234   20750919.5504
 96  2 10 18 33 30.0000000  0  7 31 22 19 18 28 14 29
  24694447.852     -808273.74949   -619129.66349  24694452.1174   24694460.2354
  22993596.555     8750327.48649   6822344.57049  22993597.7724   22993604.4174
  22282910.864   -12878886.50849 -10014374.05049  22282911.4864   22282919.0764
  20893072.905   -14705776.70949 -11446072.94049  20893075.0934   20893081.3264
  24276770.365    -2409122.789 9  -1862655.546 9  24276772.651    24276777.305
  22605017.775    12563311.19049   9783778.56149  22605019.6514   22605027.3684
  20754098.993    -3217488.14949  -2501519.77149  20754101.7294   20754107.0364
 96  2 10 18 34  0.0000000  0  7 31 22 19 18 28 14 29
  24678117.379     -894102.32949   -686009.02349  24678119.3764   24678127.6894
  23011248.527     8843097.54649   6894632.87849  23011251.5784   23011257.9314
  22272229.157   -12934993.65249 -10058093.84949  22272233.7234   22272241.9154
  20884658.157   -14749996.69649 -11480530.05749  20884660.4344   20884666.2864
  24265542.137    -2468108.348 9  -1908618.238 9  24265546.294    24265553.638
  22624673.574    12666599.60549   9864263.00149  22624675.2044   22624682.3914
  20757359.568    -3200353.08949  -2488167.78449  20757362.6034   20757368.0894
 96  2 10 18 34 30.0000000  0  7 31 22 19 18 28 14 29
  24661782.409     -979956.02749   -752907.94949  24661782.3574   24661791.6434
  23028964.243     8936187.19149   6967170.19949  23028965.6094   23028971.9234
  22261597.130   -12990886.48949 -10101646.70049  22261598.3724   22261605.4104
  20876306.462   -14793885.55349 -11514729.15849  20876308.6774   20876314.7524
  24254374.013    -2526820.842 9  -1954368.199 9  24254374.675    24254380.134
  22644376.901    12770148.59349   9944950.47649  22644380.0794   22644387.0794
  20760695.103    -3182825.09649  -2474509.62149  20760698.0844   20760703.5014
 96  2 10 18 35  0.0000000  0  7 31 22 19 18 28 14 29
  24645438.735    -1065836.13149   -819827.48549  24645440.4144   24645448.4984
  23046733.687     9029573.10749   7039938.39349  23046736.4234   23046742.7344
  22250997.445   -13046564.07349 -10145031.77249  22251003.0644   22251010.6594
  20868012.040   -14837473.97649 -11548694.14849  20868014.1244   20868019.7364
  24243249.801    -2585268.494 9  -1999911.775 9  24243252.131    24243258.879
  22664124.860    12873925.87849  10025815.85049  22664128.1554   22664135.4614
  20764101.842    -3164922.37749  -2460559.45849  20764104.8774   20764110.2094
 96  2 10 18 35 30.0000000  0  7 31 22 19 18 28 14 29
  24629091.639    -1151714.02349   -886745.23549  24629097.4834   24629105.6044
  23064563.368     9123264.96649   7112944.97249  23064565.5724   23064571.8764
  22240447.925   -13102011.45649 -10188237.51749  22240452.1484   22240459.5024
  20859774.962   -14880760.19549 -11582423.65749  20859776.7604   20859782.9334
  24232182.604    -2643435.556 9  -2045236.719 9  24232184.509    24232190.415
  22683915.690    12977927.91849  10106856.35249  22683918.9574   22683926.2034
  20767579.855    -3146647.56149  -2446319.35149  20767582.5324   20767587.6064
 96  2 10 18 36  0.0000000  0  7 31 22 19 18 28 14 29
  24612752.406    -1237574.46049   -953649.38149  24612758.2474   24612766.3004
  23082449.285     9217251.66049   7186181.30349  23082451.2884   23082456.6784
  22229937.195   -13157249.19349 -10231279.85449  22229939.8794   22229947.7734
  20851592.781   -14923754.38649 -11615925.61149  20851595.4204   20851601.5714
  24221163.897    -2701320.101 9  -2090341.546 9  24221167.247    24221175.729
  22703750.529    13082149.95149  10188068.28049  22703751.5684   22703759.3134
  20771125.090    -3128017.46649  -2431802.40049  20771127.7204   20771132.9184
 96  2 10 18 36 30.0000000  0  7 31 22 19 18 28 14 29
  24596422.746    -1323423.58849  -1020544.76449  24596422.2984   24596428.6934
  23100389.177     9311531.32849   7259645.92749  23100391.6434   23100397.9504
  22219465.295   -13212292.88449 -10274171.00949  22219466.3384   22219473.6434
  20843464.794   -14966468.88149 -11649209.62449  20843467.1274   20843473.4234
  24210204.980    -2758915.344 9  -2135220.904 9  24210208.024    24210214.122
  22723625.054    13186600.20149  10269458.03149  22723628.0554   22723635.4594
  20774737.494    -3109032.98949  -2417009.31149  20774740.4854   20774745.7084
 96  2 10 18 37  0.0000000  0  7 31 22 19 18 28 14 29
  24580087.250    -1409259.29249  -1087429.65349  24580089.7594   24580096.9104
  23118385.308     9406098.64449   7333334.69249  23118387.0774   23118393.8104
  22209026.997   -13267143.41749 -10316911.64449  22209028.0044   22209035.5104
  20835389.435   -15008902.93349 -11682275.11449  20835392.1544   20835398.3064
  24199298.708    -2816223.215 9  -2179876.331 9  24199303.368    24199309.724
  22743548.131    13291293.46349  10351037.14649  22743550.6604   22743558.0714
  20778415.452    -3089705.75449  -2401949.13549  20778418.3114   20778423.4644
 96  2 10 18 37 30.0000000  0  7 31 22 19 18 28 14 29
  24563756.193    -1495071.23049  -1154296.04149  24563758.0644   24563766.1364
  23136434.777     9500947.26649   7407242.65149  23136436.2824   23136443.6314
  22198623.218   -13321807.51149 -10359507.00649  22198625.7394   22198632.7484
  20827372.619   -15051034.34049 -11715104.77949  20827374.9644   20827381.0804
  24188448.089    -2873239.838 9  -2224304.848 9  24188452.238    24188460.144
  22763521.881    13396252.90449  10432823.67049  22763523.7894   22763530.8844
  20782157.425    -3070038.75149  -2386624.20749  20782160.5434   20782165.9044
 96  2 10 18 38  0.0000000  0  7 31 22 19 18 28 14 29
  24547427.151    -1580867.37049  -1221150.08149  24547432.1384   24547441.9384
  23154533.916     9596061.53149   7481357.60649  23154536.3764   23154542.0894
  22188257.427   -13376292.38249 -10401962.73049  22188257.4104   22188264.5664
  20819414.058   -15092855.31849 -11747692.54849  20819416.5254   20819422.4544
  24177650.825    -2929971.138 9  -2268510.998 9  24177655.204    24177664.143
  22783545.131    13501478.03249  10514817.22049  22783547.9184   22783555.0294
  20785964.381    -3050031.77649  -2371034.36149  20785967.9844   20785973.2674
 96  2 10 18 38 30.0000000  0  7 31 22 19 18 28 14 29
  24531108.448    -1666631.18049  -1287978.94149  24531111.5594   24531119.3754
  23172687.314     9691454.90449   7555690.04449  23172688.9004   23172695.4304
  22177924.851   -13430580.76549 -10444265.32249  22177927.1654   22177934.0424
  20811520.573   -15134335.55749 -11780014.80749  20811523.1284   20811529.0984
  24166915.629    -2986403.958 9  -2312484.584 9  24166918.187    24166925.207
  22803621.958    13606978.02949  10597024.96149  22803623.3234   22803631.4484
  20789841.362    -3029663.71249  -2355163.15349  20789843.7454   20789849.2644
 96  2 10 18 39  0.0000000  0  7 31 22 19 18 28 14 29
  24514796.634    -1752361.58549  -1354781.78749  24514797.4404   24514804.8854
  23190894.544     9787129.64349   7630241.73149  23190895.2614   23190901.5064
  22167634.183   -13484665.66749 -10486409.36449  22167635.0344   22167642.1964
  20803695.067   -15175457.73649 -11812058.06149  20803697.7364   20803703.8404
  24156234.663    -3042534.188 9  -2356222.405 9  24156237.009    24156244.838
  22823751.717    13712757.18049  10679450.22049  22823752.6204   22823760.0274
  20793787.722    -3008921.56249  -2339000.44549  20793790.9954   20793796.1844
 96  2 10 18 39 30.0000000  0  7 31 22 19 18 28 14 29
  24498485.298    -1838073.73149  -1421570.39449  24498489.1774   24498494.7614
  23209150.972     9883079.12449   7705007.50249  23209154.0444   23209160.4804
  22157376.765   -13538556.82949 -10528402.43149  22157379.7384   22157386.6794
  20795938.848   -15216219.45549 -11843820.43349  20795941.0514   20795947.3694
  24145611.632    -3098364.575 9  -2399726.534 9  24145612.864    24145620.191
  22843926.107    13818796.38149  10762078.11349  22843931.1594   22843939.1994
  20797807.060    -2987801.52149  -2322543.28149  20797810.1354   20797815.3314
 96  2 10 18 40  0.0000000  0  7 31 22 19 18 28 14 29
  24482177.694    -1923766.59749  -1488343.97949  24482180.9544   24482190.2074
  23227466.424     9979324.47949   7780003.82649  23227469.1304   23227475.3374
  22147158.202   -13592250.34649 -10570241.48949  22147162.0094   22147169.0864
  20788252.059   -15256615.79149 -11875298.09749  20788254.0174   20788260.0324
  24135045.462    -3153885.612 9  -2442989.649 9  24135047.693    24135054.390
  22864155.644    13925089.04749  10844903.51749  22864157.9134   22864165.4084
  20801901.325    -2966287.62749  -2305779.21849  20801903.9854   20801909.3354
 96  2 10 18 40 30.0000000  0  7 31 22 19 18 28 14 29
  24465874.267    -2009448.86549  -1555109.32049  24465875.9464   24465882.0524
  23245838.104    10075873.71449   7855236.93149  23245841.5104   23245848.0264
  22136980.087   -13645745.02749 -10611925.62749  22136982.5424   22136989.5414
  20780632.827   -15296654.36449 -11906496.98149  20780634.8484   20780640.9234
  24124539.415    -3209099.784 9  -2486013.640 9  24124540.995    24124547.257
  22884425.586    14031608.99449  10927906.00849  22884427.8444   22884435.7924
  20806069.199    -2944386.84549  -2288713.68249  20806071.6114   20806076.8964
 96  2 10 18 41  0.0000000  0  7 31 22 19 18 28 14 29
  24449566.876    -2095142.37549  -1621883.41549  24449570.2394   24449573.5664
  23264269.180    10172719.14349   7930700.85049  23264270.8234   23264277.6704
  22126840.816   -13699034.90249 -10653450.17149  22126841.8994   22126848.7674
  20773077.888   -15336353.65849 -11937431.48949  20773080.2274   20773086.3944
  24114090.194    -3264006.354 9  -2528797.948 9  24114092.568    24114098.490
  22904734.537    14138338.81249  11011072.04649  22904738.1734   22904746.3904
  20810308.622    -2922105.16349  -2271351.34049  20810311.4804   20810316.7714
 96  2 10 18 41 30.0000000  0  7 31 22 19 18 28 14 29
  24433262.107    -2180825.86549  -1688649.69149  24433264.8884   24433271.3144
  23282752.772    10269857.58949   8006393.08949  23282755.9424   23282762.2864
  22116735.740   -13752126.42649 -10694820.17349  22116738.9474   22116745.9524
  20765585.075   -15375727.49649 -11968112.39949  20765587.4294   20765593.5994
  24103702.169    -3318605.049 9  -2571342.343 9  24103703.376    24103709.476
  22925085.441    14245261.58749  11094388.43549  22925084.9514   22925092.9154
  20814619.344    -2899454.35049  -2253701.36249  20814621.9824   20814627.2824
 96  2 10 18 42  0.0000000  0  7 31 22 19 18 28 14 29
  24416960.769    -2266488.14549  -1755399.45449  24416961.0974   24416971.2594
  23301294.646    10367292.74249   8082316.52649  23301296.7394   23301304.1044
  22106669.557   -13805025.36949 -10736040.08749  22106672.5894   22106679.8024
  20758152.559   -15414788.18149 -11998549.29549  20758154.7754   20758160.8844
  24093367.899    -3372895.334 9  -2613646.412 9  24093371.591    24093378.592
  22945463.181    14352362.76149  11177843.83749  22945466.0174   22945473.2374
  20819000.037    -2876432.36149  -2235762.15949  20819002.8744   20819007.9114
 96  2 10 18 42 30.0000000  0  7 31 22 19 18 28 14 29
  24400668.563    -2352095.49949  -1822106.41349  24400672.3824   24400680.4954
  23319894.655    10465031.27149   8158476.36849  23319895.8614   23319902.4294
  22096644.395   -13857701.42149 -10777086.33449  22096648.2894   22096655.9294
  20750781.404   -15453524.12149 -12028733.14049  20750783.3084   20750789.4624
  24083101.739    -3426852.774 9  -2655691.130 9  24083103.981    24083110.756
  22965881.886    14459660.89149  11261452.71649  22965884.1164   22965891.8174
  20823454.329    -2853024.23549  -2217522.06749  20823457.1674   20823462.4294
 96  2 10 18 43  0.0000000  0  7 31 22 19 18 28 14 29
  24384392.509    -2437643.54849  -1888767.17449  24384392.7594   24384402.4714
  23338542.893    10563033.63149   8234841.78249  23338544.7164   23338552.4664
  22086658.424   -13910182.84849 -10817980.92249  22086661.2224   22086668.7044
  20743466.794   -15491962.12149 -12058684.82849  20743468.7774   20743475.1394
  24072894.332    -3480492.825 9  -2697488.543 9  24072895.928    24072902.933
  22986340.933    14567164.41749  11345221.63649  22986341.8054   22986348.7194
  20827977.606    -2829253.95149  -2198999.78049  20827980.6424   20827985.8894
 96  2 10 18 43 30.0000000  0  7 31 22 19 18 28 14 29
  24368130.343    -2523097.83649  -1955354.86349  24368132.1094   24368139.6734
  23357245.794    10661311.46249   8311421.85349  23357247.5774   23357253.6044
  22076710.136   -13962470.95049 -10858724.87149  22076711.3574   22076717.9634
  20736213.851   -15530078.29649 -12088385.73849  20736215.6214   20736222.0124
  24062747.874    -3533806.786 9  -2739031.870 9  24062750.756    24062755.784
  23006839.967    14674892.94649  11429165.87149  23006841.4604   23006848.9594
  20832572.384    -2805110.81849  -2180186.95949  20832575.0004   20832580.3534
 96  2 10 18 44  0.0000000  0  7 31 22 19 18 28 14 29
  24351886.295    -2608451.47849  -2021864.07749  24351889.0594   24351896.6974
  23376001.329    10759881.95249   8388229.97049  23376004.2664   23376011.2594
  22066805.179   -14014529.98549 -10899290.33649  22066805.3664   22066811.8864
  20729027.319   -15567840.37849 -12117810.73149  20729029.8264   20729035.9614
  24052669.717    -3586773.027 9  -2780304.248 9  24052671.167    24052680.251
  23027387.855    14782874.50549  11513307.28649  23027389.9274   23027397.9124
  20837241.534    -2780573.30249  -2161066.82349  20837244.5694   20837249.5634
 96  2 10 18 44 30.0000000  0  7 31 22 19 18 28 14 29
  24335656.638    -2693729.49949  -2088314.38549  24335660.7694   24335667.2364
  23394810.688    10858711.63949   8465240.07249  23394811.0964   23394818.3864
  22056933.049   -14066376.16249 -10939689.91149  22056938.8594   22056946.0674
  20721907.439   -15605258.22649 -12146967.49349  20721909.5184   20721915.5224
  24042655.630    -3639410.471 9  -2821320.427 9  24042655.336    24042662.013
  23047981.056    14891096.34349  11597635.93149  23047983.5924   23047991.1244
  20841980.555    -2755668.29249  -2141660.33249  20841983.5994   20841988.9014
 96  2 10 18 45  0.0000000  0  7 31 22 19 18 28 14 29
  24319439.150    -2778949.58049  -2154719.52849  24319442.7884   24319452.6374
  23413663.960    10957802.60249   8542453.75249  23413667.4324   23413674.2784
  22047108.238   -14118030.81449 -10979940.27949  22047109.5654   22047116.7634
  20714855.268   -15642317.11249 -12175844.54249  20714857.3684   20714863.3924
  24032699.437    -3691718.660 9  -2862080.018 9  24032701.321    24032708.526
  23068618.545    14999550.77549  11682145.81949  23068621.5884   23068629.7374
  20846792.877    -2730382.36049  -2121957.01749  20846795.3784   20846800.6964
 96  2 10 18 45 30.0000000  0  7 31 22 19 18 28 14 29
  24303237.007    -2864121.90749  -2221087.50149  24303237.6154   24303244.2644
  23432572.456    11057171.52649   8619884.03049  23432576.6954   23432584.1684
  22037314.866   -14169482.50449 -11020032.47049  22037318.7994   22037325.5734
  20707876.718   -15678989.43349 -12204420.37649  20707878.7174   20707884.7814
  24022810.158    -3743683.474 9  -2902572.062 9  24022812.858    24022819.097
  23089300.127    15108222.65549  11766825.14649  23089301.4614   23089309.0314
  20851680.430    -2704696.20849  -2101941.84649  20851683.2544   20851688.7424
 96  2 10 18 46  0.0000000  0  7 31 22 19 18 28 14 29
  24287032.556    -2949263.25549  -2287431.33149  24287034.5254   24287042.3194
  23451532.176    11156795.45949   8697513.02049  23451534.0984   23451541.4694
  22027563.227   -14220731.28349 -11059966.55749  22027565.9964   22027573.0774
  20700970.344   -15715282.41949 -12232700.61749  20700972.2954   20700978.5544
  24012985.826    -3795304.320 9  -2942796.107 9  24012989.135    24012996.130
  23110017.213    15217092.13449  11851658.43949  23110018.7474   23110026.9554
  20856644.346    -2678611.58949  -2081616.18249  20856647.2534   20856652.4374
 96  2 10 18 46 30.0000000  0  7 31 22 19 18 28 14 29
  24270833.492    -3034382.60349  -2353758.02649  24270837.8304   24270843.7494
  23470534.931    11256658.09149   8775327.99349  23470537.7824   23470544.5414
  22017842.665   -14271805.22049 -11099764.39449  22017847.0134   22017854.2274
  20694133.907   -15751206.70549 -12260693.56149  20694136.4654   20694142.5264
  24003228.819    -3846585.659 9  -2982755.593 9  24003231.030    24003237.791
  23130763.147    15326132.49849  11936624.89249  23130767.8824   23130776.1864
  20861682.159    -2652136.11549  -2060985.95449  20861685.2464   20861690.5424
 96  2 10 18 47  0.0000000  0  7 31 22 19 18 28 14 29
  24254639.869    -3119476.84749  -2420065.13249  24254642.3604   24254651.3154
  23489582.763    11356748.74949   8853320.67449  23489584.4604   23489591.2174
  22008161.459   -14322698.01249 -11139421.08549  22008162.0854   22008169.3514
  20687365.620   -15786771.85749 -12288406.66149  20687368.6184   20687374.4234
  23993535.779    -3897524.478 9  -3022448.195 9  23993537.773    23993544.711
  23151547.236    15435330.52249  12021714.18549  23151547.3404   23151555.7964
  20866793.262    -2625276.41649  -2040056.33349  20866796.4684   20866801.7024
 96  2 10 18 47 30.0000000  0  7 31 22 19 18 28 14 29
  24238454.590    -3204533.05549  -2486342.62949  24238458.2824   24238466.0394
  23508671.668    11457056.57649   8931482.58049  23508671.8474   23508679.3594
  21998511.457   -14373388.76649 -11178920.34749  21998516.3204   21998523.4494
  20680664.239   -15821989.63249 -12315849.07549  20680666.8514   20680672.5584
  23983907.700    -3948122.052 9  -3061874.877 9  23983908.911    23983915.883
  23172354.303    15544683.33849  12106924.10949  23172357.1414   23172364.7084
  20871974.913    -2598048.06549  -2018839.44849  20871978.0194   20871983.0374
 96  2 10 18 48  0.0000000  0  7 31 22 19 18 28 14 29
  24222285.747    -3289514.92649  -2552562.17849  24222286.7574   24222293.8574
  23527800.533    11557590.45549   9009820.62249  23527803.6064   23527810.2384
  21988910.223   -14423862.44749 -11218250.47049  21988911.1594   21988918.4494
  20674028.570   -15856860.79849 -12343021.40649  20674031.3254   20674037.0344
  23974346.492    -3998364.010 9  -3101024.466 9  23974348.008    23974355.139
  23193200.350    15654215.01549  12192273.39849  23193200.2654   23193207.8754
  20877229.138    -2570435.56849  -1997323.22949  20877232.2724   20877237.4394
 96  2 10 18 48 30.0000000  0  7 31 22 19 18 28 14 29
  24206127.764    -3374414.42349  -2618717.54949  24206130.2274   24206137.5464
  23546977.483    11658359.77649   9088342.12549  23546978.8134   23546986.5324
  21979343.299   -14474121.43549 -11257413.29249  21979347.5594   21979354.4694
  20667457.873   -15891389.17449 -12369926.63149  20667460.6164   20667466.3174
  23964851.871    -4048253.015 9  -3139899.015 9  23964854.550    23964862.179
  23214076.805    15763931.10649  12277766.39949  23214079.5034   23214086.3074
  20882557.550    -2542437.76549  -1975506.77849  20882560.1084   20882565.3264
 96  2 10 18 49  0.0000000  0  7 31 22 19 18 28 14 29
  24189990.232    -3459212.24349  -2684793.69249  24189994.2924   24190001.5124
  23566198.338    11759372.16849   9167053.03149  23566201.0064   23566208.1564
  21969822.022   -14524151.59149 -11296397.79049  21969826.8564   21969834.0484
  20660951.932   -15925582.47249 -12396570.75749  20660953.8864   20660959.6114
  23955428.306    -4097788.055 9  -3178497.772 9  23955428.078    23955435.500
  23234990.027    15873844.60649  12363413.22749  23234994.7854   23235002.0374
  20887959.844    -2514049.26149  -1953385.88149  20887962.5674   20887967.5454
 96  2 10 18 49 30.0000000  0  7 31 22 19 18 28 14 29
  24173877.065    -3543891.74749  -2750777.63949  24173879.4154   24173887.8704
  23585468.768    11860639.34049   9245962.45949  23585472.3864   23585479.8314
  21960348.554   -14573953.43149 -11335204.41949  21960350.4944   21960357.5524
  20654511.842   -15959422.83449 -12422939.86549  20654514.5094   20654520.1724
  23946067.507    -4146962.791 9  -3216815.749 9  23946072.103    23946079.046
  23255951.030    15983971.20149  12449226.08849  23255951.3294   23255958.2734
  20893438.088    -2485257.53549  -1930950.78549  20893441.0654   20893446.4514
 96  2 10 18 50  0.0000000  0  8 31 22 19 18 28 27 14 29
  24157783.488    -3628463.82249  -2816677.88949  24157786.3794   24157794.6984
  23604784.972    11962149.47449   9325061.20549  23604789.2904   23604795.4584
  21950908.180   -14623543.34549 -11373845.88949  21950913.3004   21950920.2764
  20648139.001   -15992912.11349 -12449035.40649  20648141.2824   20648147.2974
  23936776.981    -4195780.449 9  -3254855.473 9  23936781.200    23936787.608
  24689419.829     -214706.40259   -146703.87059  24689424.8094   24689433.7804
  23276943.661    16094295.35649  12535192.88449  23276945.1404   23276951.9634
  20898993.047    -2456065.21849  -1908203.54249  20898996.2424   20899001.5494
 96  2 10 18 50 30.0000000  0  8 31 22 19 18 28 27 14 29
  24141711.395    -3712929.05949  -2882494.87349  24141713.6414   24141720.5714
  23624150.646    12063905.64749   9404351.67749  23624152.3384   23624159.3904
  21941512.963   -14672914.43449 -11412316.84949  21941518.1184   21941525.0554
  20641835.351   -16026038.98749 -12474848.55249  20641837.6724   20641843.6754
  23927557.902    -4244233.870 9  -3292611.391 9  23927561.171    23927567.112
  24674973.402     -290614.97059   -205853.33859  24674979.3104   24674988.4014
  23297972.625    16204807.59349  12621306.26749  23297975.4334   23297982.1024
  20904624.297    -2426475.72149  -1885146.80249  20904626.9604   20904632.3414
 96  2 10 18 51  0.0000000  0  8 31 22 19 18 28 27 14 29
  24125658.740    -3797283.40749  -2948225.46449  24125660.5384   24125667.5684
  23643555.393    12165892.31349   9483821.75749  23643560.5404   23643566.8474
  21932162.833   -14722068.13949 -11450618.41749  21932164.8414   21932171.4704
  20635601.161   -16058799.14349 -12500375.94949  20635603.6354   20635609.5554
  23918408.423    -4292316.819 9  -3330078.618 9  23918410.596    23918417.965
  24660547.227     -366443.71349   -264940.61249  24660549.7654   24660558.7734
  23319040.352    16315507.54449  12707565.88849  23319041.0714   23319047.9684
  20910328.793    -2396499.09149  -1861788.40849  20910331.5774   20910336.6734
 96  2 10 18 51 30.0000000  0  8 31 22 19 18 28 27 14 29
  24109623.334    -3881543.82849  -3013882.88249  24109625.8644   24109633.8754
  23663006.185    12268085.36649   9563452.66149  23663006.6384   23663014.2654
  21922851.067   -14771019.76649 -11488762.51949  21922849.7324   21922856.2754
  20629439.327   -16091180.34349 -12525608.05049  20629441.7504   20629447.3934
  23909328.897    -4340031.451 9  -3367258.819 9  23909331.453    23909338.332
  24646135.670     -442180.88949   -323956.51449  24646137.8434   24646146.0564
  23340136.995    16426374.62749  12793955.75549  23340138.3954   23340144.6354
  20916105.234    -2366144.35449  -1838135.37749  20916107.8334   20916112.9394
 96  2 10 18 52  0.0000000  0  8 31 22 19 18 28 27 14 29
  24093606.419    -3965711.59649  -3079468.10249  24093609.8654   24093617.4064
  23682491.934    12370494.92549   9643252.28049  23682494.7624   23682500.6504
  21913567.529   -14819772.16349 -11526751.37649  21913572.1664   21913578.9584
  20623349.818   -16123179.48449 -12550542.44549  20623352.3304   20623358.2244
  23900317.597    -4387372.933 9  -3404148.240 9  23900321.602    23900330.038
  24631740.341     -517825.35249   -382900.17149  24631743.3514   24631751.3854
  23361263.937    16537390.63049  12880461.66849  23361264.4054   23361269.8104
  20921953.008    -2335411.65749  -1814187.83549  20921955.8724   20921961.1544
 96  2 10 18 52 30.0000000  0  8 31 22 19 18 28 27 14 29
  24077610.395    -4049778.96549  -3144975.10949  24077611.6904   24077619.6464
  23702021.903    12473123.81749   9723222.78349  23702024.0464   23702031.6124
  21904327.694   -14868325.39049 -11564585.04549  21904332.6434   21904339.9034
  20617335.028   -16154791.78249 -12575175.41049  20617336.9184   20617342.6644
  23891383.738    -4434338.970 9  -3440745.123 9  23891384.764    23891392.056
  24617364.243     -593374.99749   -441769.99549  24617366.2074   24617375.4394
  23382411.983    16648552.83849  12967081.49149  23382416.9064   23382424.3004
  20927873.290    -2304304.02649  -1789948.13649  20927875.6904   20927880.8424
 96  2 10 18 53  0.0000000  0  8 31 22 19 18 28 27 14 29
  24061627.151    -4133761.06149  -3210415.64649  24061630.5564   24061638.1384
  23721593.317    12575966.78049   9803360.10749  23721594.1834   23721601.7374
  21895128.255   -14916690.74949 -11602272.32349  21895129.0934   21895135.7674
  20611392.910   -16186015.41749 -12599505.52049  20611395.2854   20611400.8754
  23882513.249    -4480933.471 9  -3477052.476 9  23882517.936    23882524.716
  24603004.593     -668828.58849   -500564.97649  24603007.4224   24603016.4644
  23403595.872    16759852.08749  13053808.09649  23403597.6344   23403603.9464
  20933863.625    -2272822.05349  -1765416.74249  20933866.5024   20933871.7504
 96  2 10 18 53 30.0000000  0  8 31 22 19 18 28 27 14 29
  24045663.954    -4217650.69049  -3275784.12749  24045667.1834   24045674.9014
  23741209.239    12679052.87449   9883686.86849  23741210.7674   23741218.2924
  21885958.282   -14964858.00749 -11639805.23549  21885963.4514   21885970.1084
  20605528.987   -16216831.13549 -12623517.76849  20605531.3284   20605537.0604
  23873724.050    -4527143.870 9  -3513060.488 9  23873724.932    23873731.297
  24588665.005     -744186.27949   -559285.19849  24588667.5094   24588676.1454
  23424798.539    16871287.12249  13140640.51249  23424802.2694   23424809.7864
  20939930.292    -2240939.52349  -1740573.22549  20939933.4394   20939938.6584
 96  2 10 18 54  0.0000000  0  8 31 22 19 18 28 27 14 29
  24029719.078    -4301452.79249  -3341084.41149  24029720.5814   24029728.2464
  23760873.751    12782385.18249   9964205.50949  23760874.9354   23760881.8534
  21876830.495   -15012833.92349 -11677189.05749  21876833.8154   21876840.4584
  20599738.436   -16247258.09949 -12647227.08949  20599741.0844   20599746.7964
  23864999.401    -4572976.992 9  -3548774.548 9  23865002.309    23865008.810
  24574336.239     -819478.59849   -617954.46549  24574339.6784   24574348.8254
  23446030.887    16982851.23849  13227573.50049  23446032.3934   23446040.0954
  20946071.827    -2208664.67849  -1715424.01349  20946075.2114   20946080.4814
 96  2 10 18 54 30.0000000  0  8 31 22 19 18 28 27 14 29
  24013788.540    -4385165.36249  -3406314.93249  24013789.4534   24013798.2084
  23780580.884    12885945.67049  10044901.93449  23780581.7314   23780588.0434
  21867736.613   -15060617.24549 -11714422.79449  21867740.7614   21867747.6134
  20594020.097   -16277308.49649 -12670642.98149  20594022.7064   20594028.4634
  23856352.386    -4618426.788 9  -3584189.914 9  23856353.706    23856359.894
  24560021.544     -894706.81049   -676573.77249  24560024.6274   24560033.2014
  23467288.718    17094563.20649  13314621.70249  23467290.8104   23467297.9874
  20952290.339    -2175989.36549  -1689962.74949  20952293.0504   20952298.2734
 96  2 10 18 55  0.0000000  0  8 31 22 19 18 28 27 14 29
  23997875.033    -4468782.11849  -3471470.77649  23997877.5294   23997885.7224
  23800327.642    12989717.03349  10125762.68049  23800328.6344   23800335.6514
  21858677.961   -15108218.22449 -11751514.44049  21858682.5184   21858689.4424
  20588370.503   -16306998.65849 -12693778.17049  20588372.6304   20588378.7624
  23847772.063    -4663496.720 9  -3619309.289 9  23847777.550    23847784.128
  24545714.904     -969886.23549   -735155.13749  24545718.8104   24545726.3724
  23488569.627    17206416.89449  13401780.33649  23488575.5424   23488583.4334
  20958583.238    -2142920.45549  -1664194.78949  20958585.9934   20958591.3024
 96  2 10 18 55 30.0000000  0  8 31 22 19 18 28 27 14 29
  23981988.420    -4552276.83449  -3536531.54249  23981991.2684   23981997.8574
  23820108.949    13093688.98149  10206779.71549  23820114.3364   23820121.7624
  21849657.956   -15155627.78449 -11788456.93649  21849660.9794   21849667.8814
  20582788.726   -16336331.42349 -12716634.86649  20582791.0044   20582796.8454
  23839270.921    -4708179.558 9  -3654127.029 9  23839274.322    23839281.023
  24531418.689    -1045019.11049   -793700.14449  24531420.8424   24531429.2524
  23509886.003    17318411.43049  13489048.71549  23509887.7884   23509895.9134
  20964950.020    -2109461.64349  -1638123.00949  20964952.9134   20964958.0154
 96  2 10 18 56  0.0000000  0  8 31 22 19 18 28 27 14 29
  23966125.996    -4635629.08749  -3601481.27249  23966128.9894   23966136.6214
  23839935.785    13197842.25749  10287938.05449  23839933.5824   23839940.5974
  21840672.107   -15202838.74849 -11825244.70049  21840677.1554   21840683.7394
  20577275.007   -16365304.31049 -12739211.14349  20577277.7064   20577283.2744
  23830844.850    -4752466.598 9  -3688636.348 9  23830847.028    23830853.335
  24517134.856    -1120081.99349   -852190.65049  24517137.4944   24517145.4954
  23531226.951    17430557.42749  13576435.11949  23531229.5294   23531236.4294
  20971391.308    -2075612.28849  -1611746.91249  20971394.1614   20971399.4994
 96  2 10 18 56 30.0000000  0  8 31 22 19 18 28 27 14 29
  23950293.585    -4718830.20749  -3666313.25749  23950295.5164   23950302.3254
  23859779.680    13302152.80549  10369218.93649  23859783.2124   23859790.2234
  21831725.869   -15249858.25549 -11861883.26449  21831729.5164   21831736.1554
  20571830.699   -16393916.07849 -12761506.02749  20571833.1434   20571838.8104
  23822494.921    -4796358.240 9  -3722837.576 9  23822494.821    23822501.209
  24502864.538    -1195068.16649   -910621.37949  24502867.5094   24502875.6694
  23552592.587    17542848.55549  13663934.60749  23552596.7204   23552604.8804
  20977907.323    -2041368.71849  -1585063.63549  20977910.3154   20977915.9664
 96  2 10 18 57  0.0000000  0  8 31 22 19 18 28 27 14 29
  23934494.649    -4801853.59449  -3731006.76249  23934496.5904   23934504.3944
  23879663.103    13406631.89049  10450631.14649  23879665.1924   23879671.7654
  21822819.179   -15296676.35149 -11898364.87949  21822820.3164   21822826.6404
  20566461.302   -16422132.02649 -12783492.47449  20566463.7394   20566469.5594
  23814218.163    -4839845.958 9  -3756724.046 9  23814219.083    23814225.500
  24488610.952    -1269968.51149   -968985.23549  24488613.7174   24488623.6764
  23573986.991    17655279.36049  13751542.93549  23573991.4724   23573998.6664
  20984500.363    -2006721.79549  -1558066.05449  20984503.5974   20984509.0184
 96  2 10 18 57 30.0000000  0  8 31 22 19 18 28 27 14 29
  23918725.780    -4884717.71149  -3795576.16349  23918728.0384   23918736.5174
  23899579.171    13511288.67549  10532181.83049  23899580.8174   23899587.2714
  21813945.085   -15343306.42849 -11934699.99849  21813947.0134   21813953.5524
  20561170.076   -16449937.81249 -12805159.32049  20561172.2944   20561178.3984
  23806019.127    -4882929.254 9  -3790295.393 9  23806020.626    23806026.985
  24474375.031    -1344781.52949  -1027281.04749  24474377.2634   24474387.1984
  23595411.359    17767846.46949  13839257.47449  23595412.3414   23595420.5574
  20991172.166    -1971662.47449  -1530747.12649  20991175.2314   20991180.6974
 96  2 10 18 58  0.0000000  0  8 31 22 19 18 28 27 14 29
  23902985.358    -4967443.20049  -3860037.53649  23902986.1944   23902993.6654
  23919527.627    13616118.84949  10613867.62749  23919529.6434   23919535.6484
  21805103.874   -15389764.81449 -11970901.32249  21805105.8764   21805113.0334
  20555954.466   -16477345.16949 -12826515.70449  20555957.0264   20555962.7384
  23797896.486    -4925617.764 9  -3823559.118 9  23797897.019    23797903.934
  24460154.635    -1419516.07449  -1085515.72149  24460156.9594   24460164.6204
  23616856.510    17880543.52749  13927073.26749  23616857.9674   23616866.6314
  20997921.130    -1936196.37349  -1503111.22749  20997924.1804   20997929.5504
 96  2 10 18 58 30.0000000  0  8 31 22 19 18 28 27 14 29
  23887270.040    -5050028.15249  -3924389.39449  23887271.0274   23887279.5474
  23939513.057    13721141.07149  10695703.07049  23939514.1074   23939520.6934
  21796298.065   -15436047.55049 -12006965.77749  21796298.8334   21796305.5944
  20550816.168   -16504349.07649 -12847557.70449  20550818.4094   20550824.2624
  23789846.709    -4967903.100 9  -3856508.690 9  23789850.846    23789856.751
  24445946.098    -1494171.75849  -1143688.96449  24445949.4874   24445958.8534
  23638324.921    17993373.62349  14014992.72949  23638329.4434   23638337.3514
  21004746.268    -1900332.45749  -1475165.34049  21004748.9394   21004754.0764
 96  2 10 18 59  0.0000000  0  8 31 22 19 18 28 27 14 29
  23871579.853    -5132462.93849  -3988624.27749  23871583.9074   23871591.3094
  23959541.647    13826390.25149  10777715.36049  23959542.5484   23959549.7334
  21787526.148   -15482125.94249 -12042870.99649  21787530.3414   21787536.7224
  20545757.426   -16530931.99149 -12868271.66349  20545759.7344   20545765.4404
  23781882.576    -5009766.381 9  -3889129.399 9  23781884.355    23781890.503
  24431759.906    -1568732.15549  -1201787.92149  24431761.0424   24431769.5694
  23659824.900    18106352.29849  14103027.96449  23659827.5714   23659835.9064
  21011647.188    -1864068.60449  -1446907.81649  21011649.6714   21011655.2784
 96  2 10 18 59 30.0000000  0  8 31 22 19 18 28 27 14 29
  23855918.211    -5214781.45849  -4052768.54449  23855918.5834   23855927.6834
  23979606.222    13931838.82949  10859883.03049  23979608.6644   23979615.4184
  21778798.513   -15528012.35649 -12078626.62549  21778798.4944   21778805.1144
  20540770.887   -16557132.39449 -12888687.55049  20540773.8524   20540779.8024
  23773992.316    -5051225.275 9  -3921434.984 9  23773994.777    23774001.424
  24417584.912    -1643214.51949  -1259826.09049  24417587.7304   24417597.4124
  23681348.867    18219457.24349  14191161.59549  23681352.0514   23681359.4194
  21018618.960    -1827427.62249  -1418356.41949  21018622.2794   21018627.8114
 96  2 10 19  0  0.0000000  0  8 31 22 19 18 28 27 14 29
  23840279.416    -5296960.63349  -4116804.24249  23840281.0864   23840288.5224
  23999708.837    14037468.44349  10942191.75249  23999709.0464   23999716.1524
  21770105.567   -15573680.81649 -12114212.42649  21770108.1934   21770114.6974
  20535857.848   -16582953.83249 -12908808.15449  20535860.0754   20535866.1114
  23766181.385    -5092273.575 9  -3953420.651 9  23766183.732    23766189.831
  24403427.946    -1717610.85449  -1317797.19949  24403430.1884   24403436.9304
  23702900.165    18332699.41549  14279402.15249  23702901.4944   23702908.1174
  21025662.562    -1790416.72449  -1389516.78249  21025665.2044   21025670.7964
 96  2 10 19  0 30.0000000  0  8 31 22 19 18 28 27 14 29
  23824672.165    -5378978.83649  -4180714.51849  23824672.7534   23824680.4964
  24019842.452    14143271.11449  11024635.32649  24019842.8594   24019850.2334
  21761456.547   -15619129.82549 -12149627.21849  21761459.2594   21761466.3254
  20531017.747   -16608387.38849 -12928626.51249  20531020.3904   20531026.1674
  23758449.634    -5132910.441 9  -3985085.729 9  23758451.330    23758457.099
  24389287.263    -1791933.01349  -1375710.54249  24389288.8564   24389297.3394
  23724474.192    18446076.94049  14367748.18549  23724475.7294   23724483.5574
  21032777.545    -1753026.23949  -1360381.36049  21032780.4214   21032785.9544
 96  2 10 19  1  0.0000000  0  8 31 22 19 18 28 27 14 29
  23809098.442    -5460810.86249  -4244479.73449  23809101.5744   23809109.5494
  24040005.315    14249248.70049  11107215.19349  24040009.5234   24040016.9754
  21752852.133   -15664341.21849 -12184856.85749  21752856.2014   21752862.8384
  20526256.251   -16633411.26949 -12948125.64349  20526258.5394   20526264.5464
  23750796.364    -5173123.616 9  -4016420.630 9  23750798.314    23750804.996
  24375155.152    -1866179.02549  -1433564.51749  24375159.5374   24375166.7794
  23746073.643    18559588.65349  14456198.78849  23746076.9114   23746084.3974
  21039970.772    -1715225.88849  -1330926.56249  21039973.7324   21039979.2084
 96  2 10 19  1 30.0000000  0  8 31 22 19 18 28 27 14 29
  23793560.054    -5542462.92749  -4308104.70149  23793563.9044   23793571.7924
  24060206.411    14355385.04149  11189918.79549  24060206.9704   24060214.7534
  21744291.485   -15709331.99849 -12219914.58849  21744294.5694   21744301.3404
  20521569.802   -16658034.51549 -12967312.58649  20521572.7594   20521578.8014
  23743224.817    -5212920.868 9  -4047431.459 9  23743225.155    23743231.723
  24361040.226    -1940366.97049  -1491373.23549  24361041.4314   24361050.5594
  23767695.744    18673220.40249  14544742.90749  23767699.5154   23767707.8574
  21047240.766    -1677022.21149  -1301157.48649  21047243.8024   21047249.0524
 96  2 10 19  2  0.0000000  0  8 31 22 19 18 28 27 14 29
  23778060.078    -5623928.56249  -4371584.38449  23778061.4304   23778068.6734
  24080433.045    14461685.67049  11272750.38949  24080435.0894   24080443.2544
  21735771.311   -15754104.53449 -12254802.27149  21735774.4694   21735781.2904
  20516964.932   -16682233.91649 -12986169.27149  20516967.7724   20516973.9344
  23735722.858    -5252297.951 9  -4078114.871 9  23735731.828    23735738.441
  24346928.877    -2014504.59249  -1549142.74849  24346932.6734   24346942.1654
  23789342.951    18786973.49549  14633381.58849  23789346.1154   23789355.4484
  21054587.169    -1638417.69149  -1271076.06549  21054589.8554   21054595.3264
 96  2 10 19  2 30.0000000  0  8 31 22 19 18 28 27 14 29
  23762590.787    -5705213.54149  -4434923.29349  23762593.1854   23762600.8404
  24100698.911    14568168.44749  11355723.92749  24100698.9004   24100705.8274
  21727292.086   -15798663.14649 -12289523.25749  21727295.3464   21727301.9504
  20512441.778   -16706005.60749 -13004692.67349  20512444.2644   20512450.3664
  23728318.093    -5291251.032 9  -4108467.911 9  23728319.570    23728325.463
  24332832.881    -2088588.94149  -1606870.82949  24332835.0414   24332844.5194
  23811006.919    18900825.53949  14722097.36449  23811011.7064   23811020.2354
  21062009.531    -1599411.45349  -1240681.61349  21062012.5264   21062018.1644
 96  2 10 19  3  0.0000000  0  8 31 22 19 18 28 27 14 29
  23747150.737    -5786347.42849  -4498144.43449  23747153.6364   23747160.8274
  24120994.887    14674829.42149  11438836.30049  24120995.5794   24121002.4484
  21718853.141   -15843007.44949 -12324077.23949  21718856.6094   21718863.2544
  20507998.214   -16729358.91949 -13022890.06149  20508000.2024   20508006.3204
  23720986.682    -5329776.783 9  -4138487.969 9  23720988.269    23720994.696
  24318749.575    -2162604.26349  -1664544.96849  24318751.2094   24318760.3684
  23832690.313    19014760.91149  14810878.07249  23832692.2804   23832701.7724
  21069504.729    -1560022.95749  -1209989.30349  21069507.9364   21069513.3434
 96  2 10 19  3 30.0000000  0  8 31 22 19 18 28 27 14 29
  23731740.038    -5867346.66349  -4561260.66049  23731740.5964   23731748.4884
  24141323.890    14781653.27049  11522075.59149  24141324.2064   24141331.3114
  21710452.160   -15887155.54749 -12358478.34149  21710455.7124   21710462.2034
  20503631.088   -16752303.43449 -13040768.91349  20503633.8424   20503640.2594
  23713734.884    -5367878.357 9  -4168177.496 9  23713737.917    23713744.295
  24304676.929    -2236545.44149  -1722161.48749  24304679.4214   24304689.2104
  23854386.638    19128775.03149  14899720.14849  23854389.4504   23854398.8944
  21077070.491    -1520267.61249  -1179011.13549  21077072.8504   21077078.6064
 96  2 10 19  4  0.0000000  0  8 31 22 19 18 28 27 14 29
  23716354.558    -5948182.40049  -4624249.46549  23716358.4074   23716365.4684
  24161679.821    14888637.68049  11605439.99649  24161681.7304   24161689.4364
  21702088.697   -15931107.50049 -12392726.61049  21702091.8254   21702098.5724
  20499345.593   -16774827.44349 -13058320.09949  20499347.8924   20499353.8764
  23706565.730    -5405543.639 9  -4197527.059 9  23706570.520    23706577.013
  24290628.974    -2310380.95149  -1779695.60049  24290631.2814   24290639.3524
  23876099.785    19242876.84449  14988630.56249  23876101.5054   23876110.2284
  21084708.307    -1480127.36049  -1147733.03949  21084711.2814   21084717.1624
 96  2 10 19  4 30.0000000  0  8 31 22 19 18 28 27 14 29
  23701005.016    -6028839.33849  -4687098.95349  23701008.3164   23701017.0784
  24182070.266    14995786.16649  11688932.25149  24182072.4734   24182078.8724
  21693760.049   -15974870.79149 -12426827.86349  21693763.8404   21693770.3924
  20495137.641   -16796942.20149 -13075552.38549  20495139.6604   20495145.6704
  23699478.514    -5442767.451 9  -4226532.592 9  23699486.655    23699493.336
  24276598.499    -2384101.33649  -1837139.99549  24276601.7764   24276608.1744
  23897828.071    19357067.93549  15077610.52249  23897832.0354   23897839.9524
  21092422.208    -1439591.70049  -1116146.83249  21092425.2624   21092430.8774
 96  2 10 19  5  0.0000000  0  8 31 22 19 18 28 27 14 29
  23685692.158    -6109311.41449  -4749804.39449  23685695.9414   23685703.4654
  24202488.372    15103085.62349  11772542.14349  24202490.4384   24202496.7974
  21685469.339   -16018454.32749 -12460789.04549  21685470.0364   21685476.9724
  20491006.749   -16818646.41749 -13092464.76549  20491009.1664   20491015.4254
  23692482.123    -5479553.556 9  -4255197.082 9  23692486.954    23692493.391
  24262587.500    -2457729.34849  -1894512.40049  24262590.4804   24262600.3964
  23919573.077    19471345.39149  15166657.80749  23919578.9244   23919587.1574
  21100213.590    -1398649.14449  -1084243.56749  21100216.4354   21100221.8644
 96  2 10 19  5 30.0000000  0  8 31 22 19 18 28 27 14 29
  23670422.440    -6189561.93849  -4812337.21249  23670423.8754   23670431.2494
  24222940.557    15210551.29749  11856281.57349  24222939.6114   24222946.9764
  21677206.592   -16061851.41849 -12494604.95049  21677211.9034   21677218.7764
  20486956.675   -16839931.49749 -13109050.54749  20486958.9744   20486965.0574
  23685570.704    -5515893.697 9  -4283514.079 9  23685571.185    23685577.656
  24248593.558    -2531274.35749  -1951820.19049  24248596.4364   24248603.0284
  23941337.924    19585723.33249  15255783.36849  23941343.7024   23941352.1944
  21108087.938    -1357270.49449  -1052000.48749  21108090.5794   21108096.0694
 96  2 10 19  6  0.0000000  0  8 31 22 19 18 28 27 14 29
  23655193.840    -6269585.52749  -4874693.18149  23655195.6004   23655203.2344
  24243422.519    15318180.03049  11940148.03649  24243421.9284   24243428.9424
  21668988.186   -16105059.05849 -12528273.22349  21668990.0364   21668996.6754
  20482982.836   -16860812.26849 -13125321.28449  20482985.4574   20482991.8474
  23678738.625    -5551794.586 9  -4311488.790 9  23678739.393    23678746.090
  24234608.656    -2604758.84049  -2009080.74849  24234610.7874   24234620.8754
  23963126.247    19700190.75249  15344978.64849  23963126.4984   23963136.1254
  21116044.396    -1315458.04449  -1019419.38049  21116047.0514   21116052.7924
 96  2 10 19  6 30.0000000  0  8 31 22 19 18 28 27 14 29
  23640007.595    -6349391.15249  -4936879.32949  23640009.7034   23640016.9924
  24263932.281    15425974.85349  12024143.91749  24263934.5024   24263941.2944
  21660806.837   -16148051.68649 -12561773.94849  21660808.7764   21660815.7064
  20479087.779   -16881283.97549 -13141273.26849  20479090.0114   20479096.0864
  23671991.616    -5587249.051 9  -4339115.620 9  23671992.796    23671999.405
  24220633.182    -2678201.70849  -2066308.91749  24220637.2034   24220642.0114
  23984919.762    19814735.96849  15434234.54349  23984923.8294   23984932.8264
  21124083.390    -1273209.82149   -986498.71549  21124086.7594   21124092.1354
 96  2 10 19  7  0.0000000  0  8 31 22 19 18 28 27 14 29
  23624859.230    -6428978.72149  -4998895.55349  23624864.7754   23624870.9814
  24284474.357    15533924.23449  12108260.25249  24284476.5424   24284483.3914
  21652666.871   -16190826.41349 -12595104.89649  21652669.0534   21652675.5534
  20475270.359   -16901343.94849 -13156904.41949  20475272.6864   20475278.7384
  23665325.830    -5622256.352 9  -4366394.027 9  23665330.938    23665337.775
  24206665.143    -2751596.59649  -2123499.61149  24206669.8214   24206678.6604
  24006732.383    19929350.73849  15523544.64049  24006734.1974   24006743.6314
  21132204.601    -1230536.81449   -953247.04749  21132207.1274   21132212.5344
 96  2 10 19  7 30.0000000  0  8 31 22 19 18 28 27 14 29
  23609757.479    -6508351.90149  -5060744.74149  23609759.5024   23609768.3124
  24305045.139    15642019.22049  12192490.03049  24305046.7764   24305054.1284
  21644564.934   -16233393.87849 -12628274.33049  21644568.6004   21644575.3134
  20471532.202   -16920990.09549 -13172213.11149  20471534.0884   20471540.3384
  23658752.204    -5656814.345 9  -4393322.325 9  23658754.977    23658761.480
  24192712.154    -2824922.87649  -2180636.98449  24192714.4104   24192722.9134
  24028554.888    20044043.18849  15612915.27349  24028559.3964   24028568.7224
  21140401.519    -1187459.71549   -919680.50649  21140404.3374   21140410.1904
 96  2 10 19  8  0.0000000  0  8 31 22 19 18 28 27 14 29
  23594695.941    -6587510.85549  -5122427.00149  23594697.3664   23594703.9544
  24325642.237    15750255.28949  12276829.72949  24325642.6044   24325649.4094
  21636506.053   -16275749.19249 -12661278.45449  21636508.5754   21636515.3274
  20467875.238   -16940205.28749 -13187185.99249  20467877.5514   20467883.9214
  23652263.508    -5690913.349 9  -4419892.947 9  23652266.255    23652272.757
  24178777.244    -2898161.76849  -2237706.19749  24178780.2784   24178788.8864
  24050394.541    20158810.99349  15702344.62849  24050398.8834   24050408.0634
  21148673.122    -1143991.61349   -885809.28749  21148675.9884   21148681.7344
 96  2 10 19  8 30.0000000  0  8 31 22 19 18 28 27 14 29
  23579668.871    -6666469.96249  -5183953.53049  23579671.9624   23579678.8784
  24346261.120    15858619.51049  12361269.30849  24346263.9504   24346270.3304
  21628480.695   -16317909.56149 -12694130.67749  21628485.7774   21628492.6054
  20464298.894   -16958996.38649 -13201828.40749  20464301.5744   20464307.6854
  23645865.258    -5724559.849 9  -4446111.007 9  23645863.472    23645870.140
  24164855.874    -2971301.65849  -2294698.26649  24164860.7464   24164864.0444
  24072253.261    20273643.97749  15791824.76349  24072251.5154   24072260.5534
  21157016.420    -1100149.07349   -851646.29949  21157018.9644   21157024.6574
 96  2 10 19  9  0.0000000  0  8 31 22 19 18 28 27 14 29
  23564682.865    -6745229.84349  -5245324.81949  23564684.3414   23564690.6214
  24366908.214    15967109.20349  12445806.64349  24366909.3624   24366915.6764
  21620494.476   -16359892.77749 -12726844.85849  21620496.5474   21620503.3814
  20460804.528   -16977364.77549 -13216141.44149  20460806.4494   20460812.4934
  23639542.966    -5757758.287 9  -4471979.872 9  23639545.913    23639552.449
  24150959.140    -3044339.18649  -2351610.59549  24150961.1064   24150972.5414
  24094113.023    20388546.55249  15881359.13849  24094116.0744   24094125.9804
  21165429.249    -1055939.03549   -817196.95149  21165432.0224   21165437.9164
 96  2 10 19  9 30.0000000  0  8 31 22 19 18 28 27 14 29
  23549732.618    -6823789.65449  -5306540.21449  23549735.2304   23549741.2274
  24387575.299    16075725.51449  12530442.65449  24387577.4874   24387585.5204
  21612542.953   -16401685.27649 -12759410.42149  21612543.6934   21612550.6834
  20457389.559   -16995306.45749 -13230121.97349  20457392.1284   20457398.2004
  23633311.736    -5790504.867 9  -4497496.674 9  23633313.858    23633320.944
  24137078.768    -3117283.54449  -2408450.27949  24137080.6464   24137086.6114
  24115990.074    20503515.19249  15970944.97149  24115994.5664   24116003.9174
  21173913.080    -1011357.86749   -782458.40749  21173915.7014   21173921.2744
 96  2 10 19 10  0.0000000  0  8 31 22 19 18 28 27 14 29
  23534818.829    -6902145.92549  -5367597.01849  23534823.6084   23534830.2954
  24408268.651    16184466.22449  12615175.59949  24408271.5524   24408278.5774
  21604626.103   -16443267.60349 -12791812.22049  21604630.8424   21604637.6824
  20454057.625   -17012819.80749 -13243768.74549  20454059.6314   20454065.5914
  23627170.876    -5822797.249 9  -4522659.576 9  23627169.273    23627176.176
  24123215.566    -3190135.28549  -2465217.80949  24123216.3224   24123228.0864
  24137879.760    20618536.40049  16060571.78649  24137883.0744   24137891.3814
  21182468.990     -966394.63049   -747422.14849  21182471.8084   21182477.6604
 96  2 10 19 10 30.0000000  0  8 31 22 19 18 28 27 14 29
  23519946.605    -6980309.18949  -5428503.42149  23519949.1344   23519957.0434
  24428983.488    16293316.45649  12699993.88849  24428984.9694   24428992.4354
  21596754.942   -16484638.58249 -12824049.33149  21596758.4724   21596764.8154
  20450805.268   -17029912.37849 -13257087.63449  20450806.9994   20450812.9544
  23621105.631    -5854639.894 9  -4547472.003 9  23621109.126    23621116.831
  24109369.073    -3262900.01649  -2521917.56449  24109371.4054   24109377.0754
  24159775.209    20733602.51949  16150233.59149  24159779.5984   24159788.1234
  21191098.676     -921048.51549   -712087.53549  21191101.1334   21191106.7224
 96  2 10 19 11  0.0000000  0  8 31 22 19 18 28 27 14 29
  23505109.406    -7058270.46849  -5489252.41149  23505113.9284   23505120.9284
  24449718.427    16402283.89749  12784903.49549  24449720.4844   24449728.2704
  21588924.616   -16525792.79349 -12856117.51949  21588926.8094   21588933.5314
  20447635.845   -17046564.71449 -13270063.48449  20447638.1784   20447644.1564
  23615137.385    -5886021.301 9  -4571925.049 9  23615138.522    23615144.939
  24095535.195    -3335586.05349  -2578555.95849  24095538.8834   24095549.3554
  24181679.567    20848712.15449  16239929.30049  24181683.2864   24181692.3954
  21199802.100     -875305.61949   -676443.74249  21199805.8364   21199811.3214
 96  2 10 19 11 30.0000000  0  8 31 22 19 18 28 27 14 29
  23490316.515    -7136012.65849  -5549830.69149  23490319.4174   23490327.8004
  24470475.525    16511371.63249  12869906.85649  24470478.6834   24470485.9814
  21581132.675   -16566719.66449 -12888008.56949  21581138.6784   21581145.5894
  20444552.575   -17062769.38949 -13282690.51149  20444554.3314   20444560.4914
  23609253.707    -5916928.112 9  -4596008.263 9  23609256.635    23609263.094
  24081721.771    -3408177.05849  -2635120.37149  24081725.1174   24081733.1464
  24203593.554    20963875.53249  16329666.86549  24203598.9524   24203606.9344
  21208587.509     -829141.35049   -640471.61049  21208590.3514   21208596.0794
 96  2 10 19 12  0.0000000  0  8 31 22 19 18 28 27 14 29
  23475564.089    -7213543.78049  -5610244.51249  23475566.8394   23475573.2154
  24491256.927    16620568.92949  12954995.57349  24491258.5474   24491266.0364
  21573386.020   -16607437.34649 -12919736.61749  21573390.1654   21573396.8964
  20441550.741   -17078542.02149 -13294980.88049  20441552.9484   20441559.0824
  23603460.840    -5947370.371 9  -4619729.495 9  23603463.660    23603470.374
  24067926.065    -3480682.68049  -2691618.21049  24067928.2664   24067937.8024
  24225517.348    21079088.29749  16419442.92549  24225522.1844   24225532.1094
  21217453.297     -782554.09049   -604169.87749  21217455.8804   21217461.3344
 96  2 10 19 12 30.0000000  0  8 31 22 19 18 28 27 14 29
  23460854.059    -7290851.24749  -5670484.03949  23460854.8524   23460862.6484
  24512057.434    16729888.90449  13040179.88749  24512061.0204   24512068.6904
  21565676.456   -16647961.09249 -12951313.54449  21565678.8574   21565685.6854
  20438631.094   -17093881.08849 -13306933.41249  20438634.2004   20438640.1264
  23597756.501    -5977347.194 9  -4643088.044 9  23597759.132    23597766.196
  24054141.412    -3553119.94749  -2748062.77449  24054143.9854   24054150.3674
  24247451.313    21194352.48849  16509259.07849  24247457.3574   24247465.5444
  21226397.951     -735545.86749   -567540.11549  21226400.7514   21226406.5534
 96  2 10 19 13  0.0000000  0  8 31 22 19 18 28 27 14 29
  23446187.586    -7367911.72449  -5730531.12149  23446191.0724   23446197.9534
  24532888.151    16839336.31749  13125463.49949  24532888.3954   24532896.5214
  21558000.693   -16688299.22649 -12982745.84549  21558002.9234   21558009.6544
  20435795.340   -17108785.15149 -13318546.97649  20435798.0944   20435804.1964
  23592137.314    -6006859.799 9  -4666084.856 9  23592142.791    23592149.877
  24040364.103    -3625505.97449  -2804467.42449  24040367.9734   24040377.7244
  24269403.186    21309664.77749  16599112.70349  24269400.0744   24269409.1324
  21235425.805     -688107.71949   -530575.34749  21235428.1554   21235433.7814
 96  2 10 19 13 30.0000000  0  8 31 22 19 18 28 27 14 29
  23431576.534    -7444701.02949  -5790366.91149  23431578.6094   23431586.0764
  24553737.541    16948907.86749  13210843.85449  24553739.9044   24553746.5354
  21550363.205   -16728429.22749 -13014015.96049  21550366.1144   21550372.9024
  20433042.442   -17123250.21449 -13329818.46149  20433045.2394   20433051.3654
  23586610.313    -6035901.271 9  -4688714.596 9  23586616.462    23586623.838
  24026606.068    -3697828.73849  -2860822.84149  24026607.2144   24026611.6694
  24291353.972    21425033.55849  16689010.36649  24291353.9144   24291362.1234
  21244534.661     -640238.02449   -493274.31649  21244537.4894   21244542.9584
 96  2 10 19 14  0.0000000  0  8 31 22 19 18 28 27 14 29
  23417019.077    -7521201.00449  -5849977.24149  23417021.6024   23417028.6634
  24574612.209    17058612.71749  13296328.05449  24574615.7884   24574623.7714
  21542765.921   -16768344.99349 -13045119.13649  21542770.4194   21542777.1484
  20430379.314   -17137248.56249 -13340726.27649  20430381.7354   20430387.6394
  23581181.194    -6064458.951 9  -4710967.329 9  23581182.557    23581189.417
  24012853.808    -3770086.90249  -2917127.79649  24012857.9744   24012864.9854
  24313317.466    21540457.32949  16778950.87049  24313319.3704   24313327.7534
  21253722.746     -591952.89849   -455649.57049  21253725.9284   21253731.5024
 96  2 10 19 14 30.0000000  0  8 31 22 19 18 28 27 14 29
  23402512.703    -7597428.78649  -5909375.47349  23402515.7264   23402522.8714
  24595508.154    17168411.54749  13381885.51149  24595509.5924   24595518.3054
  21535206.607   -16808078.08249 -13076079.96949  21535209.5814   21535216.0874
  20427799.694   -17150800.23449 -13351286.02749  20427802.9164   20427809.0804
  23575834.913    -6092554.998 9  -4732860.362 9  23575836.040    23575842.732
  23999108.995    -3842307.63449  -2973403.69949  23999111.4544   23999120.0454
  24335285.763    21655904.07749  16868909.27949  24335288.5374   24335295.7424
  21262981.977     -543297.21349   -417736.07849  21262984.6714   21262990.2744
 96  2 10 19 15  0.0000000  0  8 31 22 19 18 28 27 14 29
  23388060.943    -7673384.44449  -5968561.66549  23388061.7564   23388068.9174
  24616410.855    17278291.47749  13467506.14549  24616419.1754   24616425.8314
  21527682.003   -16847612.07949 -13106885.66849  21527686.5834   21527693.3054
  20425307.101   -17163901.98449 -13361495.19649  20425309.7194   20425315.5434
  23570577.403    -6120173.310 9  -4754381.113 9  23570580.358    23570587.183
  23985381.766    -3914457.10349  -3029624.01549  23985382.5824   23985392.4484
  24357261.196    21771391.36749  16958899.26549  24357264.6784   24357273.8504
  21272313.970     -494255.73249   -379521.96649  21272317.0544   21272322.9884
 96  2 10 19 15 30.0000000  0  8 31 22 19 18 28 27 14 29
  23373655.219    -7749087.89549  -6027551.33349  23373656.4334   23373663.1094
  24637340.035    17388249.01149  13553187.24349  24637343.5544   24637351.4934
  21520194.944   -16886963.71649 -13137549.26649  21520197.9344   21520204.7754
  20422898.448   -17176561.13749 -13371359.48049  20422900.7714   20422906.5084
  23565412.496    -6147313.543 9  -4775529.360 9  23565415.915    23565422.464
  23971668.761    -3986517.74749  -3085775.16649  23971671.9244   23971679.6504
  24379250.205    21886919.15549  17048920.80849  24379248.9374   24379257.4854
  21281715.397     -444850.18649   -341024.16749  21281718.5914   21281724.4464
 96  2 10 19 16  0.0000000  0  8 31 22 19 18 28 27 14 29
  23359293.654    -7824545.09849  -6086349.11549  23359296.9624   23359304.1664
  24658282.754    17498301.11349  13638942.06149  24658286.1644   24658294.1904
  21512736.139   -16926148.95749 -13168083.20849  21512741.3154   21512748.2074
  20420574.666   -17188769.84749 -13380872.76849  20420577.7904   20420583.6054
  23560340.744    -6173967.283 9  -4796298.490 9  23560343.284    23560350.502
  23957972.871    -4058485.18949  -3141853.57249  23957975.7144   23957983.2224
  24401239.406    22002491.18749  17138976.83249  24401241.5884   24401251.1534
  21291187.471     -395075.55749   -302238.77349  21291190.2854   21291196.0714
 96  2 10 19 16 30.0000000  0  8 31 22 19 18 28 27 14 29
  23344977.196    -7899772.47549  -6144967.84249  23344981.0004   23344988.9704
  24679242.411    17608438.10449  13724763.00049  24679243.9074   24679251.8864
  21505313.398   -16965173.95349 -13198492.29349  21505315.0064   21505321.8844
  20418332.588   -17200557.25149 -13390057.76949  20418334.5694   20418340.4794
  23555359.343    -6200143.794 9  -4816695.770 9  23555362.173    23555369.409
  23944298.083    -4130352.58949  -3197854.13849  23944300.0614   23944308.3684
  24423233.625    22118094.56349  17229057.28049  24423240.1024   24423249.0554
  21300732.610     -344916.53549   -263153.84649  21300735.3684   21300741.0024
 96  2 10 19 17  0.0000000  0  8 31 22 19 18 28 27 14 29
  23330707.852    -7974765.92749  -6203404.27049  23330710.2784   23330717.8924
  24700216.498    17718668.59249  13810656.81249  24700220.2824   24700227.9454
  21497916.838   -17004033.78449 -13228772.66949  21497920.2654   21497927.1454
  20416171.951   -17211907.44649 -13398902.08649  20416174.5624   20416180.3664
  23550471.118    -6225837.754 9  -4836717.048 9  23550473.048    23550479.721
  23930642.450    -4202116.79949  -3253774.22049  23930644.2424   23930648.8824
  24445240.624    22233723.53849  17319157.67849  24445243.6694   24445252.8434
  21310354.654     -294353.87149   -223754.39149  21310356.9464   21310362.7714
 96  2 10 19 17 30.0000000  0  8 31 22 19 18 28 27 14 29
  23316489.097    -8049492.41249  -6261632.68749  23316490.5524   23316497.9714
  24721216.327    17829016.36249  13896641.99749  24721219.1894   24721226.0914
  21490558.947   -17042707.99749 -13258908.40849  21490561.0734   21490567.5234
  20414099.900   -17222794.69249 -13407385.66149  20414102.7954   20414108.5054
  23545674.861    -6251033.845 9  -4856350.363 9  23545678.168    23545685.280
  23917002.213    -4273782.80949  -3309617.83949  23917004.4834   23917015.5924
  24467248.514    22349377.87249  17409277.84749  24467251.8964   24467261.5064
  21320054.618     -243377.30849   -184032.42149  21320057.7324   21320063.4494
 96  2 10 19 18  0.0000000  0  8 31 22 19 18 28 27 14 29
  23302316.502    -8123963.58049  -6319662.14949  23302319.3714   23302326.1564
  24742230.960    17939455.98149  13982698.75049  24742234.7894   24742243.1664
  21483235.678   -17081191.08249 -13288895.21249  21483237.6714   21483244.4914
  20412114.268   -17233232.35449 -13415518.91349  20412116.8034   20412122.4594
  23540976.098    -6275750.355 9  -4875609.999 9  23540974.976    23540981.990
  23903377.550    -4345382.01349  -3365409.36349  23903380.4674   23903387.4784
  24489254.792    22465027.24749  17499394.13049  24489259.5024   24489268.4744
  21329832.895     -191989.35649   -143989.88449  21329836.1934   21329842.3084
 96  2 10 19 18 30.0000000  0  8 31 22 19 18 28 27 14 29
  23288197.048    -8198164.83249  -6377481.29549  23288198.9274   23288206.1364
  24763264.404    18049977.57349  14068819.41249  24763266.5184   24763275.0164
  21475952.464   -17119459.55649 -13318714.78749  21475955.7644   21475962.4074
  20410215.245   -17243207.51649 -13423291.77549  20410218.7844   20410224.7734
  23536360.192    -6299981.171 9  -4894491.145 9  23536363.909    23536371.020
  23889766.215    -4416919.87549  -3421153.09549  23889767.8614   23889777.7714
  24511262.137    22580673.96149  17589508.34749  24511266.0804   24511275.8434
  21339692.813     -140180.81049   -103619.61249  21339695.2644   21339701.0564
 96  2 10 19 19  0.0000000  0  8 31 22 19 18 28 27 14 29
  23274131.496    -8272078.64449  -6435076.46649  23274133.1254   23274140.9154
  24784312.367    18160583.49249  14155005.73249  24784315.3434   24784322.0784
  21468717.637   -17157488.63349 -13348347.82049  21468719.1124   21468725.6804
  20408411.834   -17252690.30649 -13430680.97449  20408414.0774   20408420.0204
  23531845.965    -6323708.641 9  -4912980.090 9  23531848.770    23531855.868
  23876164.746    -4488397.48249  -3476849.92149  23876167.8934   23876172.2814
  24533277.447    22696338.89149  17679636.74549  24533276.1244   24533286.6834
  21349630.829      -87956.55649    -62925.41849  21349633.3764   21349639.1494
 96  2 10 19 19 30.0000000  0  8 31 22 19 18 28 27 14 29
  23260117.168    -8345715.66049  -6492455.95449  23260120.9194   23260128.6244
  24805375.770    18271267.97949  14241253.30249  24805377.0234   24805385.1834
  21461523.924   -17195283.60249 -13377798.43349  21461526.6284   21461533.4334
  20406697.121   -17261700.65549 -13437702.03649  20406699.6824   20406705.2214
  23527426.974    -6346940.883 9  -4931083.145 9  23527427.671    23527434.480
  23862571.035    -4559813.99449  -3532499.04249  23862576.7334   23862583.3434
  24555285.937    22812012.74449  17769772.08049  24555288.1234   24555298.7964
  21359642.994      -35337.17349    -21923.33149  21359646.3184   21359652.1524
 96  2 10 19 20  0.0000000  0  8 31 22 19 18 28 27 14 29
  23246153.013    -8419083.86349  -6549625.96049  23246159.4624   23246167.3054
  24826448.310    18382023.94049  14327556.56749  24826453.7114   24826460.6684
  21454371.947   -17232865.92849 -13407083.35949  21454375.0324   21454381.7504
  20405070.299   -17270249.98149 -13444363.85749  20405072.9194   20405078.6304
  23523093.347    -6369684.627 9  -4948805.521 9  23523099.761    23523106.719
  23848995.398    -4631167.89949  -3588099.50449  23848996.1154   23849007.8574
  24577300.467    22927687.77249  17859908.33249  24577300.0644   24577310.6974
  21369730.877       17671.59449     19382.17249  21369733.6694   21369739.5754
 96  2 10 19 20 30.0000000  0  8 31 22 19 18 28 27 14 29
  23232248.202    -8492169.14449  -6606575.52849  23232252.2974   23232259.1934
  24847537.663    18492838.28249  14413905.31249  24847541.1164   24847549.8824
  21447259.203   -17270253.13449 -13436216.24349  21447260.3174   21447267.2214
  20403528.212   -17278353.68649 -13450678.43849  20403530.3204   20403536.2004
  23518855.368    -6391943.344 9  -4966149.975 9  23518863.864    23518871.282
  23835431.195    -4702453.81349  -3643646.90549  23835433.1334   23835437.9534
  24599312.254    23043359.56749  17950042.09549  24599312.5814   24599322.9284
  21379887.595       71048.50149     60974.53549  21379890.9154   21379896.8134
 96  2 10 19 21  0.0010000  0  8 31 22 19 18 28 27 14 29
  23218400.183    -8564948.25049  -6663286.51449  23218402.6174   23218409.6494
  24868643.533    18603740.95849  14500322.87549  24868645.2574   24868652.6094
  21440179.731   -17307450.27849 -13465201.01949  21440182.1834   21440188.8164
  20402069.369   -17286018.94049 -13456651.37449  20402071.8004   20402077.5894
  23514720.039    -6413702.605 9  -4983105.255 9  23514723.742    23514730.290
  23821884.585    -4773640.87349  -3699117.26949  23821887.8424   23821895.3524
  24621321.394    23159039.95249  18040182.53049  24621326.0594   24621335.6324
  21390119.070      124811.36949    102867.64549  21390121.9424   21390127.8224
 96  2 10 19 21 30.0010000  0  8 31 22 19 18 28 27 14 29
  23204614.002    -8637390.87849  -6719735.31949  23204617.0844   23204624.4774
  24889765.488    18714749.15049  14586822.67549  24889769.0124   24889778.1354
  21433137.171   -17344461.54249 -13494040.95749  21433138.9154   21433145.6454
  20400692.533   -17293255.21249 -13462290.03549  20400694.8074   20400700.5924
  23510675.735    -6434953.450 9  -4999664.361 9  23510679.665    23510686.352
  23808355.710    -4844715.00449  -3754499.64149  23808359.5184   23808368.2474
  24643335.254    23274711.68049  18130316.21649  24643337.3614   24643346.0954
  21400424.529      178968.12349    145067.67949  21400427.3324   21400433.3024
 96  2 10 19 22  0.0010000  0  8 31 22 19 18 28 27 14 29
  23190893.238    -8709507.55249  -6775930.13449  23190893.9344   23190900.5974
  24910908.282    18825848.72349  14673393.68249  24910911.5164   24910918.4284
  21426127.418   -17381293.15849 -13522740.90949  21426130.0464   21426136.8114
  20399393.991   -17300078.23149 -13467606.68349  20399396.3254   20399402.3364
  23506727.429    -6455710.314 9  -5015838.526 9  23506729.729    23506736.568
  23794848.913    -4915705.20449  -3809816.64049  23794850.1464   23794859.7454
  24665339.149    23390353.66149  18220426.74849  24665344.0764   24665353.1174
  21410802.219      233504.58049    187563.59049  21410805.5784   21410811.4474
 96  2 10 19 22 30.0010000  0  8 31 22 19 18 28 27 14 29
  23177232.077    -8781289.29349  -6831863.96849  23177234.0474   23177241.0344
  24932069.634    18937039.40549  14760035.66449  24932069.5484   24932078.1934
  21419160.679   -17417912.23249 -13551275.24349  21419161.6364   21419168.3154
  20398177.004   -17306473.06949 -13472589.68149  20398179.5224   20398185.5164
  23502874.910    -6475957.146 9  -5031615.267 9  23502876.968    23502883.703
  23781361.193    -4986596.59249  -3865056.67249  23781362.6164   23781370.2084
  24687341.773    23505973.10949  18310519.73449  24687344.2164   24687355.3074
  21421254.985      288432.74749    230364.72949  21421257.7984   21421263.9774
 96  2 10 19 23  0.0010000  0  8 31 22 19 18 28 27 14 29
  23163630.750    -8852763.70849  -6887558.32049  23163632.7234   23163639.9634
  24953246.604    19048313.38149  14846742.56649  24953244.4014   24953252.5024
  21412229.625   -17454328.76049 -13579651.74249  21412231.9944   21412238.5624
  20397042.540   -17312435.04149 -13477235.37849  20397044.9654   20397050.6564
  23499120.205    -6495698.840 9  -5046998.395 9  23499120.211    23499127.101
  23767884.707    -5057412.48149  -3920237.77949  23767887.5664   23767892.7524
  24709341.072    23621561.99649  18400588.89249  24709341.9114   24709349.7754
  21431783.286      343756.81249    273474.36549  21431785.8924   21431791.7954
 96  2 10 19 23 30.0010000  0  8 31 22 19 18 28 27 14 29
  23150082.047    -8923950.48949  -6943028.52849  23150085.9804   23150093.9174
  24974429.566    19159646.38449  14933495.46849  24974431.3784   24974438.1034
  21405341.798   -17490529.26349 -13607859.91149  21405343.2314   21405350.1694
  20395993.188   -17317947.76249 -13481531.01349  20395995.9584   20396001.9204
  23495460.822    -6514938.231 9  -5061990.117 9  23495459.298    23495465.788
  23754417.928    -5128167.82749  -3975371.73949  23754421.7884   23754430.4594
  24731328.427    23737113.46749  18490628.90849  24731328.9964   24731340.1774
  21442385.418      399468.79249    316886.27449  21442387.6914   21442393.5994
 96  2 10 19 24  0.0010000  0  7 31 19 18 28 27 14 29
  23136591.656    -8994863.59549  -6998285.50849  23136592.0354   23136600.1214
  21398493.696   -17526509.61349 -13635896.53949  21398496.4784   21398503.1194
  20395035.309   -17322987.07849 -13485457.76049  20395037.2674   20395042.9834
  23491895.981    -6533672.497 9  -5076588.212 9  23491893.795    23491900.733
  23740965.209    -5198860.41849  -4030456.84049  23740968.3794   23740976.1274
  24753311.572    23852639.94449  18580649.44249  24753313.9514   24753323.0954
  21453061.914      455577.79949    360607.55649  21453064.9734   21453070.6794
 96  2 10 19 24 30.0010000  0  7 31 19 18 28 27 14 29
  23123148.728    -9065490.88349  -7053319.75349  23123152.4134   23123159.9904
  21391686.387   -17562280.13749 -13663769.67049  21391689.4374   21391696.2514
  20394170.514   -17327525.88349 -13488994.49649  20394173.4174   20394179.1244
  23488422.074    -6551884.802 9  -5090779.595 9  23488428.434    23488435.145
  23727530.528    -5269471.11149  -4085478.10049  23727531.6384   23727540.1054
  24775296.174    23968179.01349  18670679.81949  24775300.2894   24775310.6414
  21463818.797      512106.38249    404655.78549  21463821.8344   21463827.8934
 96  2 10 19 25  0.0010000  0  7 31 19 18 28 27 14 29
  23109763.155    -9135845.41949  -7108141.47649  23109764.7554   23109770.9614
  21384913.200   -17597874.01949 -13691505.15149  21384916.1024   21384922.8014
  20393402.459   -17331564.96649 -13492141.84149  20393404.8594   20393410.4594
  23485057.572    -6569589.298 9  -5104575.287 9  23485059.306    23485066.153
  23714106.357    -5340010.41949  -4140443.75449  23714108.4054   23714118.6504
  24797280.518    24083721.45749  18760712.82549  24797287.2794   24797296.7524
  21474653.242      569041.90049    449021.10649  21474656.3664   21474662.2604
 96  2 10 19 25 30.0010000  0  7 31 19 18 28 27 14 29
  23096429.335    -9205911.70849  -7162738.56849  23096431.4354   23096437.9474
  21378175.198   -17633280.46249 -13719094.58849  21378178.5974   21378185.3024
  20392730.295   -17335095.08149 -13494892.58049  20392733.2094   20392738.8304
  23481784.425    -6586782.323 9  -5117972.401 9  23481787.368    23481794.018
  23700699.572    -5410462.05649  -4195341.06849  23700703.6774   23700712.2854
  24819272.549    24199265.15249  18850746.80649  24819274.4874   24819283.1784
  21485564.972      626382.31249    493701.92849  21485567.8274   21485574.1534
 96  2 10 19 26  0.0010000  0  7 31 19 18 28 27 14 29
  23083155.229    -9275677.58049  -7217101.57149  23083155.5104   23083163.0604
  21371471.257   -17668517.74149 -13746552.20649  21371473.1174   21371479.6504
  20392153.856   -17338125.40749 -13497253.87949  20392156.3484   20392162.0144
  23478610.924    -6603468.915 9  -5130974.916 9  23478611.931    23478618.623
  23687308.381    -5480833.79749  -4250176.12849  23687310.5534   23687318.7824
  24841255.468    24314804.44349  18940777.36049  24841261.5344   24841271.5494
  21496551.329      684117.84649    538690.63749  21496554.6134   21496560.4794
 96  2 10 19 26 30.0010000  0  7 31 19 18 28 27 14 29
  23069939.736    -9345121.52749  -7271213.72149  23069941.1554   23069947.5344
  21364798.908   -17703578.58449 -13773872.33849  21364801.2424   21364807.9494
  20391671.007   -17340659.83949 -13499228.76449  20391673.9004   20391679.8764
  23475536.094    -6619640.423 9  -5143576.055 9  23475534.706    23475541.173
  23673935.493    -5551109.86149  -4304936.65649  23673937.2534   23673946.7664
  24863240.312    24430334.55849  19030800.74249  24863245.8914   24863255.9014
  21507612.244      742242.41649    583982.48849  21507615.2894   21507621.1574
 96  2 10 19 27  0.0010000  0  7 31 19 18 28 27 14 29
  23056788.826    -9414221.34249  -7325057.70649  23056792.6404   23056798.3264
  21358164.030   -17738438.55649 -13801035.94449  21358167.6854   21358174.3354
  20391281.611   -17342709.63049 -13500826.00549  20391284.0944   20391289.8904
  23472548.513    -6635294.768 9  -5155774.222 9  23472555.799    23472562.528
  23660583.099    -5621282.88849  -4359616.90849  23660585.6464   23660593.7684
  24885224.334    24545819.78049  19120789.13349  24885222.4454   24885230.8454
  21518746.938      800753.69849    629575.67749  21518749.7274   21518755.5754
 96  2 10 19 27 30.0010000  0  7 31 19 18 28 27 14 29
  23043706.552    -9482964.38649  -7378623.67449  23043709.5244   23043716.4974
  21351571.778   -17773088.10849 -13828035.58749  21351574.0954   21351580.9384
  20390980.401   -17344293.33049 -13502060.06349  20390982.4634   20390988.3424
  23469676.013    -6650433.946 9  -5167570.972 9  23469675.208    23469681.411
  23647247.029    -5691365.70449  -4414226.82549  23647250.6434   23647255.7984
  24907180.369    24661242.66149  19210728.95149  24907186.2964   24907196.8924
  21529952.834      859642.23849    675462.82649  21529955.7384   21529961.9224
 96  2 10 19 28  0.0010000  0  7 31 19 18 28 27 14 29
  23030695.193    -9551346.14449  -7431908.12049  23030696.5034   23030703.9614
  21345017.065   -17807537.62149 -13854879.34949  21345018.4524   21345025.1074
  20390765.029   -17345424.37449 -13502941.40049  20390767.1514   20390773.0834
  23466884.281    -6665056.632 9  -5178965.226 9  23466891.952    23466899.017
  23633924.289    -5761370.55649  -4468775.98249  23633926.2264   23633933.7974
  24929134.872    24776604.56749  19300621.25649  24929138.7114   24929147.9204
  21541231.282      918912.59349    721647.49649  21541234.2154   21541240.4724
 96  2 10 19 28 30.0010000  0  7 31 19 18 28 27 14 29
  23017749.865    -9619370.33349  -7484913.93549  23017752.8084   23017759.1334
  21338498.193   -17841779.84949 -13881561.59849  21338502.4834   21338509.2874
  20390634.747   -17346108.10049 -13503474.17949  20390637.1574   20390643.0774
  23464207.364    -6679155.065 9  -5189951.002 9  23464209.203    23464216.188
  23620617.115    -5831287.54949  -4523256.70249  23620620.2604   23620629.8334
  24951080.387    24891906.48349  19390466.82049  24951080.5434   24951090.2034
  21552585.650      978578.82049    768140.64049  21552588.7734   21552594.7604
 96  2 10 19 29  0.0010000  0  6 31 19 18 28 27 29
  23004876.538    -9687029.10049  -7537635.00649  23004877.5374   23004884.6984
  21332024.494   -17875808.78449 -13908077.63949  21332026.8914   21332033.5194
  20390591.881   -17346335.38249 -13503651.28549  20390594.0824   20390599.6534
  23461625.370    -6692724.358 9  -5200524.455 9  23461627.182    23461633.887
  23607327.369    -5901137.44249  -4577685.17049  23607328.8194   23607334.5254
  21564018.790     1038656.93449    814954.72649  21564021.2424   21564027.0514
 96  2 10 19 29 30.0010000  0  6 31 19 18 28 27 29
  22992065.553    -9754346.45549  -7590090.03549  22992067.2284   22992074.7044
  21325586.150   -17909645.60249 -13934443.97649  21325587.9344   21325594.6414
  20390634.849   -17346107.97249 -13503474.08449  20390637.2454   20390642.9624
  23459140.304    -6705774.304 9  -5210693.212 9  23459143.733    23459150.316
  23594042.190    -5970948.61649  -4632083.37149  23594045.8274   23594054.2084
  21575527.459     1099138.25649    862083.00349  21575530.3564   21575536.3624
 96  2 10 19 30  0.0010000  0  6 31 19 18 28 27 29
  22979321.594    -9821317.40149  -7642275.15149  22979323.4504   22979330.5824
  21319184.047   -17943281.48549 -13960653.74149  21319187.3264   21319194.0144
  20390767.431   -17345410.57749 -13502930.66649  20390770.0014   20390775.8524
  23456760.601    -6718297.371 9  -5220451.427 9  23456760.655    23456767.440
  23580769.219    -6040703.99849  -4686438.19549  23580773.8854   23580780.8294
  21587114.050     1160027.73049    909529.31949  21587117.4194   21587123.4444
 96  2 10 19 30 30.0010000  0  6 31 19 18 28 27 29
  22966644.944    -9887933.23249  -7694183.54149  22966646.6294   22966653.5694
  21312823.588   -17976705.39249 -13986698.33649  21312827.0714   21312833.6604
  20390994.237   -17344222.77549 -13502005.12049  20390996.2184   20391002.1274
  23454472.393    -6730291.033 9  -5229797.118 9  23454478.025    23454485.145
  23567504.706    -6110392.98849  -4740741.24049  23567508.7864   23567517.0824
  21598777.593     1221317.56249    957287.60049  21598780.2494   21598786.3214
 96  2 10 19 31  0.0010000  0  6 31 19 18 28 27 29
  22954035.769    -9954181.64249  -7745805.61649  22954039.7104   22954046.9524
  21306505.326   -18009912.36549 -14012573.89049  21306507.9954   21306514.5134
  20391316.462   -17342525.08049 -13500682.24449  20391319.2104   20391324.7744
  23452292.774    -6741755.533 9  -5238730.486 9  23452296.547    23452303.530
  23554258.248    -6180010.99149  -4794988.96049  23554261.2634   23554269.8364
  21610513.739     1282992.84749   1005346.23849  21610516.9304   21610522.8784
 96  2 10 19 31 30.0010000  0  6 31 19 18 28 27 29
  22941497.424   -10020075.09049  -7797151.10349  22941500.3064   22941507.7114
  21300225.208   -18042906.77749 -14038283.80849  21300229.2684   21300235.8484
  20391735.930   -17340321.59149 -13498965.25049  20391738.6144   20391744.4264
  23450210.602    -6752696.184 9  -5247255.661 9  23450214.883    23450221.624
  23541029.611    -6249532.88249  -4849161.85549  23541031.0524   23541041.3024
  21622320.858     1345035.30949   1053690.98149  21622323.0274   21622329.1774
 96  2 10 19 32  0.0010000  0  6 31 19 18 28 27 29
  22929029.682   -10085606.03549  -7848214.12649  22929030.4814   22929037.6834
  21293987.940   -18075688.31849 -14063827.85749  21293991.0864   21293997.7694
  20392251.620   -17337612.30749 -13496854.12449  20392253.9934   20392259.7844
  23448231.537    -6763107.675 9  -5255368.497 9  23448233.537    23448240.339
  23527822.614    -6318940.89149  -4903245.99049  23527824.8454   23527829.6484
  21634195.743     1407444.98849   1102321.87349  21634199.3224   21634205.1734
 96  2 10 19 32 30.0010000  0  6 31 19 18 28 27 29
  22916625.791   -10150779.26249  -7898998.40349  22916628.1624   22916635.5044
  21287789.624   -18108262.06749 -14089209.99149  21287792.6034   21287799.4354
  20392864.246   -17334392.64149 -13494345.29849  20392866.7774   20392872.5854
  23446350.582    -6772981.274 9  -5263062.219 9  23446354.702    23446361.583
  23514637.448    -6388235.36149  -4957241.58349  23514638.9424   23514647.8244
  21646146.200     1470242.51449   1151254.98849  21646149.3454   21646155.0954
 96  2 10 19 33  0.0010000  0  6 31 19 18 28 27 29
  22904290.462   -10215605.29149  -7949512.13749  22904292.7744   22904299.9674
  21281629.589   -18140634.62249 -14114435.34049  21281632.1734   21281638.7604
  20393569.660   -17330686.10849 -13491457.09449  20393571.8074   20393578.0254
  23444574.673    -6782319.290 9  -5270338.591 9  23444577.940    23444584.420
  23501469.251    -6457424.71749  -5011155.34949  23501473.8474   23501480.5534
  21658170.981     1533433.29849   1200494.54149  21658174.2354   21658180.0884
 96  2 10 19 33 30.0010000  0  6 31 19 18 28 27 29
  22892020.450   -10280080.71849  -7999752.68349  22892022.8044   22892029.8014
  21275506.988   -18172807.79349 -14139505.33149  21275509.9804   21275516.5544
  20394365.586   -17326502.22949 -13488196.93849  20394368.1104   20394374.1434
  23442901.039    -6791115.641 9  -5277192.905 9  23442904.205    23442910.499
  23488321.330    -6526511.05449  -5064988.80449  23488326.0684   23488330.4434
  21670274.757     1597037.26949   1250056.05249  21670277.5194   21670283.3654
 96  2 10 19 34  0.0010000  0  6 31 19 18 28 27 29
  22879818.731   -10344200.93449  -8049716.43249  22879821.7374   22879828.8474
  21269419.356   -18204802.41749 -14164436.20249  21269421.5674   21269428.0714
  20395249.057   -17321860.89249 -13484580.32249  20395251.4454   20395257.3204
  23441332.055    -6799376.588 9  -5283630.014 9  23441332.084    23441338.703
  23475189.640    -6595521.66549  -5118763.22049  23475194.2764   23475199.1184
  21682457.714     1661056.62249   1299941.24249  21682460.0564   21682465.8174
 96  2 10 19 34 30.0010000  0  7 31 19 18  2 28 27 29
  22867690.817   -10407944.21849  -8099386.47249  22867691.1134   22867699.0514
  21263364.105   -18236612.40849 -14189223.19449  21263368.2074   21263374.8924
  20396221.297   -17316752.66849 -13480599.89849  20396223.4684   20396229.3954
  25270883.051    -1714822.13759  -1318969.15359  25270887.0894   25270897.3954
  23439864.168    -6807093.615 9  -5289643.301 9  23439863.792    23439870.091
  23462069.379    -6664455.30249  -5172477.71349  23462073.1564   23462085.5724
  21694718.074     1725484.78349   1350144.97849  21694720.4504   21694726.1994
 96  2 10 19 35  0.0010000  0  7 31 19 18  2 28 27 29
  22855636.578   -10471290.08849  -8148746.84849  22855636.7164   22855644.0654
  21257347.316   -18268241.81949 -14213869.48149  21257349.6214   21257356.0094
  20397281.305   -17311185.42549 -13476261.79549  20397283.0794   20397288.7924
  25253251.487    -1807469.16349  -1391161.52149  25253253.8014   25253267.2364
  23438494.607    -6814273.539 9  -5295238.052 9  23438496.957    23438503.931
  23448966.998    -6733320.16349  -5226138.59749  23448970.5634   23448976.5874
  21707051.553     1790296.50249   1400647.59449  21707053.8194   21707059.4644
 96  2 10 19 35 30.0010000  0  7 31 19 18  2 28 27 29
  22843659.110   -10534220.94649  -8197783.83249  22843661.4424   22843669.1214
  21251362.633   -18299691.81249 -14238375.96049  21251364.6004   21251370.7824
  20398431.444   -17305136.89649 -13471548.66949  20398433.9234   20398439.6274
  25235645.440    -1899999.00249  -1463262.62449  25235648.3834   25235660.5534
  23437230.491    -6820911.651 9  -5300410.611 9  23437233.817    23437240.767
  23435877.324    -6802106.33349  -5279738.14849  23435877.3494   23435886.3734
  21719455.330     1855482.15449   1451441.59249  21719458.2584   21719463.7904
 96  2 10 19 36  0.0010000  0  7 31 19 18  2 28 27 29
  22831759.534   -10596747.66649  -8246505.90649  22831763.3424   22831770.1214
  21245410.334   -18330967.67249 -14262746.74849  21245412.9574   21245419.4224
  20399676.534   -17298597.89149 -13466453.35149  20399678.6344   20399684.0874
  25218060.447    -1992415.79349  -1535275.59849  25218063.4724   25218073.7744
  23436068.473    -6827013.845 9  -5305165.581 9  23436072.854    23436079.499
  23422800.517    -6870822.17549  -5333282.92849  23422805.0074   23422813.7334
  21731927.915     1921023.44249   1502512.70449  21731930.1464   21731935.8514
 96  2 10 19 36 30.0010000  0  7 31 19 18  2 28 27 29
  22819937.626   -10658876.23349  -8294917.72849  22819940.2144   22819947.1644
  21239494.234   -18362053.31849 -14286969.30949  21239497.5894   21239504.2064
  20401017.633   -17291548.90849 -13460960.64849  20401019.9174   20401025.6024
  25200492.813    -2084723.41549  -1607203.55049  25200496.4074   25200507.7974
  23435012.817    -6832580.298 9  -5309503.089 9  23435013.427    23435020.182
  23409741.044    -6939461.84149  -5386768.34149  23409742.9954   23409749.8394
  21744465.622     1986913.17349   1553855.32949  21744468.7534   21744474.5204
 96  2 10 19 37  0.0010000  0  7 31 19 18  2 28 27 29
  22808187.376   -10720625.31949  -8343033.86149  22808189.8794   22808197.1394
  21233616.489   -18392939.26449 -14311036.26649  21233620.1054   21233626.8854
  20402455.594   -17283989.05549 -13455069.86149  20402458.2514   20402464.1884
  25182948.170    -2176917.41449  -1679042.92549  25182948.8034   25182963.5524
  23434053.840    -6837618.694 9  -5313429.134 9  23434055.245    23434061.459
  23396691.508    -7008023.90149  -5440193.26349  23396695.4174   23396702.1494
  21757073.020     2053165.17749   1605480.24649  21757075.8124   21757081.9134
 96  2 10 19 37 30.0010000  0  7 31 19 18  2 28 27 29
  22796511.980   -10781987.26049  -8390848.32749  22796512.7554   22796519.8724
  21227782.832   -18423599.62249 -14334927.44849  21227785.6684   21227792.2764
  20403995.349   -17275900.21949 -13448766.88249  20403997.4014   20404003.4194
  25165431.483    -2268975.61849  -1750776.44249  25165433.8484   25165445.9784
  23433198.379    -6842111.481 9  -5316930.020 9  23433199.829    23433206.470
  23383663.222    -7076491.72549  -5493544.76549  23383667.0834   23383675.6014
  21769754.938     2119805.76549   1657407.95749  21769757.3874   21769763.4124
 96  2 10 19 38  0.0010000  0  7 31 19 18  2 28 27 29
  22784904.975   -10842977.22349  -8438372.92949  22784907.1244   22784913.9504
  21221990.384   -18454042.55249 -14358649.20549  21221992.8444   21221999.1854
  20405630.074   -17267307.92649 -13442071.59949  20405632.6214   20405638.4354
  25147935.197    -2360925.06649  -1822425.26649  25147938.5144   25147948.1424
  23432447.236    -6846068.855 9  -5320013.690 9  23432446.805    23432453.537
  23370650.292    -7144883.64149  -5546837.13449  23370653.5624   23370661.2274
  21782510.564     2186835.73049   1709639.07549  21782512.8074   21782518.8834
 96  2 10 19 38 30.0010000  0  7 31 19 18  2 28 27 29
  22773374.402   -10903574.56349  -8485591.59849  22773376.1674   22773382.9884
  21216241.703   -18484248.94149 -14382186.64949  21216244.4234   21216250.8994
  20407358.302   -17258227.47449 -13434995.93449  20407360.4564   20407366.6784
  25130459.908    -2452760.36549  -1893985.23249  25130457.8134   25130470.9714
  23431793.791    -6849482.329 9  -5322673.539 9  23431797.047    23431803.936
  23357652.173    -7213191.01149  -5600063.63049  23357656.9134   23357659.2784
  21795340.260     2254262.09149   1762179.07249  21795343.6894   21795349.7044
 96  2 10 19 39  0.0010000  0  7 31 19 18  2 28 27 29
  22761918.000   -10963771.85549  -8532498.53749  22761921.1224   22761927.8084
  21210535.841   -18514234.79549 -14405552.24249  21210538.3564   21210544.8664
  20409174.946   -17248678.61149 -13427555.27149  20409177.8044   20409183.5964
  25113002.171    -2544475.87849  -1965451.71249  25113006.5584   25113018.0874
  23431248.346    -6852354.433 9  -5324911.541 9  23431250.775    23431257.312
  23344666.011    -7281420.23649  -5653229.18149  23344670.3064   23344676.4394
  21808247.865     2322086.72549   1815029.41349  21808250.1834   21808256.3634
 96  2 10 19 39 30.0010000  0  7 31 19 18  2 28 27 29
  22750545.323   -11023540.10149  -8579071.15849  22750547.2634   22750554.1234
  21204869.915   -18544006.52449 -14428750.98849  21204873.1974   21204879.4894
  20411084.710   -17238646.50449 -13419738.05449  20411086.8664   20411092.7384
  25095579.693    -2636060.93849  -2036816.66549  25095581.5514   25095592.8994
  23430809.125    -6854663.905 9  -5326711.147 9  23430811.276    23430817.830
  23331702.648    -7349552.38949  -5706319.13549  23331705.7194   23331714.5714
  21821230.899     2390316.31449   1868195.30249  21821233.9264   21821239.8374
 96  2 10 19 40  0.0010000  0  7 31 19 18  2 28 27 29
  22739250.183   -11082892.19449  -8625319.48949  22739252.3184   22739259.8334
  21199242.306   -18573582.68549 -14451797.34549  21199244.9794   21199251.3534
  20413084.319   -17228137.33449 -13411549.10449  20413086.6534   20413092.6114
  25078172.890    -2727513.10149  -2108078.00349  25078175.7114   25078188.9974
  23430473.338    -6856418.638 9  -5328078.463 9  23430477.043    23430483.738
  23318752.079    -7417592.02649  -5759336.99849  23318756.1554   23318764.7654
  21834287.730     2458929.79949   1921660.32749  21834290.6134   21834296.5234
 96  2 10 19 40 30.0010000  0  7 31 19 18  2 28 27 29
  22728030.653   -11141843.57849  -8671255.61249  22728034.7064   22728041.6794
  21193645.829   -18602984.61049 -14474707.92649  21193649.5754   21193656.1734
  20415173.138   -17217157.74649 -13402993.59449  20415176.1294   20415181.9584
  25060795.376    -2818842.70749  -2179243.81149  25060798.0764   25060808.9934
  23430243.889    -6857635.559 9  -5329026.724 9  23430245.878    23430252.305
  23305825.086    -7485548.58749  -5812290.13349  23305825.8104   23305831.7314
  21847411.518     2527897.39049   1975401.27949  21847414.6914   21847420.5624
 96  2 10 19 41  0.0010000  0  7 31 19 18  2 28 27 29
  22716891.016   -11200393.68449  -8716879.03649  22716892.7154   22716899.6064
  21188081.728   -18632227.47349 -14497494.56149  21188085.2604   21188092.0024
  20417358.206   -17205678.23449 -13394048.53249  20417360.3804   20417366.3274
  25043442.481    -2910040.31349  -2250306.85449  25043443.4714   25043453.3654
  23430116.771    -6858309.496 9  -5329551.876 9  23430117.761    23430124.079
  23292907.896    -7553420.49249  -5865177.26349  23292910.0384   23292919.1204
  21860604.597     2597227.87649   2029425.00249  21860607.5464   21860613.6794
 96  2 10 19 41 30.0010000  0  7 31 19 18  2 28 27 29
  22705825.312   -11258538.03849  -8762186.28849  22705828.6914   22705834.7954
  21182550.357   -18661298.11349 -14520147.00449  21182553.2234   21182559.6524
  20419640.960   -17193680.87549 -13384699.95249  20419643.2474   20419649.2824
  25026111.868    -3001110.74549  -2321270.72249  25026112.8364   25026121.6764
  23430091.230    -6858435.456 9  -5329650.022 9  23430093.569    23430100.274
  23280009.478    -7621202.38049  -5917994.30349  23280012.2394   23280019.8214
  21873865.797     2666915.78449   2083727.23149  21873868.9694   21873875.1564
 96  2 10 19 42  0.0010000  0  7 31 19 18  2 28 27 29
  22694838.320   -11316272.18149  -8807173.89749  22694841.7214   22694847.9964
  21177054.384   -18690182.96449 -14542654.67349  21177056.4014   21177062.9654
  20422020.897   -17181173.45749 -13374953.92549  20422023.3794   20422029.4924
  25008803.353    -3092052.64949  -2392134.60749  25008806.8054   25008814.2424
  23430173.227    -6858017.391 9  -5329324.258 9  23430173.077    23430179.783
  23267125.542    -7688910.10449  -5970753.53549  23267128.8024   23267133.8924
  21887196.935     2736965.26949   2138311.20849  21887198.9524   21887205.0784
 96  2 10 19 42 30.0010000  0  7 31 19 18  2 28 27 29
  22683934.531   -11373586.04649  -8851834.02549  22683935.3274   22683942.4474
  21171592.816   -18718880.55649 -14565016.42749  21171595.8784   21171602.1704
  20424497.193   -17168156.99949 -13364811.24749  20424500.2444   20424506.2374
  24991520.690    -3182877.10749  -2462906.83749  24991523.1394   24991533.5504
  23430353.783    -6857056.852 9  -5328575.791 9  23430355.942    23430362.430
  23254253.269    -7756551.72849  -6023461.25449  23254254.7564   23254260.9894
  21900596.811     2807387.11249   2193185.33649  21900599.7644   21900605.8934
 96  2 10 19 43  0.0010000  0  7 31 19 18  2 28 27 29
  22673108.880   -11430460.33749  -8896151.62449  22673112.6234   22673119.6034
  21166171.838   -18747367.97049 -14587214.40849  21166174.3544   21166180.8254
  20427072.482   -17154627.15349 -13354268.52649  20427074.9264   20427081.0864
  24974264.224    -3273566.16049  -2533573.61249  24974266.8084   24974278.6164
  23430640.716    -6855542.889 9  -5327396.076 9  23430643.865    23430650.557
  23241396.377    -7824113.25149  -6076106.52749  23241397.8774   23241404.9154
  21914072.936     2878201.77449   2248365.54749  21914075.3854   21914081.6014
 96  2 10 19 43 30.0010000  0  7 31 19 18  2 28 27 29
  22662371.165   -11486902.95949  -8940132.85449  22662371.4844   22662378.9834
  21160791.540   -18775640.27049 -14609244.76649  21160794.6444   21160801.1124
  20429739.059   -17140613.14449 -13343348.52849  20429741.9194   20429748.0594
  24957027.132    -3364136.37749  -2604147.67849  24957028.4954   24957044.3514
  23431034.821    -6853485.015 9  -5325792.539 9  23431035.819    23431042.098
  23228555.038    -7891593.64249  -6128688.61549  23228557.1194   23228567.4904
  21927620.902     2949396.19949   2303841.67849  21927623.4904   21927629.4854
 96  2 10 19 44  0.0010000  0  7 31 19 18  2 28 27 29
  22651711.222   -11542906.39549  -8983771.87049  22651714.4744   22651721.1764
  21155454.665   -18803692.26949 -14631103.46349  21155456.3824   21155462.8884
  20432497.471   -17126118.71849 -13332054.18349  20432500.2164   20432506.2494
  24939822.397    -3454566.07549  -2674612.30349  24939822.4764   24939831.8884
  23431530.044    -6850871.485 9  -5323756.020 9  23431532.729    23431539.613
  23215729.463    -7958988.33349  -6181203.94949  23215732.5114   23215739.5454
  21941242.711     3020981.12349   2359622.09649  21941245.3654   21941251.7224
 96  2 10 19 44 30.0010000  0  7 31 19 18  2 28 27 29
  22641137.996   -11598480.12649  -9027076.05349  22641139.7534   22641146.1974
  21150156.717   -18831530.11149 -14652795.28249  21150158.9794   21150165.4614
  20435346.891   -17111144.41749 -13320385.90949  20435349.6934   20435355.4214
  24922638.135    -3544854.22749  -2744966.69949  24922640.7794   24922646.1234
  23432133.192    -6847706.697 9  -5321289.948 9  23432135.044    23432141.797
  23202919.500    -8026300.68249  -6233655.06249  23202921.9074   23202931.9904
  21954936.493     3092944.10149   2415697.09949  21954939.5824   21954945.7864
 96  2 10 19 45  0.0010000  0  7 31 19 18  2 28 27 29
  22630641.007   -11653628.56449  -9070048.84449  22630644.7974   22630652.0634
  21144898.050   -18859160.91849 -14674325.76949  21144900.9594   21144907.4804
  20438286.252   -17095699.04149 -13308350.55749  20438288.8684   20438294.7344
  24905486.526    -3634994.35849  -2815205.82749  24905488.1734   24905498.4504
  23432839.590    -6843990.991 9  -5318394.594 9  23432842.133    23432848.994
  23190128.847    -8093529.45549  -6286041.07149  23190130.4024   23190138.5674
  21968700.108     3165272.20549   2472056.61449  21968703.3754   21968709.6544
 96  2 10 19 45 30.0010000  0  7 31 19 18  2 28 27 29
  22620228.644   -11708348.88949  -9112688.03949  22620231.7984   22620238.1774
  21139676.722   -18886598.24149 -14695705.49749  21139679.8054   21139686.1564
  20441317.388   -17079771.16549 -13295939.23149  20441319.6244   20441325.6304
  24888364.506    -3724986.74959  -2885329.69759  24888365.9224   24888374.4034
  23433651.808    -6839722.435 9  -5315068.440 9  23433654.385    23433661.070
  23177350.128    -8160690.23749  -6338374.15749  23177350.5104   23177359.8704
  21982532.485     3237958.37749   2528695.14349  21982535.2024   21982541.2644
 96  2 10 19 46  0.0010000  0  7 31 19 18  2 28 27 29
  22609901.336   -11762623.27649  -9154979.74349  22609904.1784   22609910.0594
  21134493.009   -18913844.40249 -14716936.27349  21134495.1034   21134501.3614
  20444446.095   -17063335.45149 -13283132.18949  20444447.5494   20444453.0864
  24871265.543    -3814814.31259  -2955325.08049  24871266.9694   24871283.3724
  23434572.613    -6834894.007 9  -5311306.019 9  23434573.402    23434579.745
  23164579.467    -8227783.25349  -6390654.37649  23164580.8214   23164591.2154
  21996433.721     3311009.02649   2585617.68149  21996436.1024   21996442.3894
 96  2 10 19 46 30.0010000  0  7 31 19 18  2 28 27 29
  22599657.019   -11816453.78449  -9196925.58749  22599660.1454   22599666.7254
  21129344.191   -18940900.05149 -14738018.59349  21129346.4774   21129353.1564
  20447671.179   -17046385.63849 -13269924.55249  20447672.9884   20447678.8914
  24854204.548    -3904498.04449  -3025208.54759  24854205.9584   24854207.4634
  23435592.897    -6829512.455 9  -5307112.589 9  23435597.397    23435603.889
  23151826.118    -8294792.94449  -6442869.65549  23151828.5114   23151839.8114
  22010402.126     3384419.83849   2642820.86749  22010405.6784   22010412.0244
 96  2 10 19 47  0.0010000  0  7 31 19 18  2 28 27 29
  22589504.172   -11869824.18249  -9238512.89249  22589503.5014   22589510.1974
  21124233.891   -18967752.73649 -14758942.75149  21124236.6644   21124243.2304
  20450997.127   -17028904.70549 -13256303.05649  20450999.3794   20451005.2244
  24837163.663    -3994044.43949  -3094984.92549  24837167.3824   24837175.7254
  23436725.541    -6823569.995 9  -5302482.093 9  23436727.953    23436734.533
  23139097.222    -8361693.21349  -6494999.70949  23139100.4754   23139108.1284
  22024441.666     3458194.32549   2700307.42849  22024444.8634   22024451.3444
 96  2 10 19 47 30.0010000  0  7 31 19 18  2 28 27 29
  22579431.243   -11922742.72949  -9279748.10449  22579434.1914   22579441.0194
  21119162.830   -18994402.18349 -14779708.54849  21119165.5444   21119171.8094
  20454424.576   -17010891.53249 -13242266.82449  20454427.1044   20454433.2114
  24820142.624    -4083475.05549  -3164670.93649  24820144.8664   24820157.7294
  23437960.793    -6817076.533 9  -5297422.245 9  23437963.627    23437970.464
  23126383.257    -8428487.72149  -6547047.30749  23126389.1594   23126397.2704
  22038549.001     3532326.06149   2758072.37049  22038551.4904   22038557.6384
 96  2 10 19 48  0.0010000  0  7 31 19 18  2 28 27 29
  22569447.693   -11975204.94749  -9320627.72649  22569450.9604   22569457.5634
  21114134.804   -19020823.71249 -14800296.74949  21114137.8104   21114144.0994
  20457953.097   -16992346.75049 -13227816.35349  20457956.1414   20457962.2264
  24803151.410    -4172785.83449  -3234263.74349  24803154.8204   24803159.1724
  23439303.885    -6810022.720 9  -5291925.759 9  23439305.923    23439312.680
  23113700.638    -8495147.10449  -6598989.67549  23113705.8914   23113712.8394
  22052726.412     3606826.01649   2816124.23949  22052728.2564   22052734.8554
 96  2 10 19 48 30.0010000  0  7 31 19 18  2 28 27 29
  22559553.682   -12027204.27649  -9361146.64849  22559555.8304   22559562.5994
  21109154.081   -19047000.49149 -14820694.23549  21109156.3054   21109163.1454
  20461585.250   -16973262.71849 -13212945.69249  20461587.8994   20461593.9634
  24786174.931    -4261964.66349  -3303753.76049  24786182.1794   24786190.7464
  23440754.673    -6802397.372 9  -5285983.915 9  23440756.924    23440763.894
  23101045.177    -8561659.84049  -6650817.76149  23101048.8044   23101055.9524
  22066974.339     3681704.30749   2874470.90649  22066977.4294   22066983.7654
 96  2 10 19 49  0.0010000  0  7 31 19 18  2 28 27 29
  22549739.528   -12078762.63249  -9401321.95749  22549744.0474   22549751.1214
  21104214.596   -19072958.99049 -14840921.63849  21104216.7254   21104223.1824
  20465314.189   -16953669.45549 -13197678.22149  20465315.9294   20465322.3984
  24769231.106    -4351016.78549  -3373144.96249  24769232.3374   24769245.5794
  23442309.331    -6794224.814 9  -5279615.680 9  23442312.049    23442318.725
  23088407.562    -8628073.06649  -6702568.27649  23088409.0894   23088416.4214
  22081290.906     3756933.86049   2933091.28849  22081292.8994   22081299.2864
 96  2 10 19 49 30.0010000  0  7 31 19 18  2 28 27 29
  22540020.163   -12129869.19649  -9441145.22049  22540018.9164   22540025.8364
  21099315.750   -19098702.90849 -14860981.83649  21099317.8484   21099324.1314
  20469138.556   -16933570.27849 -13182016.53849  20469141.0314   20469147.1024
  24752318.085    -4439907.56149  -3442410.44249  24752318.7524   24752325.3334
  23443971.178    -6785491.987 9  -5272810.871 9  23443974.033    23443980.470
  23075789.512    -8694389.23749  -6754243.17849  23075790.2754   23075797.3434
  22095674.360     3832524.10549   2991992.72649  22095677.3944   22095683.5554
 96  2 10 19 50  0.0010000  0  7 31 19 18  2 28 27 29
  22530378.853   -12180513.79249  -9480608.49549  22530381.5374   22530388.4584
  21094454.302   -19124243.09449 -14880883.28349  21094457.5234   21094463.8964
  20473059.198   -16912966.05749 -13165961.30749  20473061.7374   20473067.9294
  24735433.857    -4528620.98049  -3511537.71249  24735437.5224   24735449.4044
  23445740.164    -6776198.319 9  -5265569.046 9  23445742.686    23445748.772
  23063186.015    -8760615.75449  -6805848.24049  23063187.3204   23063195.7984
  22110126.851     3908471.81649   3051172.71249  22110129.5834   22110135.7884
 96  2 10 19 50 30.0010000  0  7 31 19 18  2 28 27 29
  22520830.159   -12230705.43549  -9519718.82649  22520830.6674   22520837.2304
  21089627.576   -19149613.65749 -14900652.55549  21089629.7594   21089636.0364
  20477073.620   -16891868.43949 -13149521.61749  20477076.5004   20477082.5024
  24718586.396    -4617169.40949  -3580536.52549  24718588.2314   24718598.0564
  23447612.841    -6766360.510 9  -5257903.210 9  23447614.395    23447621.105
  23050590.411    -8826784.81149  -6857408.47949  23050595.1484   23050604.5234
  22124643.478     3984754.83649   3110613.97949  22124646.0874   22124652.1704
 96  2 10 19 51  0.0010000  0  7 31 19 18  2 28 27 29
  22511365.718   -12280440.31649  -9558473.22349  22511366.8064   22511373.7784
  21084830.889   -19174818.84449 -14920292.95949  21084833.3424   21084839.5774
  20481182.614   -16870278.92049 -13132698.62949  20481184.9584   20481190.9074
  24701766.911    -4705546.18649  -3649401.41449  24701768.6744   24701777.8704
  23449589.025    -6755972.764 9  -5249808.853 9  23449590.993    23449597.598
  23038011.396    -8892897.66549  -6908924.98449  23038015.1684   23038023.2134
  22139221.808     4061367.54649   3170312.14649  22139225.0224   22139231.0774
 96  2 10 19 51 30.0010000  0  7 31 19 18  2 28 27 29
  22501989.022   -12329706.70149  -9596862.57149  22501991.1784   22501997.8514
  21080064.694   -19199859.68849 -14939805.30449  21080068.0984   21080074.5404
  20485386.346   -16848187.28049 -13115484.37849  20485389.0004   20485395.2124
  24684984.221    -4793744.48049  -3718127.37949  24684988.3374   24684996.5794
  23451672.743    -6745025.513 9  -5241278.533 9  23451674.263    23451680.936
  23025442.487    -8958936.78149  -6960383.98249  23025447.4804   23025456.8074
  22153867.430     4138327.92749   3230281.22849  22153870.4334   22153876.5154
 96  2 10 19 52  0.0010000  0  7 31 19 18  2 28 27 29
  22492701.909   -12378503.73149  -9634886.17549  22492705.6404   22492711.8124
  21075335.700   -19224712.46849 -14959171.11249  21075338.9754   21075345.2644
  20489689.338   -16825574.93249 -13097864.38449  20489691.9704   20489697.7624
  24668233.666    -4881768.82149  -3786717.71749  24668233.5974   24668242.9804
  23453864.793    -6733510.863 9  -5232306.083 9  23453865.408    23453872.017
  23012893.477    -9024897.43849  -7011781.88049  23012897.0264   23012904.7844
  22168582.384     4215656.47049   3290537.19249  22168585.4044   22168591.5204
 96  2 10 19 52 30.0010000  0  7 31 19 18  2 28 27 29
  22483505.803   -12426829.51249  -9672542.57949  22483509.1074   22483516.0844
  21070645.280   -19249364.40949 -14978380.42049  21070647.8614   21070654.3734
  20494091.111   -16802444.35649 -13079840.57949  20494093.3114   20494099.3404
  24651516.523    -4969619.40449  -3855172.67049  24651517.5364   24651525.8544
  23456163.355    -6721427.363 9  -5222890.385 9  23456165.398    23456171.414
  23000357.829    -9090782.53249  -7063120.90849  23000360.4684   23000367.8354
  22183369.438     4293359.78249   3351085.18849  22183371.9194   22183378.4154
 96  2 10 19 53  0.0010000  0  7 31 19 18  2 28 27 29
  22474402.449   -12474685.72249  -9709833.07349  22474402.9084   22474409.4774
  21065991.804   -19273815.15149 -14997432.95349  21065994.9984   21066001.3834
  20498586.641   -16778818.46949 -13061430.81849  20498589.3224   20498595.2484
  24634829.110    -5057303.70949  -3923498.06949  24634832.5234   24634841.0444
  23458570.449    -6708787.624 9  -5213041.253 9  23458570.705    23458576.868
  22987831.142    -9156595.77849  -7114403.91649  22987835.2114   22987843.3634
  22198224.837     4371432.20649   3411920.80149  22198228.7984   22198234.8884
 96  2 10 19 53 30.0010000  0  7 31 19 18  2 28 27 29
  22465388.690   -12522050.77749  -9746740.86049  22465389.3154   22465395.7674
  21061380.545   -19298052.09949 -15016318.89249  21061383.1224   21061389.2534
  20503178.880   -16754686.62349 -13042626.80549  20503181.4554   20503187.4294
  24618174.891    -5144828.77349  -3991699.36049  24618176.7234   24618187.4774
  23461081.339    -6695591.062 9  -5202758.238 9  23461081.725    23461088.057
  22975325.621    -9222330.94049  -7165626.09849  22975326.7574   22975334.6584
  22213155.016     4449889.17349   3473056.06249  22213158.2404   22213164.9554
 96  2 10 19 54  0.0010000  0  7 31 19 18  2 28 27 29
  22456471.572   -12568903.71649  -9783249.59049  22456473.3534   22456480.2954
  21056812.571   -19322055.55849 -15035022.89549  21056815.3004   21056821.6964
  20507867.430   -16730048.86249 -13023428.57049  20507869.6084   20507875.9834
  24601548.779    -5232197.55049  -4059778.83349  24601551.0124   24601563.2664
  23463695.665    -6681834.034 9  -5192038.501 9  23463699.258    23463705.997
  22962829.925    -9287987.90049  -7216787.30749  22962830.6564   22962839.2994
  22228156.929     4528717.33149   3534480.56649  22228158.7644   22228165.4434
 96  2 10 19 54 30.0010000  0  7 31 19 18  2 28 27 29
  22447665.152   -12615175.56449  -9819305.53849  22447667.9304   22447674.9384
  21052295.717   -19345785.61749 -15053513.86649  21052299.3414   21052305.9664
  20512660.850   -16704859.19549 -13003800.28549  20512663.2534   20512669.4244
  24584964.055    -5319351.55149  -4127691.08749  24584967.0014   24584978.5074
  23466431.956    -6667466.617 9  -5180843.152 9  23466433.671    23466440.094
  22950357.764    -9353510.93949  -7267844.21349  22950362.6384   22950370.9304
  22243235.604     4607954.40549   3596223.69549  22243237.1834   22243243.5294
 96  2 10 19 55  0.0010000  0  7 31 19 18  2 28 27 29
  22438959.851   -12660918.60949  -9854949.43849  22438964.0654   22438970.5164
  21047822.812   -19369299.63049 -15071836.49649  21047825.1494   21047831.3784
  20517548.659   -16679176.82449 -12983788.08149  20517550.4314   20517556.7244
  24568409.949    -5406347.61349  -4195480.10549  24568414.6404   24568422.0194
  23469273.536    -6652541.416 9  -5169213.172 9  23469274.009    23469280.315
  22937910.266    -9418942.79449  -7318830.06749  22937912.5554   22937918.6304
  22258377.433     4687536.93349   3658236.01249  22258381.5434   22258387.6934
 96  2 10 19 55 30.0010000  0  7 31 19 18  2 28 27 29
  22430330.599   -12706271.14849  -9890289.04249  22430333.3824   22430340.0304
  21043366.095   -19392717.12349 -15090083.89849  21043368.7584   21043375.1224
  20522507.287   -16653112.22549 -12963478.01749  20522510.2624   20522516.5084
  24551859.367    -5493313.94749  -4263246.05549  24551859.9914   24551871.9074
  23472193.145    -6637176.842 9  -5157240.805 9  23472197.673    23472204.236
  22925454.965    -9484399.28249  -7369835.10249  22925456.4404   22925461.9884
  22273565.316     4767344.76649   3720423.89949  22273568.4124   22273575.0184
 96  2 10 19 56  0.0010000  0  7 31 19 18  2 28 27 29
  22421786.261   -12751175.93049  -9925279.74749  22421788.1724   22421795.1154
  21038940.951   -19415967.63849 -15108201.18249  21038944.3544   21038950.6944
  20527552.565   -16626604.01649 -12942822.29149  20527554.9414   20527560.9074
  24535330.100    -5580164.82949  -4330922.02649  24535333.3644   24535343.0854
  23475218.658    -6621293.574 9  -5144864.270 9  23475219.989    23475226.447
  22913008.472    -9549790.32549  -7420789.12349  22913012.5734   22913018.8784
  22288809.546     4847451.41949   3782844.63249  22288812.1814   22288818.8024
 96  2 10 19 56 30.0010000  0  7 31 19 18  2 28 27 29
  22413331.352   -12795596.03649  -9959892.78449  22413335.4244   22413342.0604
  21034556.799   -19439005.44049 -15126152.72149  21034560.3084   21034566.8584
  20532692.420   -16599592.16149 -12921774.11149  20532695.0564   20532701.2264
  24518841.750    -5666834.33349  -4398456.63349  24518841.3334   24518850.5904
  23478354.945    -6604833.757 9  -5132038.478 9  23478352.335    23478358.740
  22900594.169    -9615040.77349  -7471633.61049  22900595.7524   22900602.9774
  22304122.600     4927926.09449   3845552.13549  22304125.4984   22304132.2364
 96  2 10 19 57  0.0010000  0  8 31 19 18  2 28 16 27 29
  22404973.037   -12839528.74049  -9994126.03749  22404975.2794   22404981.6294
  21030217.667   -19461811.59849 -15143923.76349  21030220.5354   21030226.9374
  20537931.777   -16572061.20649 -12900321.44049  20537933.7484   20537940.0534
  24502383.732    -5753314.78349  -4465843.97549  24502383.6834   24502391.5734
  23481594.096    -6587789.241 9  -5118757.076 9  23481595.687    23481602.254
  24852180.523     -136143.30419    -96969.77759                  24852190.9134
  22888204.776    -9680132.78449  -7522354.63049  22888209.2074   22888216.0824
  22319508.127     5008780.15649   3908555.26249  22319511.9264   22319518.4614
 96  2 10 19 57 30.0010000  0  8 31 19 18  2 28 16 27 29
  22396705.438   -12882976.21649 -10027981.19449  22396707.9084   22396713.9014
  21025919.417   -19484398.16349 -15161523.68949  21025922.4534   21025928.9194
  20543270.463   -16544002.18749 -12878457.28949  20543273.5314   20543279.6344
  24485966.568    -5839594.43349  -4533074.77149  24485964.6074   24485976.7584
  23484950.726    -6570165.229 9  -5105024.121 9  23484949.606    23484956.027
  24840902.698     -195403.64859   -143146.66349  24840904.9104   24840913.6904
  22875849.495    -9745076.30849  -7572959.94149  22875850.0614   22875858.3064
  22334967.407     5090006.31749   3971848.33349  22334969.3114   22334975.4334
 96  2 10 19 58  0.0010000  0  8 31 19 18  2 28 16 27 29
  22388532.732   -12925920.30149 -10061444.10249  22388535.3744   22388541.8344
  21021661.338   -19506777.34749 -15178962.02149  21021663.9674   21021670.2504
  20548712.154   -16515408.59349 -12856176.58749  20548714.5644   20548720.6434
  24469587.731    -5925666.74349  -4600144.05949  24469586.1844   24469598.7624
  23488407.617    -6551969.140 9  -5090845.393 9  23488412.144    23488418.701
  24829710.462     -254227.29159   -188983.25359  24829711.4444   24829720.3694
  22863514.938    -9809890.92949  -7623464.81349  22863517.7724   22863523.8574
  22350488.502     5171580.71749   4035412.76049  22350492.2514   22350498.4424
 96  2 10 19 58 30.0010000  0  8 31 19 18  2 28 16 27 29
  22380456.120   -12968362.39949 -10094515.86449  22380459.3914   22380465.4564
  21017438.034   -19528966.71949 -15196252.44449  21017441.4964   21017447.8404
  20554256.684   -16486270.66149 -12833471.72949  20554259.3334   20554265.4704
  24453241.527    -6011550.86749  -4667066.66349  24453245.8024   24453256.4864
  23491977.915    -6533219.975 9  -5076235.691 9  23491980.025    23491986.633
  24818596.397     -312624.63449   -234487.65949  24818598.8464   24818607.5794
  22851196.627    -9874628.04949  -7673909.31449  22851198.7424   22851204.2674
  22366074.558     5253481.95949   4099231.86849  22366077.0404   22366083.4824
 96  2 10 19 59  0.0010000  0  8 31 19 18  2 28 16 27 29
  22372487.255   -13010253.15949 -10127158.01249  22372488.0264   22372493.7744
  21013258.265   -19550935.01949 -15213370.60349  21013260.8274   21013267.3374
  20559910.464   -16456561.70849 -12810321.91849  20559913.0694   20559919.0914
  24436936.548    -6097230.43849  -4733829.89249  24436940.3274   24436952.1004
  23495658.310    -6513894.742 9  -5061177.111 9  23495657.543    23495664.080
  24807571.868     -370564.53049   -279635.60249  24807573.8954   24807582.1354
  22838888.264    -9939294.92749  -7724299.04849  22838891.5864   22838899.4794
  22381724.818     5335723.94049   4163316.48449  22381727.5434   22381733.9824
 96  2 10 19 59 30.0010000  0  8 31 19 18  2 28 16 27 29
  22364617.581   -13051600.58749 -10159376.80449  22364619.7284   22364625.5874
  21009115.698   -19572705.47949 -15230334.60049  21009118.2094   21009124.5774
  20565669.629   -16426299.53549 -12786741.02949  20565671.7514   20565677.6594
  24420669.819    -6182727.89249  -4800451.25849  24420669.5814   24420676.4584
  23499440.666    -6494004.426 9  -5045678.192 9  23499442.916    23499449.326
  24796632.890     -428045.53049   -324425.97549  24796634.6874   24796643.2674
  22826588.874   -10003926.22549  -7774661.06049  22826593.1164   22826600.2994
  22397436.848     5418293.97449   4227656.72349  22397439.7524   22397446.8744
 96  2 10 20  0  0.0010000  0  8 31 19 18  2 28 16 27 29
  22356852.800   -13092402.47949 -10191170.49349  22356855.1334   22356861.2994
  21005009.543   -19594281.20349 -15247146.86049  21005012.3264   21005018.8494
  20571531.192   -16395493.13349 -12762736.06849  20571534.1744   20571540.0154
  24404429.418    -6268063.28949  -4866946.30449  24404430.5624   24404437.5584
  23503329.883    -6473553.978 9  -5029742.816 9  23503334.204    23503340.927
  24785783.259     -485060.35749   -368853.12849  24785784.9864   24785793.8184
  22814297.517   -10068525.07349  -7824997.81349  22814301.6364   22814307.5424
  22413212.393     5501203.28349   4292261.33149  22413216.9644   22413223.7284
 96  2 10 20  0 30.0010000  0  8 31 19 18  2 28 16 27 29
  22349192.391   -13132663.71749 -10222542.88849  22349193.7054   22349199.6964
  21000943.132   -19615652.49449 -15263799.82149  21000945.4654   21000952.0634
  20577492.968   -16364166.31149 -12738325.58749  20577495.3944   20577501.0944
  24388220.878    -6353240.46349  -4933318.07549  24388223.5324   24388232.9374
  23507328.165    -6452538.819 9  -5013367.407 9  23507333.466    23507339.860
  24775025.251     -541594.53149   -412905.68549  24775027.3094   24775035.8534
  22802016.834   -10133070.63349  -7875293.03949  22802017.7684   22802025.8934
  22429057.518     5584461.90549   4357138.13449  22429060.7124   22429067.6764
 96  2 10 20  1  0.0010000  0  8 31 19 18  2 28 16 27 29
  22341630.072   -13172393.25549 -10253500.97749  22341633.2204   22341639.6414
  20996915.173   -19636816.56149 -15280291.30449  20996918.0014   20996924.7984
  20583548.067   -16332346.61349 -12713531.04649  20583550.4244   20583556.3914
  24372041.667    -6438256.40149  -4999564.18049  24372042.7384   24372054.8504
  23511438.535    -6430959.129 9  -4996552.090 9  23511440.081    23511446.374
  24764356.597     -597659.06149   -456592.27449  24764358.7184   24764366.4594
  22789747.296   -10197518.25449  -7925511.89549  22789752.4144   22789762.0334
  22444966.258     5668061.70149   4422280.77449  22444969.0604   22444975.7974
 96  2 10 20  1 30.0010000  0  8 31 19 18  2 28 16 27 29
  22334167.460   -13211607.67249 -10284057.67549  22334170.8234   22334177.3784
  20992925.535   -19657785.35849 -15296630.63349  20992927.9144   20992934.6484
  20589696.275   -16300034.53249 -12688352.82849  20589699.1664   20589705.2414
  24355895.588    -6523096.69249  -5065673.43749  24355900.1794   24355909.2514
  23515654.128    -6408814.248 9  -4979296.370 9  23515654.133    23515660.656
  24753774.787     -653260.07349   -499917.71449  24753776.6514   24753786.6484
  22777512.582   -10261836.24749  -7975629.81049  22777515.9594   22777523.5374
  22460941.639     5752011.01449   4487695.77649  22460944.5464   22460951.0964
 96  2 10 20  2  0.0010000  0  8 31 19 18  2 28 16 27 29
  22326801.971   -13250308.19749 -10314213.93349  22326806.6824   22326813.0164
  20988974.070   -19678545.88149 -15312807.65949  20988977.2684   20988984.0554
  20595939.965   -16267226.30349 -12662788.00049  20595942.4314   20595948.5574
  24339790.851    -6607753.61049  -5131639.82549  24339794.7194   24339800.6054
  23519974.265    -6386101.036 9  -4961597.787 9  23519976.165    23519982.788
  24743284.477     -708391.29249   -542877.05749  24743285.5224   24743295.8594
  22765301.805   -10325998.61849  -8025626.41649  22765304.0884   22765313.3734
  22476982.319     5836305.42949   4553379.68449  22476985.0044   22476991.5044
 96  2 10 20  2 30.0010000  0  8 31 19 18  2 28 16 27 29
  22319534.707   -13288513.00849 -10343983.92449  22319536.3914   22319542.9054
  20985063.865   -19699098.92449 -15328823.02649  20985066.3494   20985072.7794
  20602273.750   -16233942.53949 -12636852.63049  20602276.3624   20602282.1764
  24323712.729    -6692233.61749  -5197468.36749  24323717.1144   24323722.9454
  23524400.790    -6362830.836 9  -4943465.183 9  23524403.932    23524411.198
  24732880.447     -763068.07849   -585482.33849  24732882.6504   24732890.7184
  22753118.621   -10390017.66449  -8075511.34049  22753122.6874   22753129.6224
  22493084.313     5920917.73149   4619311.29349  22493086.7044   22493092.8454
 96  2 10 20  3  0.0010000  0  8 31 19 18  2 28 16 27 29
  22312359.453   -13326211.77549 -10373359.59149  22312362.2814   22312369.2484
  20981193.175   -19719441.43149 -15344674.32549  20981194.9384   20981201.5844
  20608701.015   -16200165.39849 -12610532.80249  20608703.4484   20608709.4614
  24307672.763    -6776524.52949  -5263149.52449  24307673.8344   24307680.6144
  23528935.148    -6339001.704 9  -4924897.054 9  23528938.670    23528945.502
  24722559.873     -817296.07749   -627737.82749  24722562.8844   24722571.9254
  22740961.498   -10453907.19149  -8125295.37349  22740964.4844   22740970.7644
  22509247.199     6005861.56449   4685501.23849  22509250.5674   22509257.1154
 96  2 10 20  3 30.0010000  0  8 31 19 18  2 28 16 27 29
  22305285.160   -13363392.51549 -10402331.60249  22305287.5414   22305293.5284
  20977362.669   -19739564.63249 -15360354.73949  20977365.7844   20977372.2284
  20615224.926   -16165885.67549 -12583821.35249  20615226.7374   20615232.8774
  24291666.897    -6860627.59349  -5328684.31149  24291668.0144   24291678.7834
  23533576.923    -6314618.321 9  -4905897.031 9  23533578.890    23533585.768
  24712328.070     -871069.10649   -669638.87149  24712329.9764   24712339.5734
  22728820.468   -10517700.99849  -8175004.79249  22728824.4834   22728830.9174
  22525473.868     6091135.07549   4751948.07349  22525477.7554   22525483.9614
 96  2 10 20  4  0.0010000  0  8 31 19 18  2 28 16 27 29
  22298310.301   -13400044.26549 -10430891.40949  22298312.4994   22298318.9354
  20973580.446   -19759441.89949 -15375843.52149  20973583.2414   20973589.8324
  20621840.348   -16131115.31149 -12556727.58749  20621843.4664   20621849.5324
  24275698.500    -6944540.97049  -5394071.29849  24275702.6314   24275710.6924
  23538323.716    -6289678.449 9  -4886463.368 9  23538324.904    23538331.594
  24702184.762     -924372.75649   -711174.14049  24702187.3754   24702195.9534
  22716697.580   -10581413.85649  -8224651.17449  22716701.3584   22716707.4174
  22541765.166     6176740.07449   4818653.20349  22541767.9154   22541774.3344
 96  2 10 20  4 30.0010000  0  8 31 19 18  2 28 16 27 29
  22291440.879   -13436146.60949 -10459023.10649  22291442.7694   22291449.2514
  20969847.373   -19779059.03049 -15391129.59449  20969850.1914   20969856.9284
  20628551.630   -16095850.15449 -12529248.26549  20628554.2224   20628560.4174
  24259772.420    -7028232.87849  -5459285.70349  24259777.7874   24259786.9474
  23543180.820    -6264171.678 9  -4866587.983 9  23543178.450    23543185.110
  24692130.539     -977202.24349   -752339.89449  24692132.3964   24692140.5654
  22704588.979   -10645044.19949  -8274233.21149  22704591.9454   22704599.6744
  22558121.924     6262693.01549   4885629.46049  22558124.4344   22558130.9274
 96  2 10 20  5  0.0010000  0  8 31 19 18  2 28 16 27 29
  22284672.993   -13471705.03249 -10486730.95549  22284676.2304   22284682.2624
  20966161.497   -19798431.92949 -15406225.36049  20966163.6544   20966170.5444
  20635357.467   -16060088.41649 -12501381.99949  20635359.2204   20635365.6314
  24243889.450    -7111713.62649  -5524335.56949  24243888.4764   24243897.7764
  23548132.946    -6238109.712 9  -4846279.969 9  23548137.888    23548144.427
  24682167.143    -1029564.38549   -793141.59649  24682169.7564   24682177.5834
  22692496.206   -10708596.33949  -8323754.34549  22692499.8054   22692506.2124
  22574540.193     6348980.44249   4952866.35449  22574544.4984   22574550.7704
 96  2 10 20  5 30.0010000  0  8 31 19 18  2 28 16 27 29
  22278012.698   -13506710.76249 -10514008.14149  22278014.8224   22278021.0784
  20962521.429   -19817559.25949 -15421129.77249  20962524.0104   20962530.3784
  20642259.895   -16023812.70549 -12473115.23249  20642262.5644   20642268.8074
  24228040.588    -7194977.22649  -5589216.23649  24228045.6094   24228053.2994
  23553204.885    -6211479.238 9  -4825528.957 9  23553205.483    23553212.322
  24672298.029    -1081427.71249   -833554.52549  24672299.4324   24672309.3184
  22680419.399   -10772048.56349  -8373197.60649  22680423.5864   22680432.2974
  22591026.947     6435607.62649   5020367.98649  22591029.1524   22591035.2514
 96  2 10 20  6  0.0010000  0  8 31 19 18  2 28 16 27 29
  22271456.691   -13541170.63449 -10540859.98049  22271456.7774   22271463.4944
  20958921.148   -19836472.88949 -15435867.65649  20958925.0124   20958931.4614
  20649258.726   -15987032.30049 -12444455.19649  20649261.5164   20649267.6304
  24212236.457    -7278037.94249  -5653938.81949  24212238.0824   24212246.8004
  23558377.568    -6184289.474 9  -4804342.135 9  23558379.757    23558386.608
  24662519.944    -1132805.22249   -873588.82649  24662522.9264   24662532.4304
  22668364.423   -10835397.88349  -8422560.66849  22668369.8264   22668377.8674
  22607574.334     6522568.89549   5088129.93649  22607576.9194   22607583.9464
 96  2 10 20  6 30.0010000  0  8 31 19 18  2 28 16 27 29
  22265006.532   -13575063.52649 -10567270.01349  22265007.7144   22265013.8934
  20955361.025   -19855188.13149 -15450450.95649  20955363.2184   20955369.9964
  20656360.666   -15949716.46949 -12415377.94549  20656362.6054   20656368.5164
  24196468.521    -7360899.94349  -5718506.53149  24196471.6064   24196480.0684
  23563659.573    -6156534.983 9  -4782715.266 9  23563660.926    23563668.064
  24652835.993    -1183706.74249   -913252.45649  24652837.5814   24652843.4414
  22656335.964   -10898623.75549  -8471827.55749  22656336.7054   22656345.4144
  22624185.249     6609857.65849   5156147.09049  22624187.7154   22624194.5334
 96  2 10 20  7  0.0010000  0  8 31 19 18  2 28 16 27 29
  22258662.882   -13608394.21649 -10593241.96949  22258665.0774   22258671.4204
  20951832.627   -19873730.02149 -15464899.17749  20951834.9604   20951841.6024
  20663565.042   -15911856.16549 -12385876.43249  20663567.3204   20663573.4114
  24180734.279    -7443587.54549  -5782938.37449  24180735.3514   24180744.6864
  23569043.468    -6128224.063 9  -4760654.823 9  23569048.488    23569055.179
  24643237.171    -1234128.23249   -952541.84349  24643241.8844   24643251.6684
  22644329.686   -10961718.91949  -8520992.60449  22644331.7234   22644337.8354
  22640855.288     6697461.47049   5224409.72449  22640858.1524   22640864.9694
 96  2 10 20  7 30.0010000  0  8 31 19 18  2 28 16 27 29
  22252424.022   -13641172.60449 -10618783.55249  22252427.1924   22252433.9124
  20948335.247   -19892106.85949 -15479218.78949  20948337.8534   20948344.6864
  20670868.938   -15873470.68749 -12355965.69049  20670871.6804   20670877.8684
  24165028.533    -7526108.03849  -5847239.95649  24165032.9294   24165041.8814
  23574538.564    -6099369.315 9  -4738170.620 9  23574539.376    23574545.836
  24633732.698    -1284091.38349   -991474.10149  24633735.4724   24633743.0204
  22632346.391   -11024695.73249  -8570065.40549  22632346.6594   22632353.5144
  22657584.255     6785373.98349   5292912.92149  22657587.1214   22657594.3724
 96  2 10 20  8  0.0010000  0  8 31 19 18  2 28 16 27 29
  22246296.905   -13673384.98949 -10643884.10249  22246297.6914   22246303.9864
  20944873.958   -19910293.27749 -15493390.02549  20944877.0864   20944883.6674
  20678274.792   -15834555.98749 -12325642.57049  20678277.0334   20678283.0624
  24149362.508    -7608441.10349  -5911395.54149  24149365.5304   24149373.8194
  23580135.647    -6069959.930 9  -4715254.238 9  23580135.875    23580142.440
  24624309.953    -1333605.85249  -1030056.83649  24624312.0144   24624319.3274
  22620386.558   -11087529.79149  -8619026.97449  22620390.0364   22620397.3074
  22674374.024     6873600.72849   5361660.95849  22674376.8624   22674383.4494
 96  2 10 20  8 30.0010000  0  8 31 19 18  2 28 16 27 29
  22240268.879   -13705046.61649 -10668555.48249  22240272.2334   22240278.9964
  20941452.514   -19928277.49449 -15507403.69649  20941455.1264   20941461.5734
  20685778.500   -15795121.88149 -12294914.71349  20685781.1884   20685787.2314
  24133732.291    -7690584.39549  -5975403.24249  24133732.6174   24133742.4204
  23585834.234    -6040001.003 9  -4691909.647 9  23585837.284    23585843.587
  24614973.821    -1382663.14749  -1068283.30349  24614976.7804   24614983.7124
  22608455.986   -11150229.43449  -8667883.81649  22608458.7104   22608466.1434
  22691218.400     6962129.52149   5430644.36049  22691222.7474   22691230.0654
 96  2 10 20  9  0.0010000  0  8 31 19 18  2 28 16 27 29
  22234348.365   -13736166.77149 -10692804.94049  22234350.1824   22234357.0674
  20938071.921   -19946040.90349 -15521245.31749  20938074.7524   20938081.3284
  20693381.211   -15755171.92449 -12263784.89549  20693383.0804   20693389.4444
  24118137.561    -7772523.86049  -6039252.10349  24118140.9764   24118149.9824
  23591643.325    -6009484.300 9  -4668130.424 9  23591644.411    23591650.328
  24605731.256    -1431237.05549  -1106133.04249  24605733.6674   24605743.1164
  22596550.658   -11212801.27049  -8716641.06349  22596551.2944   22596558.7604
  22708128.410     7050977.96549   5499876.84949  22708130.5744   22708136.8514
 96  2 10 20  9 30.0010000  0  8 31 19 18  2 28 16 27 29
  22228522.715   -13766764.18049 -10716647.06549  22228527.8154   22228534.2124
  20934733.942   -19963587.08949 -15534917.67049  20934735.8124   20934742.1534
  20701075.324   -15714735.96849 -12232276.37549  20701077.8724   20701083.9574
  24102582.401    -7854273.67849  -6102953.21949  24102584.3864   24102593.0874
  23597554.748    -5978426.023 9  -4643929.186 9  23597554.470    23597560.754
  24596575.473    -1479353.57349  -1143626.34849  24596576.7914   24596586.6224
  22584660.677   -11275281.20849  -8765326.69449  22584662.3414   22584669.1554
  22725095.613     7140137.07049   5569351.40149  22725097.2424   22725103.6844
 96  2 10 20 10  0.0010000  0  8 31 19 18  2 28 16 27 29
  22222808.548   -13796815.85049 -10740063.93749  22222809.2904   22222816.0694
  20931437.088   -19980908.61249 -15548414.95649  20931439.4484   20931446.1864
  20708866.531   -15673795.14049 -12200374.45549  20708868.5684   20708874.9884
  24087065.782    -7935821.60149  -6166496.97449  24087065.9934   24087076.2224
  23603568.668    -5946808.421 9  -4619292.115 9  23603571.060    23603577.061
  24587512.520    -1526976.96549  -1180735.47849  24587513.8684   24587520.9064
  22572787.727   -11337661.62749  -8813934.78449  22572791.7104   22572798.5844
  22742121.048     7229615.04449   5639074.42849  22742124.3394   22742130.6304
 96  2 10 20 10 30.0010000  0  8 31 19 18  2 28 16 27 29
  22217189.792   -13826336.67449 -10763067.16049  22217191.5674   22217198.1554
  20928180.181   -19998021.56249 -15561749.72249  20928183.1044   20928189.5964
  20716751.596   -15632356.60149 -12168084.71049  20716754.2484   20716760.4634
  24071583.641    -8017181.97149  -6229894.66849  24071584.0954   24071594.3064
  23609687.170    -5914642.992 9  -4594228.183 9  23609691.823    23609698.121
  24578544.549    -1574108.79649  -1217461.62549  24578546.4754   24578555.1714
  22560929.273   -11399973.10549  -8862489.12949  22560933.4044   22560941.4494
  22759207.927     7319405.45349   5709040.90449  22759210.7964   22759217.0384
 96  2 10 20 11  0.0010000  0  8 31 19 18  2 28 16 27 29
  22211669.930   -13855333.25149 -10785661.87849  22211673.4824   22211680.1714
  20924960.200   -20014945.07749 -15574936.87849  20924962.6344   20924969.0654
  20724730.789   -15590426.12749 -12135411.63649  20724733.1584   20724739.4264
  24056132.363    -8098362.97249  -6293152.49149  24056135.5994   24056145.4394
  23615908.567    -5881939.490 9  -4568744.958 9  23615914.779    23615921.682
  24569664.829    -1620769.18749  -1253820.33849  24569667.5484   24569675.4344
  22549086.219   -11462222.06649  -8910994.79649  22549088.6094   22549095.0704
  22776352.779     7409501.80049   5779245.78649  22776355.7584   22776362.2334
 96  2 10 20 11 30.0010000  0  8 31 19 18  2 28 16 27 29
  22206259.189   -13883771.64749 -10807821.65849  22206262.0234   22206268.7974
  20921780.093   -20031656.04649 -15587958.41449  20921782.6934   20921789.3604
  20732805.376   -15547993.89749 -12102347.58549  20732807.8194   20732813.9884
  24040723.564    -8179336.62449  -6356248.77949  24040728.1744   24040734.9634
  23622242.519    -5848681.232 9  -4542829.461 9  23622243.957    23622250.731
  24560877.348    -1666941.22849  -1289798.46249  24560880.5734   24560888.9534
  22537256.341   -11524388.14649  -8959435.87549  22537259.0324   22537264.9914
  22793556.627     7499910.16849   5849693.79349  22793559.5724   22793566.5184
 96  2 10 20 12  0.0010000  0  8 31 19 18  2 28 16 27 29
  22200954.427   -13911638.92149 -10829536.40449  22200958.8784   22200965.5984
  20918639.135   -20048156.85949 -15600816.18749  20918642.5044   20918649.1154
  20740973.559   -15505066.53849 -12068897.71649  20740976.5704   20740982.6464
  24025358.226    -8260091.62749  -6419174.71749  24025360.7114   24025369.5274
  23628674.403    -5814875.719 9  -4516487.531 9  23628677.052    23628683.570
  24552186.003    -1712624.38049  -1325395.79549  24552187.5294   24552195.2384
  22525443.727   -11586468.77049  -9007810.36149  22525444.9774   22525451.8194
  22810815.649     7590608.19849   5920367.52149  22810818.9774   22810826.3804
 96  2 10 20 12 30.0010000  0  8 31 19 18  2 28 16 27 29
  22195762.510   -13938936.90449 -10850807.54449  22195764.0494   22195770.8134
  20915542.552   -20064433.42849 -15613499.23049  20915545.2874   20915551.7764
  20749237.629   -15461644.16249 -12035062.12649  20749239.7554   20749246.0074
  24010032.715    -8340619.55649  -6481923.69049  24010035.4634   24010044.2084
  23635212.617    -5780523.090 9  -4489719.275 9  23635214.184    23635220.732
  24543584.663    -1757820.07849  -1360613.22149  24543585.6484   24543596.5664
  22513646.723   -11648450.86549  -9056108.06949  22513650.3044   22513657.6954
  22828131.214     7681603.95449   5991273.23549  22828134.6684   22828142.0034
 96  2 10 20 13  0.0010000  0  8 31 19 18  2 28 16 27 29
  22190678.820   -13965636.25049 -10871612.20949  22190683.4614   22190689.9524
  20912490.884   -20080472.67349 -15625997.34549  20912493.0454   20912499.8024
  20757595.662   -15417720.21249 -12000835.69649  20757598.1484   20757604.4284
  23994748.814    -8420916.47149  -6544492.64649  23994755.4614   23994765.0964
  23641853.979    -5745619.639 9  -4462521.805 9  23641856.057    23641862.736
  24535078.153    -1802518.72749  -1395443.25849  24535081.2374   24535090.3204
  22501872.122   -11710329.41149  -9104325.07949  22501874.5914   22501882.1974
  22845503.883     7772892.46949   6062407.07649  22845506.7094   22845513.2634
 96  2 10 20 13 30.0010000  0  8 31 19 18  2 28 16 27 29
  22185716.021   -13991724.80549 -10891940.94349  22185719.0104   22185725.6914
  20909485.134   -20096264.40049 -15638302.58749  20909487.8404   20909494.7314
  20766050.884   -15373289.87249 -11966214.67749  20766053.1304   20766059.1074
  23979517.172    -8500985.37849  -6606883.94649  23979519.5784   23979528.3834
  23648601.000    -5710163.127 9  -4434893.380 9  23648603.334    23648609.731
  24526667.716    -1846719.07549  -1429885.08849  24526669.7594   24526678.5544
  22490115.576   -11772108.79549  -9152464.82649  22490118.8264   22490124.9974
  22862932.636     7864476.93149   6133771.52849  22862934.2464   22862940.9214
 96  2 10 20 14  0.0010000  0  8 31 19 18  2 28 16 27 29
  22180863.644   -14017219.46749 -10911806.89449  22180867.4174   22180873.9584
  20906523.112   -20111832.23449 -15650433.36449  20906525.5274   20906532.3064
  20774603.657   -15328343.34449 -11931191.43349  20774606.3734   20774612.2574
  23964320.883    -8580844.45549  -6669111.75349  23964322.9004   23964331.6344
  23655453.726    -5674158.110 9  -4406837.546 9  23655454.816    23655461.465
  24518348.080    -1890426.20149  -1463942.60449  24518351.3714   24518359.7884
  22478379.580   -11833781.95549  -9200521.81149  22478382.8444   22478389.6214
  22880415.633     7956360.91849   6205369.36749  22880419.0544   22880426.8324
 96  2 10 20 14 30.0010000  0  8 31 19 18  2 28 16 27 29
  22176123.695   -14042136.36749 -10931222.64549  22176125.7774   22176132.4134
  20903600.700   -20127187.76349 -15662398.71449  20903603.7424   20903610.1394
  20783257.500   -15282870.02249 -11895757.70149  20783259.3104   20783265.5964
  23949160.581    -8660517.24049  -6731194.37349  23949161.2714   23949169.9524
  23662410.622    -5637603.258 9  -4378353.264 9  23662410.998    23662417.536
  24510126.969    -1933641.75249  -1497617.01749  24510128.6194   24510137.8124
  22466665.001   -11895349.68349  -9248496.63749  22466666.7764   22466674.0004
  22897962.306     8048561.97049   6277214.28149  22897965.2204   22897972.3224
 96  2 10 20 15  0.0010000  0  8 31 19 18  2 28 16 27 29
  22171490.817   -14066486.87649 -10950197.04949  22171492.3954   22171498.8714
  20900714.467   -20142360.19949 -15674221.39449  20900716.3104   20900723.0464
  20792007.050   -15236893.26749 -11859931.68649  20792008.7344   20792014.5834
  23934030.737    -8740017.11849  -6793142.29149  23934033.4324   23934040.6794
  23669462.508    -5600512.309 9  -4349451.263 9  23669469.278    23669475.483
  24501992.697    -1976384.32049  -1530922.90849  24501995.3774   24502004.8674
  22454962.762   -11956833.43449  -9296406.01949  22454966.8554   22454973.7234
  22915564.881     8141063.23749   6349293.13649  22915566.9804   22915573.8984
 96  2 10 20 15 30.0010000  0  8 31 19 18  2 28 16 27 29
  22166961.287   -14090283.67449 -10968739.99049  22166963.6784   22166970.2694
  20897859.781   -20157358.68849 -15685908.52449  20897862.0894   20897868.8934
  20800851.226   -15190410.71749 -11823711.54449  20800854.1064   20800860.3454
  23918935.438    -8819325.35649  -6854940.86449  23918940.7714   23918949.4764
  23676626.950    -5562878.709 9  -4320126.394 9  23676630.520    23676637.472
  24493948.947    -2018647.52349  -1563855.18649  24493951.6164   24493959.8394
  22443285.416   -12018207.09149  -9344229.62149  22443287.8984   22443295.0264
  22933225.984     8233876.12049   6421614.79849  22933228.7764   22933236.4214
 96  2 10 20 16  0.0010000  0  8 31 19 18  2 28 16 27 29
  22162535.948   -14113528.65449 -10986852.94549  22162540.0874   22162547.2714
  20895038.645   -20172183.88649 -15697460.62949  20895041.1284   20895047.4434
  20809791.789   -15143430.32549 -11787103.46649  20809793.8534   20809800.1434
  23903887.559    -8898421.83149  -6916574.41449  23903889.4954   23903898.1184
  23683893.183    -5524703.030 9  -4290379.128 9  23683895.184    23683901.830
  24486001.126    -2060422.27949  -1596406.96449  24486004.1814   24486010.6024
  22431630.096   -12079457.84049  -9391957.45549  22431632.7154   22431638.9294
  22950945.500     8326991.05649   6494171.83249  22950947.7494   22950956.0234
 96  2 10 20 16 30.0010000  0  8 31 19 18  2 28 16 27 29
  22158222.807   -14136207.48149 -11004524.73649  22158224.2754   22158231.6014
  20892255.805   -20186806.33349 -15708854.74549  20892258.4514   20892264.9594
  20818825.340   -15095955.78649 -11750110.34149  20818828.2004   20818834.6384
  23888882.683    -8977276.74849  -6978019.76049  23888883.3844   23888892.6744
  23691260.509    -5485979.878 9  -4260205.269 9  23691263.541    23691270.836
  24478147.264    -2101694.70049  -1628567.28949  24478149.3834   24478159.4584
  22419993.809   -12140595.58649  -9439597.20849  22419997.4384   22420004.8134
  22968722.512     8420409.54149   6566965.39549  22968725.6144   22968732.1534
 96  2 10 20 17  0.0010000  0  8 31 19 18  2 28 16 27 29
  22154015.802   -14158311.55449 -11021748.67749  22154018.7584   22154025.4394
  20889516.241   -20201200.10349 -15720070.66349  20889519.4744   20889526.2284
  20827955.462   -15047983.55749 -11712729.40849  20827956.9294   20827963.4364
  23873925.040    -9055870.00349  -7039261.20749  23873928.0614   23873936.3394
  23698736.145    -5446704.021 9  -4229600.720 9  23698737.753    23698744.333
  24470392.209    -2142446.47149  -1660321.79049  24470394.2644   24470404.1424
  22408385.246   -12201601.54349  -9487134.28449  22408389.0664   22408395.5314
  22986553.696     8514112.66049   6639980.74249  22986556.6434   22986562.8444
 96  2 10 20 17 30.0010000  0  8 31 19 18  2 28 16 27 29
  22149917.838   -14179845.79849 -11038528.58949  22149920.3894   22149927.5154
  20886823.379   -20215356.35049 -15731101.50449  20886825.5484   20886832.3494
  20837178.322   -14999508.91049 -11674956.97949  20837181.4074   20837187.7244
  23859017.845    -9134219.26049  -7100312.53149  23859018.7094   23859027.8784
  23706310.611    -5406888.466 9  -4198575.639 9  23706314.281    23706320.708
  24462737.069    -2182674.93249  -1691668.58349  24462739.0324   24462746.8324
  22396800.422   -12262479.60149  -9534571.71149  22396803.7614   22396810.7804
  23004436.182     8608086.89849   6713207.36849  23004439.5914   23004446.5374
 96  2 10 20 18  0.0010000  0  8 31 19 18  2 28 16 27 29
  22145932.398   -14200796.05549 -11054853.45549  22145933.8464   22145940.5414
  20884177.348   -20229256.90449 -15741933.10249  20884180.5064   20884186.9664
  20846499.275   -14950531.19549 -11636792.54649  20846501.6954   20846508.1574
  23844144.991    -9212344.22349  -7161189.04849  23844151.4924   23844161.2384
  23713990.494    -5366534.688 9  -4167131.140 9  23713993.512    23713999.767
  24455181.635    -2222369.06249  -1722599.15549  24455185.2654   24455193.0694
  22385239.149   -12323243.10449  -9581919.85649  22385241.2524   22385247.9774
  23022374.269     8702341.60549   6786652.52649  23022375.4344   23022382.2344
 96  2 10 20 18 30.0010000  0  8 31 19 18  2 28 16 27 29
  22142056.091   -14221153.73149 -11070716.56649  22142059.5344   22142066.5734
  20881580.949   -20242901.71549 -15752565.42349  20881583.9834   20881590.4494
  20855915.467   -14901050.48249 -11598236.17049  20855917.5654   20855923.8844
  23829322.460    -9290272.65949  -7221912.47549  23829322.5164   23829331.2134
  23721769.902    -5325644.854 9  -4135268.943 9  23721774.656    23721780.927
  24447730.247    -2261524.38449  -1753109.70849  24447733.7084   24447744.4984
  22373694.530   -12383892.52249  -9629179.10449  22373699.7364   22373706.7754
  23040363.384     8796881.41349   6860319.84549  23040365.8524   23040372.3064
 96  2 10 20 19  0.0010000  0  8 31 19 18  2 28 16 27 29
  22138300.518   -14240899.50649 -11086102.87249  22138302.2194   22138309.4504
  20879033.349   -20256289.66749 -15762997.58649  20879035.9584   20879042.4714
  20865427.862   -14851059.75449 -11559282.37849  20865430.3744   20865436.7824
  23814524.448    -9368008.43649  -7282485.74149  23814529.8024   23814538.2864
  23729656.720    -5284206.120 9  -4102979.027 9  23729660.298    23729666.560
  24440385.444    -2300128.68849  -1783190.89349  24440387.9764   24440397.3554
  22362181.946   -12444396.11449  -9676324.74249  22362186.5634   22362193.4394
  23058412.156     8891730.49549   6934228.15049  23058415.1144   23058421.9254
 96  2 10 20 19 30.0010000  0  8 31 19 18  2 28 16 27 29
  22134658.867   -14260038.48849 -11101016.35249  22134660.3564   22134667.2734
  20876529.715   -20269449.41449 -15773251.93249  20876532.2964   20876538.4864
  20875033.256   -14800583.25349 -11519950.05949  20875035.8274   20875042.2074
  23799772.591    -9445556.34949  -7342912.64549  23799773.0534   23799781.0714
  23737644.742    -5242235.533 9  -4070274.689 9  23737646.919    23737653.747
  24433139.904    -2338210.64349  -1812865.12549  24433141.6974   24433148.1984
  22350692.230   -12504788.37149  -9723383.61849  22350694.1724   22350700.9774
  23076521.844     8986897.88949   7008384.50249  23076524.5434   23076531.5734
 96  2 10 20 20  0.0010000  0  8 31 19 18  2 28 16 27 29
  22131127.615   -14278583.24649 -11115466.80049  22131131.1694   22131138.1904
  20874064.469   -20282401.45149 -15783344.42549  20874067.2554   20874073.8094
  20884729.093   -14749632.62649 -11480248.29449  20884731.2064   20884737.7954
  23785050.500    -9522911.38749  -7403189.24149  23785053.0614   23785061.0064
  23745734.029    -5199740.161 9  -4037161.430 9  23745733.670    23745740.055
  24425987.010    -2375794.26849  -1842151.09049  24425990.1104   24425995.8474
  22339219.856   -12565083.79349  -9770367.04549  22339220.6164   22339227.4294
  23094692.501     9082369.10349   7082777.58049  23094692.5834   23094699.5274
 96  2 10 20 20 30.0010000  0  8 31 19 18  2 28 16 27 29
  22127709.343   -14296543.61049 -11129461.87849  22127713.7764   22127720.3444
  20871638.747   -20295147.23449 -15793276.20049  20871641.8244   20871648.2384
  20894515.885   -14698197.43149 -11440168.93949  20894519.2194   20894525.6174
  23770373.511    -9600042.20749  -7463291.14349  23770374.8434   23770383.0394
  23753918.232    -5156713.061 9  -4003633.843 9  23753921.303    23753927.974
  24418928.479    -2412893.29249  -1871059.36649  24418931.2164   24418939.9194
  22327761.624   -12625269.38549  -9817264.85449  22327766.9464   22327774.2014
  23112913.150     9178129.90549   7157396.32749  23112915.2674   23112921.9364
 96  2 10 20 21  0.0010000  0  8 31 19 18  2 28 16 27 29
  22124407.140   -14313923.04449 -11143004.29449  22124406.6324   22124413.3214
  20869253.764   -20307683.90549 -15803045.02949  20869256.3554   20869262.8824
  20904399.445   -14646260.83849 -11399698.89149  20904402.3894   20904408.7064
  23755745.725    -9676921.05549  -7523196.68849  23755745.3934   23755753.6504
  23762209.507    -5113152.345 9  -3969690.445 9  23762210.919    23762217.289
  24411958.968    -2449518.36449  -1899598.33549  24411960.6774   24411970.7944
  22316329.659   -12685357.01249  -9864086.35349  22316332.6544   22316339.9914
  23131188.399     9274170.81749   7232233.32949  23131191.1624   23131198.2484
 96  2 10 20 21 30.0010000  0  8 31 19 18  2 28 16 27 29
  22121206.850   -14330732.62749 -11156102.66449  22121207.7324   22121214.6604
  20866906.594   -20320016.85249 -15812655.11549  20866909.6994   20866916.0864
  20914378.755   -14593821.89249 -11358837.39649  20914381.2674   20914387.6094
  23741160.554    -9753555.01149  -7582911.40649  23741162.1544   23741171.1954
  23770596.412    -5069070.749 9  -3935341.178 9  23770599.091    23770606.364
  24405073.562    -2485690.59849  -1927784.45449  24405075.2784   24405081.8734
  22304914.436   -12745368.89349  -9910848.83449  22304913.2894   22304920.1294
  23149510.530     9370455.33649   7307260.14349  23149514.0094   23149521.0444
 96  2 10 20 22  0.0010000  0  8 31 19 18  2 28 16 27 29
  22118114.797   -14346969.43549 -11168754.72149  22118118.0644   22118124.9074
  20864599.261   -20332142.15549 -15822103.39949  20864601.8754   20864608.6174
  20924454.324   -14540875.91649 -11317580.81649  20924456.6944   20924462.7814
  23726624.908    -9829954.80549  -7642443.67349  23726624.0894   23726632.4354
  23779083.103    -5024466.716 9  -3900584.820 9  23779086.849    23779094.128
  24398279.300    -2521393.69549  -1955605.07949  24398283.0564   24398293.4694
  22293511.259   -12805282.20649  -9957534.49749  22293512.1074   22293518.6634
  23167875.447     9466964.56749   7382462.07349  23167878.4764   23167885.6524
 96  2 10 20 22 30.0010000  0  8 31 19 18  2 28 16 27 29
  22115138.281   -14362612.79749 -11180944.35449  22115141.4754   22115148.0154
  20862334.143   -20344047.42149 -15831380.22849  20862336.7344   20862343.0554
  20934625.436   -14487429.29249 -11275934.11649  20934627.2014   20934633.4124
  23712126.845    -9906118.51849  -7701791.95749  23712130.2284   23712139.4244
  23787673.178    -4979333.604 9  -3865416.180 9  23787675.612    23787682.788
  24391583.815    -2556592.44249  -1983032.57749  24391585.4924   24391595.3684
  22282131.564   -12865071.18749 -10004123.29149  22282134.9134   22282141.1084
  23186287.118     9563712.45049   7457849.94949  23186289.4084   23186296.1504
 96  2 10 20 23  0.0010000  0  8 31 19 18  2 28 16 27 29
  22112278.127   -14377643.96649 -11192656.95649  22112280.8014   22112287.7564
  20860109.380   -20355737.25549 -15840489.18249  20860112.0524   20860118.5114
  20944887.824   -14433495.96249 -11233908.16749  20944890.4294   20944896.5284
  23697677.881    -9982068.71549  -7760973.87649  23697677.9114   23697686.0894
  23796362.219    -4933676.009 9  -3829838.851 9  23796363.851    23796370.809
  24384985.816    -2591266.42949  -2010051.26449  24384987.7484   24384995.0654
  22270778.336   -12924736.40149 -10050615.63649  22270780.6214   22270787.1644
  23204744.131     9660707.57249   7533430.49449  23204746.1604   23204753.8044
 96  2 10 20 23 30.0010000  0  8 31 19 18  2 28 16 27 29
  22109533.771   -14392059.05749 -11203889.49749  22109537.7294   22109544.7404
  20857924.910   -20367216.67749 -15849434.17649  20857927.6794   20857933.8104
  20955241.495   -14379087.57849 -11191512.04349  20955244.0014   20955250.1054
  23683259.741   -10057811.26649  -7819993.96949  23683264.4504   23683273.2894
  23805149.787    -4887493.733 9  -3793852.672 9  23805152.027    23805158.844
  24378486.048    -2625397.05849  -2036646.53649  24378488.7104   24378499.5014
  22259451.612   -12984260.97449 -10096998.39849  22259453.3254   22259459.8994
  23223251.060     9757962.60849   7609213.55449  23223253.2204   23223260.9764
 96  2 10 20 24  0.0010000  0  8 31 19 18  2 28 16 27 29
  22106907.502   -14405867.11149 -11214649.03149  22106910.3994   22106917.4254
  20855781.264   -20378483.65949 -15858213.63949  20855783.7314   20855789.8744
  20965683.800   -14324213.27649 -11148752.86249  20965686.3974   20965692.5434
  23668890.174   -10133337.25149  -7878845.32649  23668892.5504   23668900.9904
  23814038.421    -4840786.263 9  -3757457.259 9  23814040.396    23814046.972
  24372102.892    -2658970.80449  -2062807.89349  24372104.6824   24372110.2694
  22248154.162   -13043635.17949 -10143263.96549  22248154.6844   22248161.5784
  23241813.425     9855497.68149   7685214.83449  23241813.4824   23241820.9244
 96  2 10 20 24 30.0010000  0  8 31 19 18  2 28 16 27 29
  22104395.474   -14419070.61849 -11224937.48249  22104397.6894   22104404.6754
  20853679.386   -20389528.96249 -15866820.36149  20853681.8804   20853687.7894
  20976215.033   -14268869.04649 -11105627.50349  20976217.8844   20976224.3164
  23654562.262   -10208622.44149  -7937509.07349  23654565.6444   23654574.2444
  23823028.706    -4793547.713 9  -3720648.016 9  23823029.409    23823035.952
  24365818.569    -2691990.51949  -2088537.54249  24365821.6054   24365829.0604
  22236879.357   -13102871.39349 -10189422.01149  22236881.9564   22236889.2674
  23260429.064     9953333.97549   7761450.82649  23260432.3714   23260439.0064
 96  2 10 20 25  0.0010000  0  8 31 19 18  2 28 16 27 29
  22101991.793   -14431695.46849 -11234775.03449  22101995.1934   22102002.1964
  20851615.520   -20400373.90649 -15875270.96449  20851618.1634   20851624.6324
  20986834.423   -14213067.62749 -11062145.89849  20986836.2724   20986842.5524
  23640281.239   -10283686.48449  -7996000.46149  23640281.5104   23640289.7914
  23832114.070    -4745802.989 9  -3683444.347 9  23832115.057    23832121.802
  24359628.406    -2724508.00249  -2113875.74749  24359629.7774   24359640.1214
  22225624.277   -13162020.49049 -10235512.18549  22225626.6734   22225633.4634
  23279097.400    10051444.76549   7837900.71649  23279101.8764   23279109.1514
 96  2 10 20 25 30.0010000  0  8 31 19 18  2 28 16 27 29
  22099701.890   -14443734.45449 -11244156.06949  22099704.4594   22099711.0314
  20849593.914   -20410995.57049 -15883547.57849  20849596.6944   20849603.1724
  20997543.088   -14156787.98049 -11018291.64149  20997546.2644   20997552.6034
  23626041.766   -10358500.67049  -8054297.16049  23626044.8344   23626053.5904
  23841298.115    -4697538.050 9  -3645835.320 9  23841299.520    23841306.170
  24353537.240    -2756522.58349  -2138822.17549  24353540.5654   24353546.5204
  22214385.922   -13221070.71249 -10281525.30449  22214389.7964   22214396.5334
  23297823.087    10149841.85949   7914573.70249  23297826.5154   23297833.1644
 96  2 10 20 26  0.0010000  0  8 31 19 18  2 28 16 27 29
  22097522.641   -14455186.18449 -11253079.50449  22097525.3344   22097532.0284
  20847617.703   -20421384.48249 -15891642.82949  20847619.8124   20847626.1304
  21008344.020   -14100034.45349 -10974068.13549  21008346.0864   21008352.5394
  23611852.165   -10433080.13849  -8112410.97849  23611853.0244   23611861.3614
  23850579.330    -4648757.757 9  -3607824.720 9  23850582.126    23850588.773
  24347538.362    -2788048.14049  -2163387.52449  24347540.7714   24347547.9614
  22203167.166   -13280029.02949 -10327466.82749  22203170.6214   22203177.1544
  23316598.176    10248509.48149   7991457.48749  23316602.5254   23316609.5984
 96  2 10 20 26 30.0010000  0  8 31 19 18  2 28 16 27 29
  22095458.486   -14466025.42249 -11261525.67249  22095462.8154   22095469.3114
  20845686.259   -20431533.91949 -15899551.47949  20845688.6484   20845694.6424
  21019235.880   -14042793.47649 -10929464.79749  21019238.7574   21019245.0014
  23597699.070   -10507430.01949  -8170345.89349  23597704.6814   23597712.7244
  23859961.997    -4599452.339 9  -3569404.923 9  23859964.558    23859971.279
  24341635.326    -2819076.74449  -2187565.64849  24341636.6074   24341642.5684
  22191967.262   -13338885.90649 -10373329.29249  22191970.3524   22191977.1524
  23335425.108    10347440.76449   8068546.72849  23335428.4084   23335435.0944
 96  2 10 20 27  0.0010000  0  8 31 19 18  2 28 16 27 29
  22093514.979   -14476254.53749 -11269496.41949  22093516.2114   22093522.6094
  20843799.740   -20441445.90249 -15907275.10149  20843802.3124   20843808.7034
  21030221.585   -13985065.12949 -10884481.69549  21030223.9804   21030230.3004
  23583594.734   -10581570.08749  -8228117.33949  23583596.6224   23583604.6414
  23869442.902    -4549629.923 9  -3530582.277 9  23869445.828    23869452.413
  24335822.761    -2849603.38849  -2211352.63349  24335826.1954   24335836.4694
  22180789.321   -13397628.36249 -10419102.60449  22180791.9914   22180798.5064
  23354298.966    10446619.61349   8145828.86649  23354301.5504   23354308.9464
 96  2 10 20 27 30.0010000  0  8 31 19 18  2 28 16 27 29
  22091681.651   -14485883.06049 -11276999.17049  22091683.8754   22091690.6404
  20841960.611   -20451111.31649 -15914806.58749  20841962.8294   20841969.3594
  21041301.217   -13926847.04949 -10839116.97749  21041302.5264   21041309.0204
  23569528.413   -10655490.01049  -8285717.20649  23569529.3444   23569537.4094
  23879025.036    -4499285.723 9  -3491353.042 9  23879025.799    23879032.474
  24330117.538    -2879602.30049  -2234728.31449  24330119.5574   24330127.6614
  22169639.505   -13456221.34549 -10464759.44349  22169641.9974   22169648.7774
  23373217.858    10546041.07449   8223300.07249  23373220.6834   23373227.5814
 96  2 10 20 28  0.0010000  0  8 31 19 18  2 28 16 27 29
  22089962.574   -14494920.08149 -11284041.00149  22089964.3764   22089970.9624
  20840164.481   -20460550.32149 -15922161.65149  20840166.7244   20840172.9654
  21052468.383   -13868155.16349 -10793383.05949  21052471.5214   21052477.7564
  23555502.474   -10729203.55649  -8343156.27649  23555502.4764   23555510.5004
  23888701.475    -4448433.814 9  -3451728.194 9  23888702.648    23888709.394
  24324507.749    -2909071.39649  -2257691.26049  24324510.4904   24324513.7834
  22158515.057   -13514679.61749 -10510311.31249  22158517.6684   22158524.1794
  23392181.305    10645689.34449   8300947.99349  23392183.4494   23392190.8474
 96  2 10 20 28 30.0010000  0  8 31 19 18  2 28 16 27 29
  22088358.994   -14503352.44649 -11290611.67949  22088359.9064   22088366.3614
  20838413.233   -20469754.14149 -15929333.45649  20838415.3854   20838421.5794
  21063731.004   -13808973.09149 -10747267.17949  21063733.3694   21063739.6394
  23541516.679   -10802681.58849  -8400411.85249  23541519.8554   23541527.9914
  23898475.853    -4397058.615 9  -3411695.588 9  23898478.849    23898485.875
  24319004.914    -2937985.99749  -2280222.14449  24319008.3034   24319016.6244
  22147420.902   -13572987.34949 -10555745.87749  22147422.1304   22147428.6704
  23411190.397    10745584.74949   8378788.48649  23411192.9454   23411200.5354
 96  2 10 20 29  0.0010000  0  8 31 19 18  2 28 16 27 29
  22086865.952   -14511196.17349 -11296723.67249  22086867.2314   22086873.4044
  20836704.263   -20478732.28749 -15936329.40949  20836706.8084   20836713.2904
  21075084.502   -13749305.72349 -10700773.14649  21075087.5684   21075093.9444
  23527578.161   -10875927.86249  -8457486.81249  23527581.5694   23527589.7894
  23908349.982    -4345175.944 9  -3371267.547 9  23908351.640    23908358.851
  24313608.202    -2966356.07349  -2302328.66049  24313609.6944   24313620.7144
  22136350.241   -13631159.55049 -10601074.82949  22136352.4374   22136359.1784
  23430246.764    10845720.19449   8456816.03749  23430248.3544   23430255.8694
 96  2 10 20 29 30.0010000  0  8 31 19 18  2 28 16 27 29
  22085486.972   -14518437.45849 -11302366.22749  22085489.2574   22085495.3714
  20835036.875   -20487495.15749 -15943157.61549  20835039.5124   20835045.8444
  21086531.375   -13689156.89249 -10653903.94549  21086533.4734   21086539.6784
  23513684.921   -10948949.00349  -8514386.34849  23513686.5444   23513694.9024
  23918318.240    -4292792.034 9  -3330448.930 9  23918320.202    23918327.007
  24308305.862    -2994192.21149  -2324019.01349  24308309.4184   24308323.7614
  22125303.930   -13689208.04149 -10646307.38949  22125306.2414   22125312.6534
  23449341.630    10946085.62549   8535022.79949  23449346.8734   23449354.8454
 96  2 10 20 30  0.0010000  0  8 31 19 18  2 28 16 27 29
  22084230.775   -14525044.83449 -11307514.82749  22084232.3974   22084238.3594
  20833411.876   -20496036.78949 -15949813.42749  20833414.1254   20833420.3414
  21098069.873   -13628520.37849 -10606654.73149  21098072.2214   21098078.6024
  23499826.236   -11021745.63049  -8571110.95049  23499833.5914   23499841.6204
  23928383.453    -4239900.917 9  -3289235.084 9  23928385.265    23928391.574
  24303116.191    -3021494.27449  -2345293.42949  24303117.6044   24303124.2434
  22114278.409   -13747142.48049 -10691451.08249  22114281.7494   22114288.0054
  23468489.094    11046698.93749   8613422.70149  23468493.2984   23468500.4594
 96  2 10 20 30 30.0010000  0  8 31 19 18  2 28 16 27 29
  22083093.316   -14531015.79149 -11312167.51049  22083095.6014   22083101.8054
  20831832.541   -20504335.40949 -15956279.88049  20831834.6794   20831841.1174
  21109704.676   -13567378.81249 -10559011.96749  21109707.2504   21109713.4964
  23486024.266   -11094300.35649  -8627647.02349  23486026.6114   23486035.1294
  23938543.928    -4186494.499 9  -3247619.703 9  23938547.649    23938554.485
  24298019.726    -3048261.27249  -2366150.77549  24298022.6904   24298030.5964
  22103279.989   -13804946.88849 -10736493.43249  22103281.6734   22103288.1494
  23487685.082    11147567.61549   8692021.60849  23487687.9804   23487695.0034
 96  2 10 20 31  0.0010000  0  8 31 19 18  2 28 16 27 29
  22082081.489   -14536335.99049 -11316313.11449  22082083.1664   22082089.6794
  20830297.258   -20512399.33849 -15962563.45649  20830300.2484   20830306.6304
  21121435.814   -13505730.29449 -10510974.17749  21121438.6114   21121444.9474
  23472264.004   -11166607.53349  -8683990.23049  23472266.8974   23472274.8184
  23948807.140    -4132574.192 9  -3205603.902 9  23948808.779    23948815.476
  24293030.096    -3074493.04249  -2386591.15449  24293032.0104   24293037.9564
  22092303.943   -13862622.91249 -10781435.76449  22092306.2634   22092312.5714
  23506927.659    11248686.81249   8770815.70449  23506930.3864   23506937.5074
 96  2 10 20 31 30.0010000  0  8 31 19 18  2 28 16 27 29
  22081192.071   -14541010.08249 -11319955.25749  22081193.8034   22081200.2254
  20828804.383   -20520247.66749 -15968679.03349  20828806.8284   20828812.9994
  21133258.707   -13443602.81349 -10462563.17049  21133260.8394   21133267.3344
  23458552.936   -11238664.13949  -8740138.18249  23458555.4344   23458563.5574
  23959163.588    -4078149.911 9  -3163195.376 9  23959165.396    23959171.868
  24288136.293    -3100210.42249  -2406630.67849  24288137.6884   24288148.7514
  22081349.135   -13920182.93349 -10826287.69749  22081353.1054   22081359.6044
  23526216.926    11350048.26449   8849798.57149  23526218.6024   23526225.7854
 96  2 10 20 32  0.0010000  0  8 31 19 18  2 28 16 27 29
  22080422.033   -14545053.84149 -11323106.22849  22080424.1124   22080430.4164
  20827351.393   -20527882.50049 -15974628.24949  20827353.9374   20827360.1594
  21145168.401   -13381014.88249 -10413793.37149  21145170.9064   21145177.1864
  23444884.685   -11310461.55549  -8796084.15049  23444892.2354   23444900.1944
  23969614.321    -4023226.837 9  -3120398.180 9  23969617.201    23969623.454
  24283339.498    -3125415.84049  -2426271.12749  24283341.9244   24283351.9874
  22070416.448   -13977629.96849 -10871051.58349  22070420.9104   22070427.7674
  23545549.778    11451660.85349   8928977.13949  23545554.8314   23545562.4614
 96  2 10 20 32 30.0010000  0  8 31 19 18  2 28 16 27 29
  22079771.240   -14548479.80049 -11325775.79949  22079772.6494   22079778.6344
  20825937.526   -20535311.46749 -15980417.05049  20825940.5324   20825946.6054
  21157162.856   -13317981.85449 -10364676.74649  21157166.1184   21157172.4324
  23431278.793   -11381995.66849  -8851824.95549  23431279.7524   23431287.5844
  23980160.566    -3967809.527 9  -3077215.855 9  23980162.489    23980168.768
  24278641.779    -3150106.14149  -2445510.28649  24278642.4974   24278650.8424
  22059508.122   -14034962.20549 -10915726.02649  22059511.1434   22059517.8154
  23564935.910    11553521.09949   9008348.66849  23564938.7114   23564945.4274
 96  2 10 20 33  0.0010000  0  8 31 19 18  2 28 16 27 29
  22079239.263   -14551277.02049 -11327955.43449  22079240.0974   22079246.4234
  20824563.238   -20542533.40549 -15986044.53349  20824566.1204   20824572.1144
  21169242.051   -13254509.29049 -10315217.62149  21169244.0374   21169250.4654
  23417711.342   -11453263.56649  -8907358.31049  23417717.6964   23417726.2564
  23990801.665    -3911891.447 9  -3033643.317 9  23990803.358    23990809.937
  24274039.948    -3174277.54049  -2464345.14649  24274042.9084   24274050.0304
  22048622.951   -14092169.27849 -10960302.94549  22048624.9344   22048631.4304
  23584368.004    11655636.81149   9087919.26649  23584370.8624   23584377.3364
 96  2 10 20 33 30.0010000  0  8 31 19 18  2 28 16 27 29
  22078819.773   -14553477.23549 -11329669.87749  22078821.5874   22078827.6994
  20823231.715   -20549531.16249 -15991497.32949  20823234.4574   20823240.8874
  21181401.255   -13190613.73049 -10265428.89349  21181403.4054   21181409.7574
  23404201.565   -11524281.46749  -8962696.88349  23404203.6034   23404211.8964
  24001538.309    -3855479.076 9  -2989685.624 9  24001538.643    24001544.640
  24269540.795    -3197938.84449  -2482782.54949  24269542.2694   24269549.1504
  22037760.770   -14149247.21349 -11004779.22949  22037763.6024   22037769.8504
  23603846.162    11757998.18649   9167681.30049  23603849.4094   23603856.7204
 96  2 10 20 34  0.0010000  0  8 31 19 18  2 28 16 27 29
  22078512.929   -14555085.41149 -11330922.98849  22078515.2734   22078521.8084
  20821948.510   -20556276.41849 -15996753.37349  20821951.0004   20821957.0854
  21193644.462   -13126270.73649 -10215291.50849  21193647.3224   21193653.6194
  23390733.910   -11595056.67849  -9017846.32149  23390735.4834   23390743.2554
  24012366.876    -3798563.793 9  -2945336.053 9  24012368.976    24012375.538
  24265137.395    -3221059.62849  -2500798.73849  24265139.2794   24265149.6114
  22026927.831   -14206180.63449 -11049142.90549  22026929.3694   22026935.8364
  23623370.968    11860600.77249   9247631.27449  23623373.6334   23623381.1764
 96  2 10 20 34 30.0010000  0  8 31 19 18  2 28 16 27 29
  22078315.976   -14556117.56049 -11331727.24749  22078319.0344   22078325.2184
  20820711.390   -20562774.83249 -16001817.07049  20820714.3154   20820720.4304
  21205976.881   -13061466.00849 -10164794.33949  21205979.2264   21205985.5874
  23377308.119   -11665603.99049  -9072818.17449  23377310.8404   23377318.5284
  24023291.866    -3741155.131 9  -2900602.035 9  24023293.473    24023300.221
  24260839.551    -3243644.85249  -2518397.61349  24260841.9764   24260853.0284
  22016120.470   -14262971.34649 -11093395.38949  22016122.4744   22016129.1284
  23642934.503    11963413.95849   9327745.36649  23642938.9334   23642945.9724
 96  2 10 20 35  0.0010000  0  8 31 19 18  2 28 16 27 29
  22078229.239   -14556580.57049 -11332088.01549  22078230.9494   22078236.9434
  20819522.531   -20569024.66449 -16006687.06549  20819525.0104   20819531.2044
  21218399.657   -12996187.21249 -10113927.76849  21218401.4774   21218407.8854
  23363926.071   -11735929.58949  -9127617.27649  23363928.0514   23363936.5554
  24034308.138    -3683259.186 9  -2855488.317 9  24034310.680    24034317.162
  24256642.087    -3265694.09749  -2535578.77149  24256645.3454   24256658.1504
  22005337.369   -14319626.30449 -11137542.08649  22005340.9844   22005347.8114
  23662535.993    12066419.34349   9408009.22149  23662540.1314   23662547.4444
 96  2 10 20 35 30.0010000  0  8 31 19 18  2 28 16 27 29
  22078249.714   -14556459.63649 -11331993.76949  22078253.7464   22078260.2004
  20818380.119   -20575026.99549 -16011364.20549  20818382.7634   20818389.0274
  21230913.872   -12930422.47649 -10062682.54049  21230915.8384   21230922.4224
  23350585.739   -11806038.50249  -9182247.53849  23350587.1774   23350594.8564
  24045418.232    -3624876.501 9  -2809995.329 9  24045420.189    24045427.353
  24252553.237    -3287199.00049  -2552335.78349  24252555.5434   24252564.0404
  21994581.718   -14376148.44049 -11181585.28149  21994585.2234   21994592.0424
  23682177.471    12169622.28649   9488427.01849  23682179.3094   23682186.7854
 96  2 10 20 36  0.0010000  0  8 31 19 18  2 28 16 27 29
  22078392.411   -14555713.87249 -11331412.64149  22078395.5344   22078402.0084
  20817285.021   -20580780.94149 -16015847.79749  20817287.6254   20817293.9154
  21243526.509   -12864138.11649 -10011032.41149  21243529.2634   21243536.0404
  23337290.238   -11875905.61449  -9236689.36449  23337291.4824   23337299.8554
  24056621.663    -3565997.538 9  -2764115.626 9  24056624.735    24056631.265
  24248569.976    -3308138.46749  -2568652.29649  24248571.7634   24248576.7294
  21983852.320   -14432532.40249 -11225520.82749  21983855.9374   21983862.3434
  23701857.485    12273048.71749   9569018.96149  23701861.0104   23701867.8054
 96  2 10 20 36 30.0010000  0  8 31 19 18  2 28 16 27 29
  22078654.033   -14554337.94049 -11330340.47249  22078657.6824   22078663.9094
  20816234.301   -20586305.00849 -16020152.26249  20816236.7264   20816242.7974
  21256235.753   -12797356.08749  -9958994.48949  21256237.7784   21256244.2984
  23324037.792   -11945533.63649  -9290944.90049  23324041.6084   23324049.6884
  24067918.135    -3506635.399 9  -2717859.430 9  24067920.917    24067927.882
  24244685.384    -3328540.22049  -2584549.77149  24244687.9184   24244695.0814
  21973146.528   -14488791.32649 -11269358.91349  21973150.0144   21973156.5164
  23721582.884    12376696.86649   9649783.65449  23721583.6154   23721590.9524
 96  2 10 20 37  0.0010000  0  8 31 19 18  2 28 16 27 29
  22079041.034   -14552308.04349 -11328758.72049  22079043.7194   22079049.8934
  20815227.554   -20591594.60049 -16024274.02049  20815229.8624   20815236.2674
  21269035.287   -12730086.63049  -9906576.74949  21269038.4644   21269045.0444
  23310840.888   -12014912.58349  -9345006.34949  23310839.2444   23310847.3404
  24079308.042    -3446782.169 9  -2671220.575 9  24079310.539    24079317.375
  24240906.775    -3348396.33749  -2600022.05249  24240908.6244   24240914.9154
  21962467.749   -14544918.06849 -11313094.01349  21962469.6984   21962476.1414
  23741350.947    12480592.32349   9730741.07549  23741354.6844   23741362.0494
 96  2 10 20 37 30.0010000  0  8 31 19 18  2 28 16 27 29
  22079552.598   -14549626.56649 -11326669.24049  22079554.3674   22079560.1204
  20814261.796   -20596667.50349 -16028226.92449  20814264.8364   20814270.9134
  21281926.961   -12662345.65949  -9853791.60049  21281929.4644   21281935.9914
  23297679.426   -12084054.01449  -9398882.70449  23297682.2364   23297690.3164
  24090789.545    -3386448.534 9  -2624207.371 9  24090791.821    24090798.590
  24237227.379    -3367722.91449  -2615081.73949  24237228.6264   24237239.3374
  21951811.945   -14600911.00349 -11356724.84949  21951814.5984   21951821.0304
  23761167.700    12584736.65349   9811892.42049  23761172.6764   23761179.8014
 96  2 10 20 38  0.0010000  0  8 31 19 18  2 28 16 27 29
  22080187.059   -14546298.67149 -11324076.05949  22080187.1884   22080193.5664
  20813340.615   -20601508.42149 -16031999.06749  20813343.2444   20813349.6514
  21294905.653   -12594143.14049  -9800646.79649  21294908.0074   21294914.4134
  23284569.990   -12152948.26949  -9452566.46449  23284571.9394   23284579.8824
  24102362.489    -3325632.026 9  -2576817.901 9  24102364.370    24102371.434
  24233654.133    -3386512.65149  -2629723.02949  24233656.3074   24233666.5044
  21941184.022   -14656759.79149 -11400243.36349  21941186.7234   21941193.1824
  23781032.598    12689120.61149   9893230.47149  23781035.5284   23781043.8094
 96  2 10 20 38 30.0010000  0  8 31 19 18  2 28 16 27 29
  22080937.222   -14542343.13549 -11320993.80849  22080939.8264   22080946.3914
  20812464.159   -20606115.13149 -16035588.70849  20812466.8274   20812473.0964
  21307966.044   -12525511.24049  -9747167.41449  21307968.0054   21307974.6474
  23271507.173   -12221600.17749  -9506061.39149  23271507.5494   23271515.5484
  24114026.873    -3264333.300 9  -2529052.674 9  24114029.687    24114036.219
  24230179.650    -3404773.93449  -2643952.59949  24230182.4244   24230190.6724
  21930586.431   -14712454.91349 -11443642.12849  21930588.2594   21930594.7974
  23800942.954    12793734.68949   9974747.85849  23800944.1564   23800951.6654
 96  2 10 20 39  0.0010000  0  8 31 19 18  2 28 16 27 29
  22081806.247   -14537761.34549 -11317423.56649  22081811.5574   22081817.9204
  20811633.930   -20610478.87949 -16038989.03349  20811636.4304   20811642.8914
  21321109.831   -12456442.91149  -9693347.96149  21321111.0954   21321117.8684
  23258486.701   -12289997.49949  -9559357.93649  23258491.8674   23258500.0974
  24125785.225    -3202552.058 9  -2480911.464 9  24125786.557    24125792.805
  24226808.175    -3422493.08349  -2657759.69849  24226810.0154   24226817.4794
  21920020.580   -14767981.48149 -11486909.56049  21920022.1904   21920028.8594
  23820891.975    12898573.50849  10056440.35549  23820893.2904   23820902.0804
 96  2 10 20 39 30.0010000  0  8 31 19 18  2 28 16 27 29
  22082802.754   -14532561.23349 -11313371.51849  22082801.1844   22082807.4884
  20810851.308   -20614589.39249 -16042192.02949  20810854.1394   20810860.5604
  21334333.894   -12386940.68549  -9639190.39849  21334337.4214   21334343.9024
  23245523.127   -12358142.51349  -9612457.86649  23245524.4164   23245532.7554
  24137630.498    -3140296.448 9  -2432400.613 9  24137632.953    24137640.107
  24223537.481    -3439679.26849  -2671151.52749  24223539.2864   24223548.3604
  21909485.979   -14823343.95949 -11530049.13349  21909486.9314   21909493.2604
  23840879.213    13003611.55349  10138288.11349  23840882.8864   23840889.2714
 96  2 10 20 40  0.0010000  0  8 31 19 18  2 28 16 27 29
  22083903.465   -14526747.75449 -11308841.51749  22083907.3054   22083913.7624
  20810119.861   -20618432.55449 -16045186.69849  20810122.5784   20810129.0294
  21347642.400   -12317012.00449  -9584700.53349  21347644.2154   21347650.9784
  23232603.781   -12426028.04749  -9665355.61149  23232606.3064   23232613.8804
  24149567.011    -3077568.553 9  -2383521.756 9  24149569.536    24149576.154
  24220367.869    -3456332.18249  -2684127.79449  24220368.8614   24220379.0624
  21898977.494   -14878558.30849 -11573073.26949  21898979.6744   21898986.1894
  23860902.810    13108830.63049  10220276.91449  23860904.8044   23860912.5454
 96  2 10 20 40 30.0010000  0  8 31 19 18  2 28 16 27 29
  22085128.372   -14520330.24749 -11303840.85249  22085128.7724   22085135.0534
  20809435.893   -20622029.87549 -16047989.80449  20809438.2104   20809444.5604
  21361031.417   -12246651.32849  -9529874.04949  21361033.5174   21361040.1704
  23219733.617   -12493653.65449  -9718050.81449  23219737.2084   23219745.7144
  24161592.630    -3014375.624 9  -2334280.535 9  24161594.658    24161601.931
  24217297.252    -3472460.84949  -2696695.54449  24217299.4904   24217307.7524
  21888497.141   -14933633.92349 -11615989.31149  21888499.1934   21888505.8094
  23880960.260    13214225.27049  10302402.51549  23880960.9434   23880968.2814
 96  2 10 20 41  0.0010000  0  8 31 19 18  2 28 16 27 29
  22086463.182   -14513302.85949 -11298364.95049  22086466.0054   22086472.2554
  20808796.764   -20625387.68849 -16050606.27949  20808799.2714   20808805.6514
  21374505.389   -12175844.42349  -9474699.85549  21374507.4564   21374514.3304
  23206915.831   -12561029.05649  -9770551.05049  23206916.3474   23206924.2514
  24173705.276    -2950719.954 9  -2284678.741 9  24173708.152    24173714.986
  24214329.165    -3488059.75149  -2708850.54749  24214331.1514   24214338.4634
  21878041.430   -14988576.98749 -11658802.06049  21878044.0674   21878050.5894
  23901047.079    13319787.22449  10384658.49949  23901048.8764   23901056.3484
 96  2 10 20 41 30.0010000  0  8 31 19 18  2 28 16 27 29
  22087916.781   -14505667.97449 -11292415.68249  22087919.0344   22087925.5714
  20808201.155   -20628517.13949 -16053044.80749  20808203.7524   20808210.2314
  21388064.106   -12104592.09449  -9419178.57849  21388066.2134   21388072.8434
  23194139.535   -12628164.27249  -9822864.12449  23194140.7594   23194148.7694
  24185907.782    -2886596.634 9  -2234712.535 9  24185910.814    24185916.999
  24211461.655    -3503130.84349  -2720594.30449  24211463.5084   24211470.9234
  21867609.966   -15043394.54349 -11701517.00749  21867612.5414   21867618.8684
  23921166.845    13425526.53549  10467052.69049  23921170.4224   23921177.6684
 96  2 10 20 42  0.0010000  0  8 31 19 18  2 28 16 27 29
  22089485.053   -14497433.65749 -11285999.32149  22089486.1134   22089491.8954
  20807645.325   -20631436.75349 -16055319.82849  20807648.2774   20807654.8144
  21401704.795   -12032907.20249  -9363320.24049  21401707.5264   21401714.4544
  23181408.519   -12695057.43149  -9874988.59049  23181411.3404   23181419.5184
  24198199.108    -2822007.258 9  -2184383.146 9  24198201.720    24198208.007
  24208690.929    -3517679.07049  -2731930.54749  24208694.1364   24208702.9094
  21857199.873   -15098092.11149 -11744138.45449  21857203.8624   21857210.0634
  23941326.362    13531458.09649  10549596.66949  23941329.1784   23941336.8184
 96  2 10 20 42 30.0010000  0  8 31 19 18  2 28 16 27 29
  22091168.075   -14488587.41249 -11279106.13349  22091169.3394   22091175.4264
  20807130.836   -20634144.94049 -16057430.09549  20807133.1504   20807139.3424
  21415431.830   -11960775.63549  -9307113.84349  21415433.7554   21415440.5934
  23168721.027   -12761711.99649  -9926927.13549  23168727.3694   23168735.1874
  24210579.152    -2756945.673 9  -2133685.828 9  24210582.754    24210588.499
  24206026.435    -3531693.44949  -2742850.85149  24206029.7424   24206037.2624
  21846820.225   -15152643.82349 -11786646.25249  21846823.0834   21846829.3574
  23961526.122    13637609.32249  10632311.82049  23961527.9544   23961536.9924
 96  2 10 20 43  0.0010000  0  8 31 19 18  2 28 16 27 29
  22092965.798   -14479145.95849 -11271749.15449  22092965.8224   22092971.8824
  20806653.482   -20636650.75549 -16059382.66449  20806656.2764   20806662.1874
  21429236.329   -11888228.18049  -9250583.37949  21429239.1544   21429245.9984
  23156079.915   -12828160.24649  -9978704.91049  23156082.6634   23156090.6644
  24223046.278    -2691439.426 9  -2082641.998 9  24223047.792    24223054.259
  24203458.061    -3545197.31749  -2753373.31149  24203459.2324   24203468.8144
  21836461.234   -15207079.15149 -11829063.35249  21836464.4254   21836470.6844
  23981762.495    13743959.93849  10715182.33749  23981766.6724   23981774.1514
 96  2 10 20 43 30.0010000  0  8 31 19 18  2 28 16 27 29
  22094875.187   -14469081.88449 -11263907.01149  22094881.0244   22094887.2024
  20806219.992   -20638931.93449 -16061160.19449  20806222.1054   20806228.1504
  21443125.022   -11815246.21649  -9193714.33749  21443126.9484   21443133.8854
  23143482.294   -12894361.24349 -10030290.03349  23143484.8634   23143492.8444
  24235597.933    -2625472.053 9  -2031238.839 9  24235601.200    24235607.644
  24200986.298    -3558172.28349  -2763483.63349  24200989.7304   24201000.1804
  21826126.173   -15261388.48049 -11871382.27549  21826129.3254   21826135.8064
  24002041.039    13850528.22549  10798222.46949  24002045.2714   24002053.7384
 96  2 10 20 44  0.0010000  0  8 31 19 18  2 28 16 27 29
  22096915.238   -14458388.92049 -11255574.82249  22096915.7854   22096921.8434
  20805830.790   -20640974.04849 -16062751.43649  20805833.3954   20805839.4544
  21457094.550   -11741828.94049  -9136506.09349  21457098.0894   21457104.8314
  23130932.334   -12960307.59249 -10081676.72949  23130935.7754   23130943.4874
  24248236.725    -2559047.947 9  -1979479.792 9  24248241.225    24248247.656
  24198620.700    -3570610.00449  -2773175.35749  24198622.1994   24198633.1724
  21815818.170   -15315563.17349 -11913596.28649  21815820.3684   21815826.9704
  24022364.807    13957318.63249  10881435.67049  24022367.5744   24022375.7304
 96  2 10 20 44 30.0010000  0  8 31 19 18  2 28 16 27 29
  22099067.271   -14447064.72749 -11246750.76649  22099070.5494   22099076.9984
  20805489.591   -20642768.33949 -16064149.57349  20805491.8334   20805498.1274
  21471152.447   -11667961.95749  -9078947.42449  21471154.3504   21471160.9504
  23118434.529   -13025999.30349 -10132865.00649  23118434.8864   23118442.9984
  24260966.082    -2492172.321 9  -1927368.913 9  24260966.882    24260973.817
  24196356.186    -3582492.25949  -2782434.21549  24196359.9304   24196370.4224
  21805537.471   -15369590.18549 -11955695.21649  21805539.4564   21805545.9144
  24042722.380    14064316.66649  10964810.67549  24042728.4974   24042736.6114
 96  2 10 20 45  0.0010000  0  8 31 19 18  2 28 16 27 29
  22101347.031   -14435110.12649 -11237435.48649  22101345.7854   22101351.5864
  20805195.257   -20644312.23449 -16065352.59149  20805198.1164   20805204.4154
  21485292.966   -11593650.44049  -9021042.37149  21485295.4874   21485302.1444
  23105984.576   -13091405.60749 -10183830.88649  23105988.1454   23105996.1704
  24273778.511    -2424842.502 9  -1874904.113 9  24273778.855    24273786.036
  24194205.268    -3593817.27449  -2791258.89749  24194205.3864   24194215.5354
  21795284.230   -15423466.61849 -11997676.81849  21795286.9864   21795293.3384
  24063125.108    14171514.33249  11048341.23549  24063127.7434   24063135.6454
 96  2 10 20 45 30.0010000  0  8 31 19 18  2 28 16 27 29
  22103736.083   -14422538.75349 -11227639.60549  22103737.6994   22103743.9014
  20804948.238   -20645611.59349 -16066365.06449  20804950.6564   20804956.9084
  21499516.726   -11518902.82949  -8962797.50349  21499519.2444   21499525.9014
  23093596.961   -13156519.58449 -10234568.98449  23093597.9144   23093605.6264
  24286675.422    -2357059.934 9  -1822086.523 9  24286677.940    24286684.767
  24192154.181    -3604587.77449  -2799651.47249  24192156.9994   24192164.0634
  21785065.010   -15477174.64749 -12039527.20249  21785066.7234   21785073.0324
  24083559.961    14278903.15049  11132020.73549  24083563.1024   24083571.4954
 96  2 10 20 46  0.0010000  0  8 31 19 18  2 28 16 27 29
  22106241.424   -14409359.38449 -11217369.95749  22106246.1374   22106252.2324
  20804749.967   -20646652.82449 -16067176.39949  20804752.8864   20804759.0874
  21513821.978   -11443727.49949  -8904219.34749  21513824.7404   21513831.5014
  23081257.767   -13221354.95049 -10285089.98349  23081260.1494   23081267.6914
  24299661.361    -2288821.559 9  -1768913.764 9  24299663.658    24299669.979
  24190212.845    -3614800.70149  -2807609.62849  24190215.4454   24190219.5374
  21774878.460   -15530698.08049 -12081233.73849  21774881.5994   21774888.0504
  24104031.864    14386484.54849  11215850.30849  24104034.8844   24104043.0514
 96  2 10 20 46 30.0010000  0  8 31 19 18  2 28 16 27 29
  22108866.074   -14395575.08449 -11206628.93349  22108869.0854   22108874.9444
  20804599.274   -20647444.51849 -16067793.29149  20804602.0984   20804608.2444
  21528207.329   -11368131.95949  -8845313.76349  21528210.1684   21528216.9254
  23068969.520   -13285917.72049 -10335398.58049  23068973.7794   23068981.9384
  24312731.157    -2220135.862 9  -1715392.431 9  24312734.030    24312740.332
  24188373.332    -3624471.33049  -2815145.18949  24188374.8424   24188381.4684
  21764724.811   -15584053.57049 -12122809.40849  21764728.2444   21764734.6694
  24124535.731    14494231.27549  11299808.70049  24124539.5594   24124546.7064
 96  2 10 20 47  0.0010000  0  8 31 19 18  2 28 16 27 29
  22111607.263   -14381181.36249 -11195413.02949  22111607.8164   22111613.7854
  20804494.510   -20647995.71449 -16068222.77949  20804496.8384   20804503.3954
  21542669.277   -11292136.47849  -8786096.52649  21542671.6104   21542678.4584
  23056733.674   -13350228.85249 -10385511.08149  23056736.0454   23056743.6104
  24325887.327    -2151007.466 9  -1661526.126 9  24325888.626    24325895.292
  24186630.063    -3633624.01149  -2822277.10649  24186633.1874   24186640.0574
  21754599.903   -15637260.79849 -12164269.55349  21754603.1674   21754609.7004
  24145069.106    14602139.33549  11383892.81449  24145073.0764   24145081.3524
 96  2 10 20 47 30.0010000  0  8 31 19 18  2 28 16 27 29
  22114467.516   -14366164.41149 -11183711.49949  22114465.8254   22114471.5154
  20804437.359   -20648296.07749 -16068456.82049  20804439.8954   20804446.3344
  21557208.876   -11215730.41449  -8726559.35949  21557211.3694   21557218.0744
  23044538.449   -13414314.46949 -10435447.86349  23044541.1954   23044548.4574
  24339125.241    -2081434.401 9  -1607313.340 9  24339127.692    24339134.172
  24184990.223    -3642250.31249  -2828998.90449  24184992.2164   24184998.8264
  21744499.708   -15690335.48449 -12205626.41749  21744503.5054   21744509.5204
  24165634.340    14710200.86149  11468096.50349  24165636.5104   24165644.7094
 96  2 10 20 48  0.0010000  0  8 31 19 18  2 28 16 27 29
  22117438.894   -14350514.47649 -11171516.72449  22117444.0034   22117449.5794
  20804426.697   -20648353.54349 -16068501.58449  20804429.1674   20804435.3044
  21571827.138   -11138911.48049  -8666700.47249  21571829.6044   21571836.1824
  23032384.312   -13478190.59549 -10485221.41449  23032385.4854   23032393.0684
  24352446.103    -2011431.843 9  -1552765.886 9  24352448.916    24352455.576
  24183445.305    -3650365.98249  -2835322.81149  24183446.1194   24183454.3624
  21734420.922   -15743306.41149 -12246902.43349  21734423.5534   21734429.6634
  24186223.762    14818403.93649  11552410.49849  24186226.6264   24186235.3964
 96  2 10 20 48 30.0010000  0  8 31 19 18  2 28 16 27 29
  22120543.750   -14334211.23549 -11158812.88149  22120546.1744   22120552.2714
  20804461.673   -20648171.08949 -16068359.40849  20804463.8364   20804469.9734
  21586528.498   -11061656.12849  -8606501.52249  21586530.8504   21586537.5304
  23020270.550   -13541837.53649 -10534816.36349  23020273.8164   23020281.6964
  24365849.846    -1940993.311 9  -1497878.697 9  24365852.755    24365859.381
  24181998.982    -3657963.71949  -2841243.14649  24182000.8494   24182008.8214
  21724363.744   -15796158.80849 -12288086.08649  21724365.8304   21724371.9994
  24206841.055    14926758.98949  11636842.90549  24206846.2694   24206854.4924
 96  2 10 20 49  0.0010000  0  8 31 19 18  2 28 16 27 29
  22123768.829   -14317267.47149 -11145609.93049  22123770.1314   22123776.3164
  20804540.058   -20647758.31949 -16068037.76049  20804542.1884   20804548.4684
  21601311.230   -10983973.87849  -8545969.92149  21601313.1674   21601319.9884
  23008202.159   -13605257.52649 -10584234.49749  23008205.6864   23008213.1404
  24379338.263    -1870122.085 9  -1442654.349 9  24379339.277    24379345.325
  24180652.352    -3665042.75549  -2846759.26649  24180654.0434   24180661.5924
  21714329.251   -15848886.92049 -12329172.89249  21714332.0794   21714338.2354
  24227495.390    15035272.56449  11721398.85349  24227495.6404   24227503.7674
 96  2 10 20 49 30.0010000  0  8 31 19 18  2 28 16 27 29
  22127116.017   -14299673.15449 -11131900.05449  22127118.3604   22127124.3964
  20804665.646   -20647095.87649 -16067521.56449  20804668.4374   20804674.5974
  21616180.111   -10905833.76349  -8485081.54349  21616182.7744   21616189.3014
  22996185.871   -13668402.11449 -10633438.00149  22996189.3204   22996197.0554
  24392909.840    -1798797.969 9  -1387077.099 9  24392912.071    24392917.830
  24179410.195    -3671573.73249  -2851848.37449  24179412.1224   24179418.9584
  21704325.428   -15901453.05449 -12370133.47549  21704328.9194   21704335.0064
  24248180.328    15143968.60649  11806096.96549  24248179.5004   24248188.0754
 96  2 10 20 50  0.0010000  0  8 31 19 18  2 28 16 27 29
  22130584.095   -14281436.10949 -11117689.35049  22130588.7004   22130594.8224
  20804838.481   -20646191.51949 -16066816.86049  20804840.6484   20804846.6264
  21631136.670   -10827242.39549  -8423841.53549  21631138.0644   21631144.9894
  22984222.700   -13731263.49649 -10682420.84049  22984227.2154   22984235.0264
  24406567.527    -1727024.511 9  -1331149.706 9  24406569.983    24406576.060
  24178268.272    -3677559.35349  -2856512.46749  24178271.3694   24178281.3184
  21694359.605   -15953823.64649 -12410941.68849  21694363.0324   21694369.3634
  24268902.062    15252863.92349  11890950.37349  24268901.9184   24268909.7654
 96  2 10 20 50 30.0010000  0  8 31 19 18  2 28 16 27 29
  22134174.000   -14262584.18749 -11102999.52249  22134176.0894   22134182.2824
  20805052.466   -20645064.35049 -16065938.53749  20805054.8604   20805061.0514
  21646169.635   -10748238.10749  -8362279.77549  21646172.2544   21646179.2474
  22972314.762   -13793856.47849 -10731194.54449  22972316.3114   22972323.8324
  24420308.287    -1654814.671 9  -1274882.273 9  24420310.976    24420317.332
  24177231.869    -3682996.89349  -2860749.43949  24177235.3304   24177245.9004
  21684432.809   -16005998.53849 -12451597.42249  21684434.5654   21684440.5484
  24289658.260    15361947.17449  11975950.21849  24289659.4254   24289667.9934
 96  2 10 20 51  0.0010000  0  8 31 19 18  2 28 16 27 29
  22137879.092   -14243121.16949 -11087833.51249  22137879.9834   22137885.9084
  20805312.581   -20643696.46849 -16064872.64449  20805315.1594   20805321.2594
  21661279.614   -10668834.77649  -8300407.07149  21661282.1444   21661288.8504
  22960453.172   -13856189.62249 -10779765.75149  22960454.3214   22960462.1604
  24434132.082    -1582170.667 9  -1218276.534 9  24434134.544    24434141.377
  24176303.416    -3687876.20149  -2864551.48249  24176306.0094   24176318.7994
  21674537.992   -16057987.20349 -12492108.03249  21674541.3894   21674547.6914
  24310448.511    15471210.25349  12061090.21349  24310452.5354   24310460.6164
 96  2 10 20 51 30.0010000  0  8 31 19 18  2 28 16 27 29
  22141697.620   -14223043.23349 -11072188.35049  22141700.4494   22141706.4884
  20805622.718   -20642067.91649 -16063603.62549  20805625.1014   20805631.1724
  21676466.862   -10589029.69649  -8238221.31249  21676468.4624   21676475.4354
  22948638.563   -13918269.69549 -10828139.77849  22948640.8914   22948648.4764
  24448038.099    -1509099.065 9  -1161337.613 9  24448039.414    24448046.405
  24175481.653    -3692200.45049  -2867921.00449  24175484.1644   24175494.5954
  21664680.191   -16109798.13449 -12532480.16149  21664681.9824   21664688.1934
  24331274.710    15580646.71249  12146365.29849  24331275.7194   24331285.0274
 96  2 10 20 52  0.0010000  0  8 31 19 18  2 28 16 27 29
  22145635.694   -14202343.64349 -11056058.77749  22145639.9094   22145645.6684
  20805986.805   -20640155.09149 -16062113.10249  20805989.2104   20805995.3524
  21691729.204   -10508828.51449  -8175726.90949  21691730.6174   21691737.1974
  22936871.349   -13980105.38849 -10876323.36649  22936873.8154   22936881.7524
  24462023.007    -1435598.816 9  -1104064.692 9  24462026.320    24462033.194
  24174765.382    -3695963.67849  -2870853.40549  24174767.6064   24174777.0084
  21654853.082   -16161436.19549 -12572717.57649  21654855.5774   21654862.0454
  24352131.569    15690251.00349  12231771.15149  24352135.4954   24352142.6634
 96  2 10 20 52 30.0010000  0  8 31 19 18  2 28 16 27 29
  22149693.340   -14181033.35949 -11039453.34549  22149694.8264   22149701.1934
  20806403.904   -20637965.15549 -16060406.64849  20806405.9634   20806412.0594
  21707062.591   -10428244.50849  -8112934.19449  21707065.2864   21707071.8174
  22925148.205   -14041700.85149 -10924319.77149  22925152.6764   22925160.6334
  24476088.917    -1361684.647 9  -1046469.221 9  24476091.580    24476098.360
  24174153.157    -3699181.92849  -2873361.09049  24174156.0794   24174166.9684
  21645054.296   -16212933.03349 -12612844.95849  21645056.1894   21645062.4064
  24373016.733    15799988.13049  12317280.54649  24373017.4574   24373024.9314
